<?xml version='1.0' encoding='UTF-8'?><gpx version="1.1" creator="JPX - https://github.com/jenetics/jpx" xmlns="http://www.topografix.com/GPX/1/1"><trk><trkseg><trkpt lat="45.39080978928554" lon="7.964414750076642"><ele>390.0</ele><time>2026-04-05T16:11:32.999Z</time></trkpt><trkpt lat="45.39086467095429" lon="7.964343522188505"><ele>390.0</ele><time>2026-04-05T16:11:34.999Z</time></trkpt><trkpt lat="45.390937692761476" lon="7.964242009318778"><ele>390.0</ele><time>2026-04-05T16:11:36.999Z</time></trkpt><trkpt lat="45.39101418708242" lon="7.964177393030812"><ele>390.0</ele><time>2026-04-05T16:11:38.999Z</time></trkpt><trkpt lat="45.39106581015573" lon="7.964096599798287"><ele>390.0</ele><time>2026-04-05T16:11:40.999Z</time></trkpt><trkpt lat="45.3911433993474" lon="7.9639734917187095"><ele>390.8</ele><time>2026-04-05T16:11:41.999Z</time></trkpt><trkpt lat="45.3911947628062" lon="7.963893490155963"><ele>391.6</ele><time>2026-04-05T16:11:43.999Z</time></trkpt><trkpt lat="45.39126294109913" lon="7.9637107478981175"><ele>392.4</ele><time>2026-04-05T16:11:44.999Z</time></trkpt><trkpt lat="45.39135496303061" lon="7.963694322589959"><ele>393.2</ele><time>2026-04-05T16:11:45.999Z</time></trkpt><trkpt lat="45.39139947757707" lon="7.963802005084325"><ele>394.0</ele><time>2026-04-05T16:11:46.999Z</time></trkpt><trkpt lat="45.39136440636953" lon="7.963913581787689"><ele>394.0</ele><time>2026-04-05T16:11:47.999Z</time></trkpt><trkpt lat="45.391340338567055" lon="7.964088782076743"><ele>394.0</ele><time>2026-04-05T16:11:49.999Z</time></trkpt><trkpt lat="45.39132677173143" lon="7.964217845424304"><ele>394.0</ele><time>2026-04-05T16:11:50.999Z</time></trkpt><trkpt lat="45.39131974354917" lon="7.964372437358909"><ele>394.0</ele><time>2026-04-05T16:11:51.999Z</time></trkpt><trkpt lat="45.39131279884694" lon="7.964529742296646"><ele>394.0</ele><time>2026-04-05T16:11:52.999Z</time></trkpt><trkpt lat="45.391306058833024" lon="7.964713210372341"><ele>393.0</ele><time>2026-04-05T16:11:53.999Z</time></trkpt><trkpt lat="45.3912790501026" lon="7.964874394805072"><ele>392.0</ele><time>2026-04-05T16:11:54.999Z</time></trkpt><trkpt lat="45.39123064345778" lon="7.965039619661011"><ele>391.0</ele><time>2026-04-05T16:11:55.999Z</time></trkpt><trkpt lat="45.3911596720693" lon="7.9651813408839685"><ele>390.0</ele><time>2026-04-05T16:11:56.999Z</time></trkpt><trkpt lat="45.39112040676821" lon="7.965462461333416"><ele>389.6</ele><time>2026-04-05T16:11:58.999Z</time></trkpt><trkpt lat="45.391137626095635" lon="7.965624952131667"><ele>389.2</ele><time>2026-04-05T16:11:59.999Z</time></trkpt><trkpt lat="45.39116091758223" lon="7.965748378222128"><ele>388.79999999999995</ele><time>2026-04-05T16:12:00.999Z</time></trkpt><trkpt lat="45.39118291726996" lon="7.965855838342184"><ele>388.4</ele><time>2026-04-05T16:12:01.999Z</time></trkpt><trkpt lat="45.39122339698897" lon="7.965931157568608"><ele>388.0</ele><time>2026-04-05T16:12:02.999Z</time></trkpt><trkpt lat="45.39133307606951" lon="7.966003587929492"><ele>383.6666666666667</ele><time>2026-04-05T16:12:04.999Z</time></trkpt><trkpt lat="45.391388579966595" lon="7.965907317732896"><ele>379.33333333333337</ele><time>2026-04-05T16:12:05.999Z</time></trkpt><trkpt lat="45.391366689341126" lon="7.965792633846268"><ele>375.0</ele><time>2026-04-05T16:12:06.999Z</time></trkpt><trkpt lat="45.3913797835614" lon="7.965695396079254"><ele>370.6666666666667</ele><time>2026-04-05T16:12:07.999Z</time></trkpt><trkpt lat="45.3914010205537" lon="7.965555410981858"><ele>366.33333333333337</ele><time>2026-04-05T16:12:08.999Z</time></trkpt><trkpt lat="45.39143594115468" lon="7.965418687884334"><ele>362.0</ele><time>2026-04-05T16:12:09.999Z</time></trkpt><trkpt lat="45.39152001243828" lon="7.965314682402107"><ele>361.8</ele><time>2026-04-05T16:12:10.999Z</time></trkpt><trkpt lat="45.391600706428065" lon="7.9652019998745525"><ele>361.6</ele><time>2026-04-05T16:12:11.999Z</time></trkpt><trkpt lat="45.39169588081487" lon="7.9651274114286785"><ele>361.40000000000003</ele><time>2026-04-05T16:12:12.999Z</time></trkpt><trkpt lat="45.39177941254518" lon="7.96502607950093"><ele>361.20000000000005</ele><time>2026-04-05T16:12:13.999Z</time></trkpt><trkpt lat="45.39188461565063" lon="7.9649574632401645"><ele>361.0</ele><time>2026-04-05T16:12:14.999Z</time></trkpt><trkpt lat="45.39197836032868" lon="7.964895392905617"><ele>362.0</ele><time>2026-04-05T16:12:15.999Z</time></trkpt><trkpt lat="45.39205913875594" lon="7.9648733148544295"><ele>363.0</ele><time>2026-04-05T16:12:16.999Z</time></trkpt><trkpt lat="45.39216987128349" lon="7.964816218723778"><ele>364.0</ele><time>2026-04-05T16:12:18.999Z</time></trkpt><trkpt lat="45.392238066763795" lon="7.964959411663325"><ele>365.0</ele><time>2026-04-05T16:12:20.999Z</time></trkpt><trkpt lat="45.39223460285081" lon="7.965064721583664"><ele>366.0</ele><time>2026-04-05T16:12:21.999Z</time></trkpt><trkpt lat="45.39221419785202" lon="7.965170419541822"><ele>362.0</ele><time>2026-04-05T16:12:22.999Z</time></trkpt><trkpt lat="45.39220004250186" lon="7.965266793387996"><ele>358.0</ele><time>2026-04-05T16:12:23.999Z</time></trkpt><trkpt lat="45.392197902163545" lon="7.965403373584222"><ele>354.0</ele><time>2026-04-05T16:12:24.999Z</time></trkpt><trkpt lat="45.39220724660251" lon="7.965571679800685"><ele>350.0</ele><time>2026-04-05T16:12:25.999Z</time></trkpt><trkpt lat="45.3922439801841" lon="7.9657552598451495"><ele>346.0</ele><time>2026-04-05T16:12:26.999Z</time></trkpt><trkpt lat="45.39226592277462" lon="7.965984680260308"><ele>345.16666666666663</ele><time>2026-04-05T16:12:27.999Z</time></trkpt><trkpt lat="45.39230397438315" lon="7.966132487409964"><ele>344.3333333333333</ele><time>2026-04-05T16:12:28.999Z</time></trkpt><trkpt lat="45.392340948719415" lon="7.966241745688693"><ele>343.5</ele><time>2026-04-05T16:12:29.999Z</time></trkpt><trkpt lat="45.39239591259263" lon="7.966315122092179"><ele>342.6666666666667</ele><time>2026-04-05T16:12:30.998Z</time></trkpt><trkpt lat="45.392436432166654" lon="7.966389196819137"><ele>341.83333333333337</ele><time>2026-04-05T16:12:31.998Z</time></trkpt><trkpt lat="45.39252392230912" lon="7.966410681452816"><ele>341.0</ele><time>2026-04-05T16:12:32.998Z</time></trkpt><trkpt lat="45.39261429907937" lon="7.9663193050495655"><ele>341.0</ele><time>2026-04-05T16:12:33.998Z</time></trkpt><trkpt lat="45.39262318625384" lon="7.966147942208394"><ele>341.0</ele><time>2026-04-05T16:12:34.998Z</time></trkpt><trkpt lat="45.39261645690742" lon="7.966022197479891"><ele>341.0</ele><time>2026-04-05T16:12:35.998Z</time></trkpt><trkpt lat="45.39263578961146" lon="7.9658555373578865"><ele>341.0</ele><time>2026-04-05T16:12:36.998Z</time></trkpt><trkpt lat="45.39267560578504" lon="7.965653502588393"><ele>342.0</ele><time>2026-04-05T16:12:37.998Z</time></trkpt><trkpt lat="45.39269284972866" lon="7.965435803010629"><ele>343.0</ele><time>2026-04-05T16:12:38.998Z</time></trkpt><trkpt lat="45.39271919893731" lon="7.965235809277376"><ele>344.0</ele><time>2026-04-05T16:12:39.998Z</time></trkpt><trkpt lat="45.39278343040947" lon="7.96506770367511"><ele>345.0</ele><time>2026-04-05T16:12:40.998Z</time></trkpt><trkpt lat="45.39285173755175" lon="7.9649032920017655"><ele>345.0</ele><time>2026-04-05T16:12:41.998Z</time></trkpt><trkpt lat="45.39292820619279" lon="7.964739871416805"><ele>345.0</ele><time>2026-04-05T16:12:42.998Z</time></trkpt><trkpt lat="45.39301689055332" lon="7.964579199403401"><ele>345.0</ele><time>2026-04-05T16:12:43.998Z</time></trkpt><trkpt lat="45.39310587834134" lon="7.964433816216507"><ele>345.0</ele><time>2026-04-05T16:12:44.998Z</time></trkpt><trkpt lat="45.393187368318586" lon="7.964317544008462"><ele>341.3333333333333</ele><time>2026-04-05T16:12:45.998Z</time></trkpt><trkpt lat="45.39325615439462" lon="7.964232689149244"><ele>337.6666666666667</ele><time>2026-04-05T16:12:46.998Z</time></trkpt><trkpt lat="45.39332815839788" lon="7.964211651738215"><ele>334.0</ele><time>2026-04-05T16:12:47.998Z</time></trkpt><trkpt lat="45.393424873281276" lon="7.964260687151154"><ele>330.33333333333337</ele><time>2026-04-05T16:12:49.998Z</time></trkpt><trkpt lat="45.39346123182356" lon="7.9643542091107955"><ele>326.6666666666667</ele><time>2026-04-05T16:12:50.998Z</time></trkpt><trkpt lat="45.39347015807863" lon="7.964456599753365"><ele>323.0</ele><time>2026-04-05T16:12:51.998Z</time></trkpt><trkpt lat="45.39347130603177" lon="7.964569109335069"><ele>323.0</ele><time>2026-04-05T16:12:52.998Z</time></trkpt><trkpt lat="45.39347125627216" lon="7.964703552739988"><ele>323.0</ele><time>2026-04-05T16:12:53.998Z</time></trkpt><trkpt lat="45.39347997488706" lon="7.964865961123427"><ele>323.0</ele><time>2026-04-05T16:12:54.998Z</time></trkpt><trkpt lat="45.393498616873714" lon="7.964992303175356"><ele>323.0</ele><time>2026-04-05T16:12:55.998Z</time></trkpt><trkpt lat="45.393536100207335" lon="7.965118563757263"><ele>323.0</ele><time>2026-04-05T16:12:56.998Z</time></trkpt><trkpt lat="45.393616914760685" lon="7.965229205112227"><ele>323.75</ele><time>2026-04-05T16:12:57.998Z</time></trkpt><trkpt lat="45.39372217976457" lon="7.9652915915623925"><ele>324.5</ele><time>2026-04-05T16:12:58.998Z</time></trkpt><trkpt lat="45.39383212785992" lon="7.965357696096702"><ele>325.25</ele><time>2026-04-05T16:12:59.998Z</time></trkpt><trkpt lat="45.393951122586806" lon="7.9654339635903835"><ele>326.0</ele><time>2026-04-05T16:13:00.998Z</time></trkpt><trkpt lat="45.39405495136946" lon="7.965513197542922"><ele>321.0</ele><time>2026-04-05T16:13:01.998Z</time></trkpt><trkpt lat="45.39415580819555" lon="7.965567926911847"><ele>316.0</ele><time>2026-04-05T16:13:02.998Z</time></trkpt><trkpt lat="45.39426976463275" lon="7.965554589678244"><ele>311.0</ele><time>2026-04-05T16:13:03.998Z</time></trkpt><trkpt lat="45.39437849823874" lon="7.965533491559222"><ele>306.0</ele><time>2026-04-05T16:13:04.998Z</time></trkpt><trkpt lat="45.39450424342867" lon="7.96553344278951"><ele>306.0</ele><time>2026-04-05T16:13:05.998Z</time></trkpt><trkpt lat="45.394624861367" lon="7.965515882102945"><ele>306.0</ele><time>2026-04-05T16:13:06.998Z</time></trkpt><trkpt lat="45.394740830921165" lon="7.965500338526616"><ele>306.0</ele><time>2026-04-05T16:13:07.998Z</time></trkpt><trkpt lat="45.39485623728649" lon="7.965496280015919"><ele>306.0</ele><time>2026-04-05T16:13:08.998Z</time></trkpt><trkpt lat="45.39496350666974" lon="7.96549880003804"><ele>304.6666666666667</ele><time>2026-04-05T16:13:09.998Z</time></trkpt><trkpt lat="45.39506290539538" lon="7.965499264269089"><ele>303.3333333333333</ele><time>2026-04-05T16:13:10.998Z</time></trkpt><trkpt lat="45.395148519335" lon="7.965504301714689"><ele>302.0</ele><time>2026-04-05T16:13:11.998Z</time></trkpt><trkpt lat="45.39521348058253" lon="7.965516647365393"><ele>300.66666666666663</ele><time>2026-04-05T16:13:12.998Z</time></trkpt><trkpt lat="45.39532443295808" lon="7.965598935890542"><ele>299.3333333333333</ele><time>2026-04-05T16:13:14.998Z</time></trkpt><trkpt lat="45.39538277957402" lon="7.965645393219306"><ele>298.0</ele><time>2026-04-05T16:13:15.998Z</time></trkpt><trkpt lat="45.39539487062303" lon="7.965770535002593"><ele>297.8</ele><time>2026-04-05T16:13:16.998Z</time></trkpt><trkpt lat="45.39541528927385" lon="7.965871593118439"><ele>297.6</ele><time>2026-04-05T16:13:17.998Z</time></trkpt><trkpt lat="45.39543158389495" lon="7.9659926174442015"><ele>297.4</ele><time>2026-04-05T16:13:18.998Z</time></trkpt><trkpt lat="45.395448340398055" lon="7.966124486862863"><ele>297.2</ele><time>2026-04-05T16:13:19.998Z</time></trkpt><trkpt lat="45.395460108056255" lon="7.966262589505631"><ele>297.0</ele><time>2026-04-05T16:13:20.998Z</time></trkpt><trkpt lat="45.39546785154559" lon="7.966408014987062"><ele>297.0</ele><time>2026-04-05T16:13:21.998Z</time></trkpt><trkpt lat="45.39545633705245" lon="7.966539762943757"><ele>297.0</ele><time>2026-04-05T16:13:22.998Z</time></trkpt><trkpt lat="45.395418105733235" lon="7.966664219048197"><ele>297.0</ele><time>2026-04-05T16:13:23.998Z</time></trkpt><trkpt lat="45.39535442043757" lon="7.966788434241834"><ele>297.0</ele><time>2026-04-05T16:13:24.998Z</time></trkpt><trkpt lat="45.39527643263022" lon="7.966909174807498"><ele>297.0</ele><time>2026-04-05T16:13:25.998Z</time></trkpt><trkpt lat="45.39518713554602" lon="7.967004807083619"><ele>297.4</ele><time>2026-04-05T16:13:26.998Z</time></trkpt><trkpt lat="45.39508609791781" lon="7.967065473471426"><ele>297.79999999999995</ele><time>2026-04-05T16:13:27.998Z</time></trkpt><trkpt lat="45.39499592433938" lon="7.967131764568028"><ele>298.2</ele><time>2026-04-05T16:13:28.998Z</time></trkpt><trkpt lat="45.39491833992675" lon="7.967208150444716"><ele>298.59999999999997</ele><time>2026-04-05T16:13:29.998Z</time></trkpt><trkpt lat="45.394878767215374" lon="7.967318870690971"><ele>299.0</ele><time>2026-04-05T16:13:30.998Z</time></trkpt><trkpt lat="45.39487838039615" lon="7.967456128981135"><ele>299.25</ele><time>2026-04-05T16:13:31.998Z</time></trkpt><trkpt lat="45.39488030079158" lon="7.96760067447187"><ele>299.5</ele><time>2026-04-05T16:13:32.998Z</time></trkpt><trkpt lat="45.39485936365366" lon="7.967754437534154"><ele>299.75</ele><time>2026-04-05T16:13:33.998Z</time></trkpt><trkpt lat="45.394827756771086" lon="7.96791066376577"><ele>300.0</ele><time>2026-04-05T16:13:34.998Z</time></trkpt><trkpt lat="45.394775303160394" lon="7.968070806423645"><ele>300.0</ele><time>2026-04-05T16:13:35.998Z</time></trkpt><trkpt lat="45.39471229432858" lon="7.968246348407821"><ele>300.0</ele><time>2026-04-05T16:13:36.998Z</time></trkpt><trkpt lat="45.39465610006489" lon="7.968424882051702"><ele>300.0</ele><time>2026-04-05T16:13:37.998Z</time></trkpt><trkpt lat="45.39459972179502" lon="7.968607135195092"><ele>300.0</ele><time>2026-04-05T16:13:38.998Z</time></trkpt><trkpt lat="45.39455216589166" lon="7.968784601868703"><ele>301.2</ele><time>2026-04-05T16:13:39.998Z</time></trkpt><trkpt lat="45.39451367121781" lon="7.9689524555205"><ele>302.4</ele><time>2026-04-05T16:13:40.998Z</time></trkpt><trkpt lat="45.394461278364744" lon="7.969085486485859"><ele>303.6</ele><time>2026-04-05T16:13:41.998Z</time></trkpt><trkpt lat="45.39440888915139" lon="7.969205324914666"><ele>304.8</ele><time>2026-04-05T16:13:42.998Z</time></trkpt><trkpt lat="45.39433723064347" lon="7.969297733946778"><ele>306.0</ele><time>2026-04-05T16:13:43.998Z</time></trkpt><trkpt lat="45.39424181737535" lon="7.969395914942411"><ele>306.0</ele><time>2026-04-05T16:13:44.998Z</time></trkpt><trkpt lat="45.39413628862895" lon="7.9694924369049245"><ele>306.0</ele><time>2026-04-05T16:13:45.998Z</time></trkpt><trkpt lat="45.394023650524666" lon="7.969587889350232"><ele>306.0</ele><time>2026-04-05T16:13:46.998Z</time></trkpt><trkpt lat="45.39389951188028" lon="7.9696888355865525"><ele>306.0</ele><time>2026-04-05T16:13:47.998Z</time></trkpt><trkpt lat="45.39377622775559" lon="7.969789086976266"><ele>312.5</ele><time>2026-04-05T16:13:48.998Z</time></trkpt><trkpt lat="45.393658924009934" lon="7.96991814123538"><ele>319.0</ele><time>2026-04-05T16:13:49.998Z</time></trkpt><trkpt lat="45.39353764199766" lon="7.970031582659626"><ele>325.5</ele><time>2026-04-05T16:13:50.998Z</time></trkpt><trkpt lat="45.393427534725916" lon="7.970153284045666"><ele>332.0</ele><time>2026-04-05T16:13:51.998Z</time></trkpt><trkpt lat="45.39333446710774" lon="7.970267832167557"><ele>332.33333333333337</ele><time>2026-04-05T16:13:52.998Z</time></trkpt><trkpt lat="45.39326026183362" lon="7.970369092908204"><ele>332.6666666666667</ele><time>2026-04-05T16:13:53.998Z</time></trkpt><trkpt lat="45.3932041834706" lon="7.970458885292789"><ele>333.0</ele><time>2026-04-05T16:13:54.998Z</time></trkpt><trkpt lat="45.39315528311635" lon="7.97059578053857"><ele>333.3333333333333</ele><time>2026-04-05T16:13:56.998Z</time></trkpt><trkpt lat="45.39317105027858" lon="7.97070226937065"><ele>333.66666666666663</ele><time>2026-04-05T16:13:57.998Z</time></trkpt><trkpt lat="45.393220119604436" lon="7.970787324211852"><ele>334.0</ele><time>2026-04-05T16:13:58.998Z</time></trkpt><trkpt lat="45.3933459727948" lon="7.970807094156643"><ele>334.0</ele><time>2026-04-05T16:13:59.998Z</time></trkpt><trkpt lat="45.39343113098126" lon="7.970825609613236"><ele>334.0</ele><time>2026-04-05T16:14:00.998Z</time></trkpt><trkpt lat="45.39353588638805" lon="7.970825699766672"><ele>334.0</ele><time>2026-04-05T16:14:01.998Z</time></trkpt><trkpt lat="45.39364935795728" lon="7.970874136585603"><ele>334.0</ele><time>2026-04-05T16:14:02.998Z</time></trkpt><trkpt lat="45.39376375137469" lon="7.9709048187780045"><ele>334.0</ele><time>2026-04-05T16:14:03.998Z</time></trkpt><trkpt lat="45.3938661970404" lon="7.9709481934809325"><ele>331.5</ele><time>2026-04-05T16:14:04.998Z</time></trkpt><trkpt lat="45.393948944254895" lon="7.9710081573000116"><ele>329.0</ele><time>2026-04-05T16:14:05.998Z</time></trkpt><trkpt lat="45.39400694564223" lon="7.97110000228413"><ele>326.5</ele><time>2026-04-05T16:14:06.998Z</time></trkpt><trkpt lat="45.394031487274276" lon="7.971200139817901"><ele>324.0</ele><time>2026-04-05T16:14:07.998Z</time></trkpt><trkpt lat="45.3940203191888" lon="7.9713133233405715"><ele>321.5</ele><time>2026-04-05T16:14:08.998Z</time></trkpt><trkpt lat="45.394001323108185" lon="7.97143812424902"><ele>319.0</ele><time>2026-04-05T16:14:09.998Z</time></trkpt><trkpt lat="45.393970321064884" lon="7.971579589087905"><ele>317.25</ele><time>2026-04-05T16:14:10.998Z</time></trkpt><trkpt lat="45.39393405471703" lon="7.971725301338182"><ele>315.5</ele><time>2026-04-05T16:14:11.998Z</time></trkpt><trkpt lat="45.39388482228485" lon="7.971870164576304"><ele>313.75</ele><time>2026-04-05T16:14:12.998Z</time></trkpt><trkpt lat="45.39381444268451" lon="7.9720234707566195"><ele>312.0</ele><time>2026-04-05T16:14:13.998Z</time></trkpt><trkpt lat="45.393730803569966" lon="7.9721795298341664"><ele>317.0</ele><time>2026-04-05T16:14:14.998Z</time></trkpt><trkpt lat="45.393632144954886" lon="7.9723344875305955"><ele>322.0</ele><time>2026-04-05T16:14:15.998Z</time></trkpt><trkpt lat="45.39352837875527" lon="7.9724904196281425"><ele>327.0</ele><time>2026-04-05T16:14:16.998Z</time></trkpt><trkpt lat="45.39342281164278" lon="7.972658031553273"><ele>327.0</ele><time>2026-04-05T16:14:17.998Z</time></trkpt><trkpt lat="45.39331605988713" lon="7.972829022934032"><ele>327.0</ele><time>2026-04-05T16:14:18.998Z</time></trkpt><trkpt lat="45.39319127391399" lon="7.972989828565136"><ele>327.0</ele><time>2026-04-05T16:14:19.997Z</time></trkpt><trkpt lat="45.39307615931509" lon="7.973165793526989"><ele>332.3333333333333</ele><time>2026-04-05T16:14:20.997Z</time></trkpt><trkpt lat="45.39297303073778" lon="7.9733634983342325"><ele>337.66666666666663</ele><time>2026-04-05T16:14:21.997Z</time></trkpt><trkpt lat="45.39287840984515" lon="7.973580353803053"><ele>343.0</ele><time>2026-04-05T16:14:22.997Z</time></trkpt><trkpt lat="45.39280246985582" lon="7.973786158107192"><ele>343.0</ele><time>2026-04-05T16:14:23.997Z</time></trkpt><trkpt lat="45.39271622274548" lon="7.97396042037382"><ele>343.0</ele><time>2026-04-05T16:14:24.997Z</time></trkpt><trkpt lat="45.392632013014264" lon="7.974137772693709"><ele>343.0</ele><time>2026-04-05T16:14:25.997Z</time></trkpt><trkpt lat="45.392544458238746" lon="7.974319060733205"><ele>339.3333333333333</ele><time>2026-04-05T16:14:26.997Z</time></trkpt><trkpt lat="45.39245795870078" lon="7.974511169025699"><ele>335.6666666666667</ele><time>2026-04-05T16:14:27.997Z</time></trkpt><trkpt lat="45.39237614479176" lon="7.974700107679074"><ele>332.0</ele><time>2026-04-05T16:14:28.997Z</time></trkpt><trkpt lat="45.392287038838646" lon="7.9748907607226265"><ele>327.6666666666667</ele><time>2026-04-05T16:14:29.997Z</time></trkpt><trkpt lat="45.39219205936625" lon="7.9750876888940185"><ele>323.3333333333333</ele><time>2026-04-05T16:14:30.997Z</time></trkpt><trkpt lat="45.392098088502365" lon="7.975280581406778"><ele>319.0</ele><time>2026-04-05T16:14:31.997Z</time></trkpt><trkpt lat="45.39200414317638" lon="7.975473421528192"><ele>325.66666666666663</ele><time>2026-04-05T16:14:32.997Z</time></trkpt><trkpt lat="45.39191105862896" lon="7.975664494725721"><ele>332.3333333333333</ele><time>2026-04-05T16:14:33.997Z</time></trkpt><trkpt lat="45.391816528734125" lon="7.975858534767446"><ele>339.0</ele><time>2026-04-05T16:14:34.997Z</time></trkpt><trkpt lat="45.39172501659548" lon="7.9760463803273565"><ele>339.0</ele><time>2026-04-05T16:14:35.997Z</time></trkpt><trkpt lat="45.3916310772009" lon="7.976234282904628"><ele>339.0</ele><time>2026-04-05T16:14:36.997Z</time></trkpt><trkpt lat="45.391536521701404" lon="7.976423022085346"><ele>339.0</ele><time>2026-04-05T16:14:37.997Z</time></trkpt><trkpt lat="45.391441234130376" lon="7.976613222544352"><ele>340.6666666666667</ele><time>2026-04-05T16:14:38.997Z</time></trkpt><trkpt lat="45.39134999014524" lon="7.976793457892001"><ele>342.33333333333337</ele><time>2026-04-05T16:14:39.997Z</time></trkpt><trkpt lat="45.39125615482379" lon="7.976976738896697"><ele>344.0</ele><time>2026-04-05T16:14:40.997Z</time></trkpt><trkpt lat="45.39117032576045" lon="7.977151306488954"><ele>344.0</ele><time>2026-04-05T16:14:41.997Z</time></trkpt><trkpt lat="45.39109573630806" lon="7.977308815397762"><ele>344.0</ele><time>2026-04-05T16:14:42.997Z</time></trkpt><trkpt lat="45.39102382310232" lon="7.977448228562693"><ele>344.0</ele><time>2026-04-05T16:14:43.997Z</time></trkpt><trkpt lat="45.390947943682825" lon="7.977554711702969"><ele>344.0</ele><time>2026-04-05T16:14:44.997Z</time></trkpt><trkpt lat="45.39084496231108" lon="7.977648516950874"><ele>344.33333333333337</ele><time>2026-04-05T16:14:45.997Z</time></trkpt><trkpt lat="45.39071562871587" lon="7.97774121189695"><ele>344.6666666666667</ele><time>2026-04-05T16:14:46.997Z</time></trkpt><trkpt lat="45.39056591136148" lon="7.977790833448646"><ele>345.0</ele><time>2026-04-05T16:14:47.997Z</time></trkpt><trkpt lat="45.39041341960131" lon="7.9778891014364355"><ele>345.0</ele><time>2026-04-05T16:14:48.997Z</time></trkpt><trkpt lat="45.39024556313349" lon="7.977973052324237"><ele>345.0</ele><time>2026-04-05T16:14:49.997Z</time></trkpt><trkpt lat="45.39009114798038" lon="7.978105298614954"><ele>345.0</ele><time>2026-04-05T16:14:50.997Z</time></trkpt><trkpt lat="45.389951931060956" lon="7.978247534154791"><ele>346.3333333333333</ele><time>2026-04-05T16:14:51.997Z</time></trkpt><trkpt lat="45.38981479681056" lon="7.978385302483258"><ele>347.66666666666663</ele><time>2026-04-05T16:14:52.997Z</time></trkpt><trkpt lat="45.38967974888122" lon="7.97853026814426"><ele>349.0</ele><time>2026-04-05T16:14:53.997Z</time></trkpt><trkpt lat="45.389546762132085" lon="7.978696943940448"><ele>349.0</ele><time>2026-04-05T16:14:54.997Z</time></trkpt><trkpt lat="45.38942226592167" lon="7.978884333172002"><ele>349.0</ele><time>2026-04-05T16:14:55.997Z</time></trkpt><trkpt lat="45.38929849710012" lon="7.979074764930572"><ele>349.0</ele><time>2026-04-05T16:14:56.997Z</time></trkpt><trkpt lat="45.38916545887213" lon="7.979267391797489"><ele>350.0</ele><time>2026-04-05T16:14:57.997Z</time></trkpt><trkpt lat="45.38903934336256" lon="7.979457663924583"><ele>351.0</ele><time>2026-04-05T16:14:58.997Z</time></trkpt><trkpt lat="45.388893110397106" lon="7.979631703775397"><ele>352.0</ele><time>2026-04-05T16:14:59.997Z</time></trkpt><trkpt lat="45.38873901868644" lon="7.979799919056721"><ele>352.0</ele><time>2026-04-05T16:15:00.997Z</time></trkpt><trkpt lat="45.388598226863806" lon="7.979969590295521"><ele>352.0</ele><time>2026-04-05T16:15:01.997Z</time></trkpt><trkpt lat="45.388453002244674" lon="7.980116412007395"><ele>352.0</ele><time>2026-04-05T16:15:02.997Z</time></trkpt><trkpt lat="45.38832986792325" lon="7.980298360874955"><ele>352.66666666666663</ele><time>2026-04-05T16:15:03.997Z</time></trkpt><trkpt lat="45.38821079464254" lon="7.9804953671667915"><ele>353.3333333333333</ele><time>2026-04-05T16:15:04.997Z</time></trkpt><trkpt lat="45.388093306924915" lon="7.980699455738314"><ele>354.0</ele><time>2026-04-05T16:15:05.997Z</time></trkpt><trkpt lat="45.38797922330095" lon="7.980911556193855"><ele>354.0</ele><time>2026-04-05T16:15:06.997Z</time></trkpt><trkpt lat="45.387866835020205" lon="7.981129589458882"><ele>354.0</ele><time>2026-04-05T16:15:07.997Z</time></trkpt><trkpt lat="45.387750108554656" lon="7.981347020186519"><ele>354.0</ele><time>2026-04-05T16:15:08.997Z</time></trkpt><trkpt lat="45.38763307666375" lon="7.981564387849136"><ele>350.0</ele><time>2026-04-05T16:15:09.997Z</time></trkpt><trkpt lat="45.38750917023909" lon="7.981780701435108"><ele>346.0</ele><time>2026-04-05T16:15:10.997Z</time></trkpt><trkpt lat="45.38738034207096" lon="7.982002715938836"><ele>342.0</ele><time>2026-04-05T16:15:11.997Z</time></trkpt><trkpt lat="45.387254201662216" lon="7.982225707157749"><ele>346.3333333333333</ele><time>2026-04-05T16:15:12.997Z</time></trkpt><trkpt lat="45.3871276995006" lon="7.982452409696631"><ele>350.66666666666663</ele><time>2026-04-05T16:15:13.997Z</time></trkpt><trkpt lat="45.38700592448316" lon="7.982673287304197"><ele>355.0</ele><time>2026-04-05T16:15:14.997Z</time></trkpt><trkpt lat="45.386890797197424" lon="7.982882107187614"><ele>355.0</ele><time>2026-04-05T16:15:15.997Z</time></trkpt><trkpt lat="45.386782734301136" lon="7.983077120860249"><ele>355.0</ele><time>2026-04-05T16:15:16.997Z</time></trkpt><trkpt lat="45.38668147204509" lon="7.983258060115108"><ele>355.0</ele><time>2026-04-05T16:15:17.997Z</time></trkpt><trkpt lat="45.3865879872501" lon="7.983425102406665"><ele>354.0</ele><time>2026-04-05T16:15:18.997Z</time></trkpt><trkpt lat="45.38649947637671" lon="7.983585303271126"><ele>353.0</ele><time>2026-04-05T16:15:19.997Z</time></trkpt><trkpt lat="45.38642171683284" lon="7.983747327984963"><ele>352.0</ele><time>2026-04-05T16:15:20.997Z</time></trkpt><trkpt lat="45.38636379095746" lon="7.983919562962017"><ele>351.0</ele><time>2026-04-05T16:15:21.997Z</time></trkpt><trkpt lat="45.38632744279322" lon="7.984110101076932"><ele>353.0</ele><time>2026-04-05T16:15:22.997Z</time></trkpt><trkpt lat="45.386324938669475" lon="7.984315310247148"><ele>355.0</ele><time>2026-04-05T16:15:23.997Z</time></trkpt><trkpt lat="45.38632630367354" lon="7.9845245984593705"><ele>357.0</ele><time>2026-04-05T16:15:24.997Z</time></trkpt><trkpt lat="45.386327717434064" lon="7.984741362423433"><ele>359.0</ele><time>2026-04-05T16:15:25.997Z</time></trkpt><trkpt lat="45.38631951026349" lon="7.984961910904995"><ele>357.0</ele><time>2026-04-05T16:15:26.997Z</time></trkpt><trkpt lat="45.386298803395846" lon="7.985197973070319"><ele>355.0</ele><time>2026-04-05T16:15:27.997Z</time></trkpt><trkpt lat="45.38627714512049" lon="7.985426815245077"><ele>353.0</ele><time>2026-04-05T16:15:28.997Z</time></trkpt><trkpt lat="45.386255828573425" lon="7.985644576887147"><ele>353.0</ele><time>2026-04-05T16:15:29.997Z</time></trkpt><trkpt lat="45.38623604060893" lon="7.985842272261609"><ele>353.0</ele><time>2026-04-05T16:15:30.997Z</time></trkpt><trkpt lat="45.3862186161228" lon="7.986016354864896"><ele>353.0</ele><time>2026-04-05T16:15:31.997Z</time></trkpt><trkpt lat="45.38620404771577" lon="7.9861505061559726"><ele>353.0</ele><time>2026-04-05T16:15:32.997Z</time></trkpt><trkpt lat="45.386192422352856" lon="7.9862557904169105"><ele>353.0</ele><time>2026-04-05T16:15:33.997Z</time></trkpt><trkpt lat="45.38618733202914" lon="7.986362360186395"><ele>352.2</ele><time>2026-04-05T16:15:34.997Z</time></trkpt><trkpt lat="45.38617374979785" lon="7.986473952371085"><ele>351.4</ele><time>2026-04-05T16:15:35.997Z</time></trkpt><trkpt lat="45.386190283013136" lon="7.986619599651201"><ele>350.59999999999997</ele><time>2026-04-05T16:15:36.997Z</time></trkpt><trkpt lat="45.386229573742796" lon="7.986775672975477"><ele>349.79999999999995</ele><time>2026-04-05T16:15:37.997Z</time></trkpt><trkpt lat="45.38628972728321" lon="7.986933548729248"><ele>349.0</ele><time>2026-04-05T16:15:38.997Z</time></trkpt><trkpt lat="45.38632343417279" lon="7.987117550620066"><ele>347.25</ele><time>2026-04-05T16:15:39.997Z</time></trkpt><trkpt lat="45.38637418802827" lon="7.987304736061504"><ele>345.5</ele><time>2026-04-05T16:15:40.997Z</time></trkpt><trkpt lat="45.386426424245506" lon="7.987497388594088"><ele>343.75</ele><time>2026-04-05T16:15:41.997Z</time></trkpt><trkpt lat="45.38648244983894" lon="7.987695846600756"><ele>342.0</ele><time>2026-04-05T16:15:42.997Z</time></trkpt><trkpt lat="45.3865507838443" lon="7.9878828231431305"><ele>342.0</ele><time>2026-04-05T16:15:43.997Z</time></trkpt><trkpt lat="45.386607133579055" lon="7.98808426674712"><ele>342.0</ele><time>2026-04-05T16:15:44.997Z</time></trkpt><trkpt lat="45.386664355239446" lon="7.988297598078216"><ele>342.0</ele><time>2026-04-05T16:15:45.997Z</time></trkpt><trkpt lat="45.38671894388704" lon="7.988513644859135"><ele>342.3333333333333</ele><time>2026-04-05T16:15:46.997Z</time></trkpt><trkpt lat="45.38677727270528" lon="7.988732160133311"><ele>342.66666666666663</ele><time>2026-04-05T16:15:47.997Z</time></trkpt><trkpt lat="45.386842751856754" lon="7.988954110534054"><ele>343.0</ele><time>2026-04-05T16:15:48.997Z</time></trkpt><trkpt lat="45.38690308947087" lon="7.98916890441661"><ele>343.75</ele><time>2026-04-05T16:15:49.997Z</time></trkpt><trkpt lat="45.3869441704378" lon="7.989380054301242"><ele>344.5</ele><time>2026-04-05T16:15:50.997Z</time></trkpt><trkpt lat="45.386993855309015" lon="7.989563654261592"><ele>345.25</ele><time>2026-04-05T16:15:51.997Z</time></trkpt><trkpt lat="45.38703984671163" lon="7.989733605805077"><ele>346.0</ele><time>2026-04-05T16:15:52.997Z</time></trkpt><trkpt lat="45.38708401865028" lon="7.989899328017516"><ele>346.75</ele><time>2026-04-05T16:15:53.997Z</time></trkpt><trkpt lat="45.38712556742527" lon="7.990058527610129"><ele>347.5</ele><time>2026-04-05T16:15:54.997Z</time></trkpt><trkpt lat="45.38716750132102" lon="7.990218521792672"><ele>348.25</ele><time>2026-04-05T16:15:55.997Z</time></trkpt><trkpt lat="45.387208051735776" lon="7.990366557408304"><ele>349.0</ele><time>2026-04-05T16:15:56.997Z</time></trkpt><trkpt lat="45.387246600692386" lon="7.990499231044217"><ele>349.0</ele><time>2026-04-05T16:15:57.997Z</time></trkpt><trkpt lat="45.3872854163537" lon="7.990613596692975"><ele>349.0</ele><time>2026-04-05T16:15:58.997Z</time></trkpt><trkpt lat="45.38732251572973" lon="7.990710795527568"><ele>349.0</ele><time>2026-04-05T16:15:59.997Z</time></trkpt><trkpt lat="45.38736069255428" lon="7.990801223825238"><ele>349.0</ele><time>2026-04-05T16:16:00.997Z</time></trkpt><trkpt lat="45.38740550965872" lon="7.990887732493031"><ele>349.0</ele><time>2026-04-05T16:16:01.997Z</time></trkpt><trkpt lat="45.38746709536026" lon="7.990953670118524"><ele>349.0</ele><time>2026-04-05T16:16:02.997Z</time></trkpt><trkpt lat="45.3874772118399" lon="7.991073016724528"><ele>349.0</ele><time>2026-04-05T16:16:03.997Z</time></trkpt><trkpt lat="45.38750654509842" lon="7.991188412956691"><ele>349.0</ele><time>2026-04-05T16:16:04.997Z</time></trkpt><trkpt lat="45.38753507067341" lon="7.991312666848663"><ele>349.0</ele><time>2026-04-05T16:16:05.997Z</time></trkpt><trkpt lat="45.38756265929531" lon="7.991445716347894"><ele>349.0</ele><time>2026-04-05T16:16:06.997Z</time></trkpt><trkpt lat="45.3875834202157" lon="7.991583244521162"><ele>349.0</ele><time>2026-04-05T16:16:07.996Z</time></trkpt><trkpt lat="45.387604687677836" lon="7.991729376375659"><ele>349.2</ele><time>2026-04-05T16:16:08.996Z</time></trkpt><trkpt lat="45.38765105346195" lon="7.991864837935432"><ele>349.4</ele><time>2026-04-05T16:16:09.996Z</time></trkpt><trkpt lat="45.38768186598494" lon="7.992005672658163"><ele>349.6</ele><time>2026-04-05T16:16:10.996Z</time></trkpt><trkpt lat="45.38771221975555" lon="7.992145188755564"><ele>349.8</ele><time>2026-04-05T16:16:11.996Z</time></trkpt><trkpt lat="45.387739945869015" lon="7.992282235973508"><ele>350.0</ele><time>2026-04-05T16:16:12.996Z</time></trkpt><trkpt lat="45.38776439589489" lon="7.992413045352797"><ele>350.2</ele><time>2026-04-05T16:16:13.996Z</time></trkpt><trkpt lat="45.38778747099796" lon="7.992541592651573"><ele>350.4</ele><time>2026-04-05T16:16:14.996Z</time></trkpt><trkpt lat="45.38780662330373" lon="7.992669061207089"><ele>350.6</ele><time>2026-04-05T16:16:15.996Z</time></trkpt><trkpt lat="45.38782713586808" lon="7.992786289954299"><ele>350.8</ele><time>2026-04-05T16:16:16.996Z</time></trkpt><trkpt lat="45.387844703959466" lon="7.992887705017031"><ele>351.0</ele><time>2026-04-05T16:16:17.996Z</time></trkpt><trkpt lat="45.38790801993701" lon="7.99303760771264"><ele>351.0</ele><time>2026-04-05T16:16:19.996Z</time></trkpt><trkpt lat="45.387981050222805" lon="7.993182545839469"><ele>351.0</ele><time>2026-04-05T16:16:21.996Z</time></trkpt><trkpt lat="45.38803290427172" lon="7.99325069277191"><ele>351.0</ele><time>2026-04-05T16:16:22.996Z</time></trkpt><trkpt lat="45.38809522446799" lon="7.993304199689084"><ele>351.0</ele><time>2026-04-05T16:16:23.996Z</time></trkpt><trkpt lat="45.38813233281203" lon="7.9933897208702565"><ele>351.0</ele><time>2026-04-05T16:16:24.996Z</time></trkpt><trkpt lat="45.38818195273582" lon="7.993465240875435"><ele>351.0</ele><time>2026-04-05T16:16:25.996Z</time></trkpt><trkpt lat="45.388261119694235" lon="7.993588713048759"><ele>351.0</ele><time>2026-04-05T16:16:27.996Z</time></trkpt><trkpt lat="45.38823264027392" lon="7.993724799675036"><ele>351.0</ele><time>2026-04-05T16:16:29.996Z</time></trkpt><trkpt lat="45.38822112132554" lon="7.993834259881058"><ele>351.0</ele><time>2026-04-05T16:16:31.996Z</time></trkpt><trkpt lat="45.38825368273395" lon="7.993930230124398"><ele>351.0</ele><time>2026-04-05T16:16:33.996Z</time></trkpt><trkpt lat="45.3883191142498" lon="7.994004464270568"><ele>351.0</ele><time>2026-04-05T16:16:34.996Z</time></trkpt><trkpt lat="45.38837058581781" lon="7.99407701693793"><ele>351.0</ele><time>2026-04-05T16:16:35.996Z</time></trkpt><trkpt lat="45.38842990771888" lon="7.99415447028968"><ele>351.0</ele><time>2026-04-05T16:16:36.996Z</time></trkpt><trkpt lat="45.388474119849505" lon="7.994268725417747"><ele>351.0</ele><time>2026-04-05T16:16:37.996Z</time></trkpt><trkpt lat="45.388450635841245" lon="7.994413964275434"><ele>351.0</ele><time>2026-04-05T16:16:38.996Z</time></trkpt><trkpt lat="45.38844824989723" lon="7.994527493057871"><ele>351.0</ele><time>2026-04-05T16:16:39.996Z</time></trkpt><trkpt lat="45.38843550792286" lon="7.994638569552335"><ele>351.0</ele><time>2026-04-05T16:16:40.996Z</time></trkpt><trkpt lat="45.38840224785884" lon="7.994749361805496"><ele>351.0</ele><time>2026-04-05T16:16:41.996Z</time></trkpt><trkpt lat="45.388362356124745" lon="7.994859458176604"><ele>351.0</ele><time>2026-04-05T16:16:42.996Z</time></trkpt><trkpt lat="45.388313640581366" lon="7.994957160736693"><ele>351.0</ele><time>2026-04-05T16:16:43.996Z</time></trkpt><trkpt lat="45.3882628765281" lon="7.995053739644795"><ele>351.0</ele><time>2026-04-05T16:16:44.996Z</time></trkpt><trkpt lat="45.388197880086274" lon="7.995133748528169"><ele>351.0</ele><time>2026-04-05T16:16:45.996Z</time></trkpt><trkpt lat="45.38813176896194" lon="7.995217189162381"><ele>351.0</ele><time>2026-04-05T16:16:46.996Z</time></trkpt><trkpt lat="45.388049787206356" lon="7.995295430369328"><ele>351.0</ele><time>2026-04-05T16:16:47.996Z</time></trkpt><trkpt lat="45.38796558062144" lon="7.995380406852237"><ele>351.0</ele><time>2026-04-05T16:16:48.996Z</time></trkpt><trkpt lat="45.387883842368474" lon="7.995458689535493"><ele>351.0</ele><time>2026-04-05T16:16:49.996Z</time></trkpt><trkpt lat="45.387803600099566" lon="7.99553451650999"><ele>351.0</ele><time>2026-04-05T16:16:50.996Z</time></trkpt><trkpt lat="45.38772197713715" lon="7.995616383711483"><ele>351.0</ele><time>2026-04-05T16:16:51.996Z</time></trkpt><trkpt lat="45.38764112188273" lon="7.995699547237491"><ele>351.0</ele><time>2026-04-05T16:16:52.996Z</time></trkpt><trkpt lat="45.38756893392356" lon="7.99579111826165"><ele>350.5</ele><time>2026-04-05T16:16:53.996Z</time></trkpt><trkpt lat="45.387498528059" lon="7.9959053004326295"><ele>350.0</ele><time>2026-04-05T16:16:54.996Z</time></trkpt><trkpt lat="45.38744094524387" lon="7.996042753986399"><ele>349.5</ele><time>2026-04-05T16:16:55.996Z</time></trkpt><trkpt lat="45.3873945008606" lon="7.996190726353301"><ele>349.0</ele><time>2026-04-05T16:16:56.996Z</time></trkpt><trkpt lat="45.387360064363484" lon="7.996356489276491"><ele>349.0</ele><time>2026-04-05T16:16:57.996Z</time></trkpt><trkpt lat="45.38733264609028" lon="7.996537183443786"><ele>349.0</ele><time>2026-04-05T16:16:58.996Z</time></trkpt><trkpt lat="45.38730775649941" lon="7.996740685748138"><ele>349.0</ele><time>2026-04-05T16:16:59.996Z</time></trkpt><trkpt lat="45.387261305278074" lon="7.996948258125482"><ele>349.0</ele><time>2026-04-05T16:17:00.996Z</time></trkpt><trkpt lat="45.38723088760544" lon="7.99717851257946"><ele>347.66666666666663</ele><time>2026-04-05T16:17:01.996Z</time></trkpt><trkpt lat="45.387200246268904" lon="7.997405077956104"><ele>346.3333333333333</ele><time>2026-04-05T16:17:02.996Z</time></trkpt><trkpt lat="45.387170557311876" lon="7.997625581266666"><ele>345.0</ele><time>2026-04-05T16:17:03.996Z</time></trkpt><trkpt lat="45.38714018087048" lon="7.997840357354343"><ele>345.0</ele><time>2026-04-05T16:17:04.996Z</time></trkpt><trkpt lat="45.38710974299575" lon="7.99805000079757"><ele>345.0</ele><time>2026-04-05T16:17:05.996Z</time></trkpt><trkpt lat="45.387082504361025" lon="7.998258989355393"><ele>345.0</ele><time>2026-04-05T16:17:06.996Z</time></trkpt><trkpt lat="45.38705368255121" lon="7.9984701782748875"><ele>344.75</ele><time>2026-04-05T16:17:07.996Z</time></trkpt><trkpt lat="45.38702420725189" lon="7.998679444394903"><ele>344.5</ele><time>2026-04-05T16:17:08.996Z</time></trkpt><trkpt lat="45.38699068279125" lon="7.9988851993550725"><ele>344.25</ele><time>2026-04-05T16:17:09.996Z</time></trkpt><trkpt lat="45.386960272159904" lon="7.99909168384251"><ele>344.0</ele><time>2026-04-05T16:17:10.996Z</time></trkpt><trkpt lat="45.38693207208193" lon="7.99929801901537"><ele>344.0</ele><time>2026-04-05T16:17:11.996Z</time></trkpt><trkpt lat="45.38689872790993" lon="7.999502758848102"><ele>344.0</ele><time>2026-04-05T16:17:12.996Z</time></trkpt><trkpt lat="45.38686699708036" lon="7.999708948520209"><ele>344.0</ele><time>2026-04-05T16:17:13.996Z</time></trkpt><trkpt lat="45.38683710008623" lon="7.99991742227603"><ele>344.0</ele><time>2026-04-05T16:17:14.996Z</time></trkpt><trkpt lat="45.38680788046223" lon="8.000128662003137"><ele>344.0</ele><time>2026-04-05T16:17:15.996Z</time></trkpt><trkpt lat="45.3867787644791" lon="8.000339571082545"><ele>344.0</ele><time>2026-04-05T16:17:16.996Z</time></trkpt><trkpt lat="45.38674810878018" lon="8.00054975778924"><ele>344.0</ele><time>2026-04-05T16:17:17.996Z</time></trkpt><trkpt lat="45.386717902863445" lon="8.000760198971165"><ele>343.25</ele><time>2026-04-05T16:17:18.996Z</time></trkpt><trkpt lat="45.386687069453984" lon="8.000968548900456"><ele>342.5</ele><time>2026-04-05T16:17:19.996Z</time></trkpt><trkpt lat="45.386661802774" lon="8.001151462737793"><ele>341.75</ele><time>2026-04-05T16:17:20.996Z</time></trkpt><trkpt lat="45.38664183085211" lon="8.001286321192072"><ele>341.0</ele><time>2026-04-05T16:17:21.996Z</time></trkpt><trkpt lat="45.38663736180601" lon="8.001421941766058"><ele>341.0</ele><time>2026-04-05T16:17:23.996Z</time></trkpt><trkpt lat="45.38672677774697" lon="8.001464120153058"><ele>341.0</ele><time>2026-04-05T16:17:26.996Z</time></trkpt><trkpt lat="45.386821092443725" lon="8.001545733021974"><ele>341.0</ele><time>2026-04-05T16:17:28.996Z</time></trkpt><trkpt lat="45.386874519667465" lon="8.001634782386263"><ele>341.0</ele><time>2026-04-05T16:17:29.996Z</time></trkpt><trkpt lat="45.38693665528269" lon="8.001723307119462"><ele>341.0</ele><time>2026-04-05T16:17:30.996Z</time></trkpt><trkpt lat="45.386997058775364" lon="8.001807332349255"><ele>341.0</ele><time>2026-04-05T16:17:31.996Z</time></trkpt><trkpt lat="45.38706666231132" lon="8.001907825134884"><ele>341.0</ele><time>2026-04-05T16:17:32.996Z</time></trkpt><trkpt lat="45.38714100184636" lon="8.00202685038216"><ele>341.0</ele><time>2026-04-05T16:17:33.996Z</time></trkpt><trkpt lat="45.38721503558027" lon="8.002162878523887"><ele>341.0</ele><time>2026-04-05T16:17:34.996Z</time></trkpt><trkpt lat="45.38728436719642" lon="8.002300394519692"><ele>340.4</ele><time>2026-04-05T16:17:35.996Z</time></trkpt><trkpt lat="45.38734556647965" lon="8.00242604734815"><ele>339.8</ele><time>2026-04-05T16:17:36.996Z</time></trkpt><trkpt lat="45.38740337039185" lon="8.002542929456977"><ele>339.2</ele><time>2026-04-05T16:17:37.996Z</time></trkpt><trkpt lat="45.38746540815617" lon="8.00265327762086"><ele>338.59999999999997</ele><time>2026-04-05T16:17:38.996Z</time></trkpt><trkpt lat="45.387542792871685" lon="8.00274327802698"><ele>338.0</ele><time>2026-04-05T16:17:39.996Z</time></trkpt><trkpt lat="45.38764435536453" lon="8.002819105056394"><ele>338.0</ele><time>2026-04-05T16:17:40.996Z</time></trkpt><trkpt lat="45.387763197114836" lon="8.002879652308822"><ele>338.0</ele><time>2026-04-05T16:17:41.996Z</time></trkpt><trkpt lat="45.38788732184815" lon="8.002937645699646"><ele>338.0</ele><time>2026-04-05T16:17:42.996Z</time></trkpt><trkpt lat="45.38800474708609" lon="8.003008764020453"><ele>338.0</ele><time>2026-04-05T16:17:43.996Z</time></trkpt><trkpt lat="45.388104199704955" lon="8.003112416580187"><ele>337.25</ele><time>2026-04-05T16:17:44.996Z</time></trkpt><trkpt lat="45.388193560839476" lon="8.003233427772741"><ele>336.5</ele><time>2026-04-05T16:17:45.996Z</time></trkpt><trkpt lat="45.38827179106147" lon="8.00338228385452"><ele>335.75</ele><time>2026-04-05T16:17:46.996Z</time></trkpt><trkpt lat="45.3883456752339" lon="8.003542439599372"><ele>335.0</ele><time>2026-04-05T16:17:47.996Z</time></trkpt><trkpt lat="45.38841499385411" lon="8.003715610633982"><ele>334.6666666666667</ele><time>2026-04-05T16:17:48.996Z</time></trkpt><trkpt lat="45.388486817693064" lon="8.003892090370789"><ele>334.3333333333333</ele><time>2026-04-05T16:17:49.996Z</time></trkpt><trkpt lat="45.38856283423081" lon="8.004078252560848"><ele>334.0</ele><time>2026-04-05T16:17:50.996Z</time></trkpt><trkpt lat="45.38864093798465" lon="8.004273532564016"><ele>334.0</ele><time>2026-04-05T16:17:51.996Z</time></trkpt><trkpt lat="45.38872231802297" lon="8.004475516868421"><ele>334.0</ele><time>2026-04-05T16:17:52.996Z</time></trkpt><trkpt lat="45.38880485940163" lon="8.004680102103935"><ele>334.0</ele><time>2026-04-05T16:17:53.996Z</time></trkpt><trkpt lat="45.38888472462968" lon="8.004873666938309"><ele>334.66666666666663</ele><time>2026-04-05T16:17:54.996Z</time></trkpt><trkpt lat="45.38896366525925" lon="8.005068671016758"><ele>335.3333333333333</ele><time>2026-04-05T16:17:55.996Z</time></trkpt><trkpt lat="45.38904371350671" lon="8.00526470338168"><ele>336.0</ele><time>2026-04-05T16:17:56.996Z</time></trkpt><trkpt lat="45.38911976419516" lon="8.005454179513247"><ele>336.0</ele><time>2026-04-05T16:17:57.995Z</time></trkpt><trkpt lat="45.38919240945428" lon="8.005636822643854"><ele>336.0</ele><time>2026-04-05T16:17:58.995Z</time></trkpt><trkpt lat="45.389266803997714" lon="8.005814570051767"><ele>336.0</ele><time>2026-04-05T16:17:59.995Z</time></trkpt><trkpt lat="45.389339683478326" lon="8.005991185893688"><ele>336.0</ele><time>2026-04-05T16:18:00.995Z</time></trkpt><trkpt lat="45.389410474013026" lon="8.006161575872625"><ele>336.5</ele><time>2026-04-05T16:18:01.995Z</time></trkpt><trkpt lat="45.38947967944844" lon="8.006328201254735"><ele>337.0</ele><time>2026-04-05T16:18:02.995Z</time></trkpt><trkpt lat="45.389549423735154" lon="8.006497492242211"><ele>337.5</ele><time>2026-04-05T16:18:03.995Z</time></trkpt><trkpt lat="45.38961322769188" lon="8.006662477695887"><ele>338.0</ele><time>2026-04-05T16:18:04.995Z</time></trkpt><trkpt lat="45.38966963088902" lon="8.006814374353372"><ele>338.1666666666667</ele><time>2026-04-05T16:18:05.995Z</time></trkpt><trkpt lat="45.389716525695405" lon="8.006945773612747"><ele>338.33333333333337</ele><time>2026-04-05T16:18:06.995Z</time></trkpt><trkpt lat="45.38975516144197" lon="8.007062824642206"><ele>338.5</ele><time>2026-04-05T16:18:07.995Z</time></trkpt><trkpt lat="45.38978526267804" lon="8.007160532199173"><ele>338.6666666666667</ele><time>2026-04-05T16:18:08.995Z</time></trkpt><trkpt lat="45.389835152993925" lon="8.007276407553746"><ele>338.8333333333333</ele><time>2026-04-05T16:18:10.995Z</time></trkpt><trkpt lat="45.38991519754627" lon="8.007310488296115"><ele>339.0</ele><time>2026-04-05T16:18:12.995Z</time></trkpt><trkpt lat="45.389983079006484" lon="8.007313880114376"><ele>339.0</ele><time>2026-04-05T16:18:13.995Z</time></trkpt><trkpt lat="45.39006998147074" lon="8.007318728228944"><ele>339.0</ele><time>2026-04-05T16:18:14.995Z</time></trkpt><trkpt lat="45.3901674638792" lon="8.007309466873526"><ele>339.0</ele><time>2026-04-05T16:18:15.995Z</time></trkpt><trkpt lat="45.39025965035377" lon="8.007290240957936"><ele>339.0</ele><time>2026-04-05T16:18:16.995Z</time></trkpt><trkpt lat="45.390355144342145" lon="8.007281933457138"><ele>339.0</ele><time>2026-04-05T16:18:17.995Z</time></trkpt><trkpt lat="45.39044685470522" lon="8.00729631409024"><ele>339.1666666666667</ele><time>2026-04-05T16:18:18.995Z</time></trkpt><trkpt lat="45.39053218981524" lon="8.007325626216373"><ele>339.3333333333333</ele><time>2026-04-05T16:18:19.995Z</time></trkpt><trkpt lat="45.39061365613642" lon="8.007344339895635"><ele>339.5</ele><time>2026-04-05T16:18:20.995Z</time></trkpt><trkpt lat="45.39070110841401" lon="8.007342606284283"><ele>339.66666666666663</ele><time>2026-04-05T16:18:21.995Z</time></trkpt><trkpt lat="45.39079067546985" lon="8.00732568961286"><ele>339.8333333333333</ele><time>2026-04-05T16:18:22.995Z</time></trkpt><trkpt lat="45.390875570629724" lon="8.007316456927947"><ele>340.0</ele><time>2026-04-05T16:18:23.995Z</time></trkpt><trkpt lat="45.390974159036574" lon="8.007312501357667"><ele>340.0</ele><time>2026-04-05T16:18:24.995Z</time></trkpt><trkpt lat="45.39107158988953" lon="8.007318954285772"><ele>340.0</ele><time>2026-04-05T16:18:25.995Z</time></trkpt><trkpt lat="45.39117201740816" lon="8.007328009117538"><ele>340.0</ele><time>2026-04-05T16:18:26.995Z</time></trkpt><trkpt lat="45.39127204127871" lon="8.007341355388437"><ele>340.0</ele><time>2026-04-05T16:18:27.995Z</time></trkpt><trkpt lat="45.39135981705585" lon="8.007351143362563"><ele>340.0</ele><time>2026-04-05T16:18:28.995Z</time></trkpt><trkpt lat="45.39144364866618" lon="8.007356632883099"><ele>341.0</ele><time>2026-04-05T16:18:29.995Z</time></trkpt><trkpt lat="45.391513119393956" lon="8.007352788022585"><ele>342.0</ele><time>2026-04-05T16:18:30.995Z</time></trkpt><trkpt lat="45.39157786116139" lon="8.007340607909324"><ele>343.0</ele><time>2026-04-05T16:18:31.995Z</time></trkpt><trkpt lat="45.39164931848124" lon="8.007344154233651"><ele>344.0</ele><time>2026-04-05T16:18:32.995Z</time></trkpt><trkpt lat="45.391712283938745" lon="8.007353862915286"><ele>345.0</ele><time>2026-04-05T16:18:33.995Z</time></trkpt><trkpt lat="45.391801816157354" lon="8.007375376821113"><ele>346.0</ele><time>2026-04-05T16:18:35.995Z</time></trkpt><trkpt lat="45.391873521403355" lon="8.007399817782025"><ele>347.0</ele><time>2026-04-05T16:18:37.995Z</time></trkpt><trkpt lat="45.391977784988654" lon="8.007480621899553"><ele>346.8</ele><time>2026-04-05T16:18:39.995Z</time></trkpt><trkpt lat="45.39205187790704" lon="8.007524312418566"><ele>346.6</ele><time>2026-04-05T16:18:40.995Z</time></trkpt><trkpt lat="45.39213757401894" lon="8.00755005083336"><ele>346.40000000000003</ele><time>2026-04-05T16:18:41.995Z</time></trkpt><trkpt lat="45.39222375152007" lon="8.0075900534892"><ele>346.20000000000005</ele><time>2026-04-05T16:18:42.995Z</time></trkpt><trkpt lat="45.39232169204119" lon="8.00760527124267"><ele>346.0</ele><time>2026-04-05T16:18:43.995Z</time></trkpt><trkpt lat="45.39242240804235" lon="8.007592410171242"><ele>345.6</ele><time>2026-04-05T16:18:44.995Z</time></trkpt><trkpt lat="45.39252800031017" lon="8.007566471440253"><ele>345.20000000000005</ele><time>2026-04-05T16:18:45.995Z</time></trkpt><trkpt lat="45.392631835107174" lon="8.007546917266891"><ele>344.79999999999995</ele><time>2026-04-05T16:18:46.995Z</time></trkpt><trkpt lat="45.39272519507777" lon="8.00752136608394"><ele>344.4</ele><time>2026-04-05T16:18:47.995Z</time></trkpt><trkpt lat="45.39282071538427" lon="8.007525321372237"><ele>344.0</ele><time>2026-04-05T16:18:48.995Z</time></trkpt><trkpt lat="45.39288999720574" lon="8.007531013299648"><ele>343.5</ele><time>2026-04-05T16:18:49.995Z</time></trkpt><trkpt lat="45.39298354366593" lon="8.007488255445542"><ele>343.0</ele><time>2026-04-05T16:18:51.995Z</time></trkpt><trkpt lat="45.39303169354497" lon="8.007429161757301"><ele>342.5</ele><time>2026-04-05T16:18:52.995Z</time></trkpt><trkpt lat="45.39306569439569" lon="8.007346451230225"><ele>342.0</ele><time>2026-04-05T16:18:53.995Z</time></trkpt><trkpt lat="45.39309085143712" lon="8.007251970637153"><ele>341.5</ele><time>2026-04-05T16:18:54.995Z</time></trkpt><trkpt lat="45.39310561653119" lon="8.007148521577413"><ele>341.0</ele><time>2026-04-05T16:18:55.995Z</time></trkpt><trkpt lat="45.39314844589001" lon="8.006971085014824"><ele>338.4</ele><time>2026-04-05T16:18:57.995Z</time></trkpt><trkpt lat="45.39319341362547" lon="8.006875416936863"><ele>335.8</ele><time>2026-04-05T16:18:58.995Z</time></trkpt><trkpt lat="45.39324106573698" lon="8.006774038066032"><ele>333.2</ele><time>2026-04-05T16:18:59.995Z</time></trkpt><trkpt lat="45.39327762593165" lon="8.00663488520346"><ele>330.59999999999997</ele><time>2026-04-05T16:19:00.995Z</time></trkpt><trkpt lat="45.39334329773344" lon="8.006496949374755"><ele>328.0</ele><time>2026-04-05T16:19:01.995Z</time></trkpt><trkpt lat="45.393399107129284" lon="8.00634227061152"><ele>327.2</ele><time>2026-04-05T16:19:02.995Z</time></trkpt><trkpt lat="45.393452005661565" lon="8.006189471145495"><ele>326.4</ele><time>2026-04-05T16:19:03.995Z</time></trkpt><trkpt lat="45.39349776236603" lon="8.006043788609292"><ele>325.59999999999997</ele><time>2026-04-05T16:19:04.995Z</time></trkpt><trkpt lat="45.39354666032261" lon="8.005915607055108"><ele>324.79999999999995</ele><time>2026-04-05T16:19:05.995Z</time></trkpt><trkpt lat="45.393590475183025" lon="8.00580152435786"><ele>324.0</ele><time>2026-04-05T16:19:06.995Z</time></trkpt><trkpt lat="45.39363632655193" lon="8.005700530822677"><ele>322.8333333333333</ele><time>2026-04-05T16:19:07.995Z</time></trkpt><trkpt lat="45.393682374614635" lon="8.00560872825696"><ele>321.6666666666667</ele><time>2026-04-05T16:19:08.995Z</time></trkpt><trkpt lat="45.3937402469992" lon="8.005523800288612"><ele>320.5</ele><time>2026-04-05T16:19:09.995Z</time></trkpt><trkpt lat="45.39380574794407" lon="8.005439044123312"><ele>319.33333333333337</ele><time>2026-04-05T16:19:10.995Z</time></trkpt><trkpt lat="45.3938763934126" lon="8.005346867134174"><ele>318.1666666666667</ele><time>2026-04-05T16:19:11.995Z</time></trkpt><trkpt lat="45.39394537350991" lon="8.005249666904927"><ele>317.0</ele><time>2026-04-05T16:19:12.995Z</time></trkpt><trkpt lat="45.39401683666438" lon="8.00515270880397"><ele>316.75</ele><time>2026-04-05T16:19:13.995Z</time></trkpt><trkpt lat="45.394095296211056" lon="8.005058089770033"><ele>316.5</ele><time>2026-04-05T16:19:14.995Z</time></trkpt><trkpt lat="45.39418214064309" lon="8.004960686042633"><ele>316.25</ele><time>2026-04-05T16:19:15.995Z</time></trkpt><trkpt lat="45.394284853942" lon="8.00487584361695"><ele>316.0</ele><time>2026-04-05T16:19:16.995Z</time></trkpt><trkpt lat="45.3943745518235" lon="8.004766386465539"><ele>315.6</ele><time>2026-04-05T16:19:17.995Z</time></trkpt><trkpt lat="45.39446002812317" lon="8.004656625362419"><ele>315.20000000000005</ele><time>2026-04-05T16:19:18.995Z</time></trkpt><trkpt lat="45.39453881063031" lon="8.004544539098967"><ele>314.79999999999995</ele><time>2026-04-05T16:19:19.995Z</time></trkpt><trkpt lat="45.394613832186856" lon="8.004441432221988"><ele>314.4</ele><time>2026-04-05T16:19:20.995Z</time></trkpt><trkpt lat="45.39469611545229" lon="8.004346658365616"><ele>314.0</ele><time>2026-04-05T16:19:21.995Z</time></trkpt><trkpt lat="45.39478101586198" lon="8.004251142825813"><ele>313.0</ele><time>2026-04-05T16:19:22.995Z</time></trkpt><trkpt lat="45.39486573076285" lon="8.004162435749926"><ele>312.0</ele><time>2026-04-05T16:19:23.995Z</time></trkpt><trkpt lat="45.3949506506653" lon="8.004073076467163"><ele>311.0</ele><time>2026-04-05T16:19:24.995Z</time></trkpt><trkpt lat="45.39501963361973" lon="8.003971049244203"><ele>310.0</ele><time>2026-04-05T16:19:25.995Z</time></trkpt><trkpt lat="45.395086980430904" lon="8.003862355900836"><ele>309.0</ele><time>2026-04-05T16:19:26.995Z</time></trkpt><trkpt lat="45.395152112369786" lon="8.003781802012526"><ele>309.0</ele><time>2026-04-05T16:19:27.995Z</time></trkpt><trkpt lat="45.3952385603687" lon="8.003704626787908"><ele>309.0</ele><time>2026-04-05T16:19:28.995Z</time></trkpt><trkpt lat="45.39533222521709" lon="8.00364521831728"><ele>309.0</ele><time>2026-04-05T16:19:29.995Z</time></trkpt><trkpt lat="45.39541929813866" lon="8.003603336727915"><ele>309.0</ele><time>2026-04-05T16:19:30.995Z</time></trkpt><trkpt lat="45.39551378456678" lon="8.003589459829438"><ele>309.0</ele><time>2026-04-05T16:19:31.995Z</time></trkpt><trkpt lat="45.39561581696098" lon="8.003605968641551"><ele>307.2</ele><time>2026-04-05T16:19:32.995Z</time></trkpt><trkpt lat="45.395720719251" lon="8.003623113948272"><ele>305.4</ele><time>2026-04-05T16:19:33.995Z</time></trkpt><trkpt lat="45.3958306357645" lon="8.003636901081478"><ele>303.6</ele><time>2026-04-05T16:19:34.995Z</time></trkpt><trkpt lat="45.39594435024607" lon="8.003640009914518"><ele>301.8</ele><time>2026-04-05T16:19:35.995Z</time></trkpt><trkpt lat="45.3960471800853" lon="8.003632942079628"><ele>300.0</ele><time>2026-04-05T16:19:36.995Z</time></trkpt><trkpt lat="45.39613901363355" lon="8.003627418060987"><ele>300.0</ele><time>2026-04-05T16:19:37.995Z</time></trkpt><trkpt lat="45.39622840067719" lon="8.003650199866458"><ele>300.0</ele><time>2026-04-05T16:19:38.995Z</time></trkpt><trkpt lat="45.39631932375765" lon="8.003694543491704"><ele>300.0</ele><time>2026-04-05T16:19:39.995Z</time></trkpt><trkpt lat="45.396423439344666" lon="8.003738547972002"><ele>300.0</ele><time>2026-04-05T16:19:40.995Z</time></trkpt><trkpt lat="45.3965529592868" lon="8.00375829015816"><ele>300.0</ele><time>2026-04-05T16:19:41.995Z</time></trkpt><trkpt lat="45.39669075067863" lon="8.003778070540305"><ele>297.25</ele><time>2026-04-05T16:19:42.995Z</time></trkpt><trkpt lat="45.39683218947806" lon="8.003787425866513"><ele>294.5</ele><time>2026-04-05T16:19:43.995Z</time></trkpt><trkpt lat="45.39697632331319" lon="8.003778624198608"><ele>291.75</ele><time>2026-04-05T16:19:44.995Z</time></trkpt><trkpt lat="45.3971263929415" lon="8.003764861510344"><ele>289.0</ele><time>2026-04-05T16:19:45.995Z</time></trkpt><trkpt lat="45.39727501112517" lon="8.003762296380177"><ele>286.0</ele><time>2026-04-05T16:19:46.994Z</time></trkpt><trkpt lat="45.39741799376503" lon="8.003748222907461"><ele>283.0</ele><time>2026-04-05T16:19:47.994Z</time></trkpt><trkpt lat="45.39756255516958" lon="8.00375525491755"><ele>280.0</ele><time>2026-04-05T16:19:48.994Z</time></trkpt><trkpt lat="45.39770507867026" lon="8.003781949371538"><ele>277.0</ele><time>2026-04-05T16:19:49.994Z</time></trkpt><trkpt lat="45.39785162884607" lon="8.003818869103364"><ele>277.0</ele><time>2026-04-05T16:19:50.994Z</time></trkpt><trkpt lat="45.39798765388351" lon="8.003843479455327"><ele>277.0</ele><time>2026-04-05T16:19:51.994Z</time></trkpt><trkpt lat="45.398128011409675" lon="8.00387655420551"><ele>277.0</ele><time>2026-04-05T16:19:52.994Z</time></trkpt><trkpt lat="45.39827141651735" lon="8.003908313877883"><ele>277.0</ele><time>2026-04-05T16:19:53.994Z</time></trkpt><trkpt lat="45.39840824774072" lon="8.003931360145613"><ele>274.75</ele><time>2026-04-05T16:19:54.994Z</time></trkpt><trkpt lat="45.39854367806568" lon="8.003943216035411"><ele>272.5</ele><time>2026-04-05T16:19:55.994Z</time></trkpt><trkpt lat="45.3986887520019" lon="8.003953029300336"><ele>270.25</ele><time>2026-04-05T16:19:56.994Z</time></trkpt><trkpt lat="45.398840847580914" lon="8.003920212651002"><ele>268.0</ele><time>2026-04-05T16:19:57.994Z</time></trkpt><trkpt lat="45.39898689138013" lon="8.003878380939204"><ele>266.8</ele><time>2026-04-05T16:19:58.994Z</time></trkpt><trkpt lat="45.399123587839" lon="8.00382370027348"><ele>265.6</ele><time>2026-04-05T16:19:59.994Z</time></trkpt><trkpt lat="45.39923567202823" lon="8.003826508130093"><ele>264.4</ele><time>2026-04-05T16:20:00.994Z</time></trkpt><trkpt lat="45.39933129084024" lon="8.003813884961248"><ele>263.2</ele><time>2026-04-05T16:20:01.994Z</time></trkpt><trkpt lat="45.39940684559951" lon="8.003797520671858"><ele>262.0</ele><time>2026-04-05T16:20:02.994Z</time></trkpt><trkpt lat="45.3994744764031" lon="8.003746848749842"><ele>262.0</ele><time>2026-04-05T16:20:03.994Z</time></trkpt><trkpt lat="45.3995189246797" lon="8.00364385156179"><ele>262.0</ele><time>2026-04-05T16:20:04.994Z</time></trkpt><trkpt lat="45.39954753799275" lon="8.003509847287036"><ele>262.0</ele><time>2026-04-05T16:20:05.994Z</time></trkpt><trkpt lat="45.39957745885343" lon="8.003364319966547"><ele>262.0</ele><time>2026-04-05T16:20:06.994Z</time></trkpt><trkpt lat="45.3996109962545" lon="8.003201202728745"><ele>262.0</ele><time>2026-04-05T16:20:07.994Z</time></trkpt><trkpt lat="45.39964310965911" lon="8.003036465959708"><ele>260.4</ele><time>2026-04-05T16:20:08.994Z</time></trkpt><trkpt lat="45.39966291663988" lon="8.00290090865075"><ele>258.79999999999995</ele><time>2026-04-05T16:20:09.994Z</time></trkpt><trkpt lat="45.399709565313685" lon="8.002760710684667"><ele>257.2</ele><time>2026-04-05T16:20:11.994Z</time></trkpt><trkpt lat="45.3997977855601" lon="8.00277538701374"><ele>255.6</ele><time>2026-04-05T16:20:12.994Z</time></trkpt><trkpt lat="45.399869819988474" lon="8.002762975071551"><ele>254.0</ele><time>2026-04-05T16:20:13.994Z</time></trkpt><trkpt lat="45.399957408713746" lon="8.00276637787341"><ele>253.75</ele><time>2026-04-05T16:20:14.994Z</time></trkpt><trkpt lat="45.400058551346135" lon="8.002757329982753"><ele>253.5</ele><time>2026-04-05T16:20:15.994Z</time></trkpt><trkpt lat="45.40017031612395" lon="8.002748976487888"><ele>253.25</ele><time>2026-04-05T16:20:16.994Z</time></trkpt><trkpt lat="45.40030267689036" lon="8.00274922777401"><ele>253.0</ele><time>2026-04-05T16:20:17.994Z</time></trkpt><trkpt lat="45.40043784701546" lon="8.00274281394659"><ele>252.75</ele><time>2026-04-05T16:20:18.994Z</time></trkpt><trkpt lat="45.40057216260577" lon="8.0027357536815"><ele>252.5</ele><time>2026-04-05T16:20:19.994Z</time></trkpt><trkpt lat="45.4006966528401" lon="8.002728935182091"><ele>252.25</ele><time>2026-04-05T16:20:20.994Z</time></trkpt><trkpt lat="45.400806583705474" lon="8.002724721774758"><ele>252.0</ele><time>2026-04-05T16:20:21.994Z</time></trkpt><trkpt lat="45.40091019099562" lon="8.002747006565585"><ele>252.0</ele><time>2026-04-05T16:20:22.994Z</time></trkpt><trkpt lat="45.401018007730244" lon="8.002719493621868"><ele>252.0</ele><time>2026-04-05T16:20:23.994Z</time></trkpt><trkpt lat="45.40112248644823" lon="8.002648452907888"><ele>252.0</ele><time>2026-04-05T16:20:24.994Z</time></trkpt><trkpt lat="45.40123032391997" lon="8.002558117104943"><ele>252.0</ele><time>2026-04-05T16:20:25.994Z</time></trkpt><trkpt lat="45.40135791993336" lon="8.002452017674365"><ele>251.33333333333331</ele><time>2026-04-05T16:20:26.994Z</time></trkpt><trkpt lat="45.40149409300845" lon="8.002338165529371"><ele>250.66666666666666</ele><time>2026-04-05T16:20:27.994Z</time></trkpt><trkpt lat="45.40161787539856" lon="8.002207886546323"><ele>250.0</ele><time>2026-04-05T16:20:28.994Z</time></trkpt><trkpt lat="45.40174319462084" lon="8.00210196654729"><ele>250.0</ele><time>2026-04-05T16:20:29.994Z</time></trkpt><trkpt lat="45.4018557569697" lon="8.002004797345116"><ele>250.0</ele><time>2026-04-05T16:20:30.994Z</time></trkpt><trkpt lat="45.401955890957446" lon="8.001918412680176"><ele>250.0</ele><time>2026-04-05T16:20:31.994Z</time></trkpt><trkpt lat="45.40203603698001" lon="8.001840378493673"><ele>250.0</ele><time>2026-04-05T16:20:32.994Z</time></trkpt><trkpt lat="45.40210795983206" lon="8.00174799783759"><ele>250.0</ele><time>2026-04-05T16:20:33.994Z</time></trkpt><trkpt lat="45.40213748898821" lon="8.001608446657825"><ele>250.0</ele><time>2026-04-05T16:20:34.994Z</time></trkpt><trkpt lat="45.402170437067575" lon="8.001461407367337"><ele>250.0</ele><time>2026-04-05T16:20:35.994Z</time></trkpt><trkpt lat="45.40221500668343" lon="8.00129294947309"><ele>250.0</ele><time>2026-04-05T16:20:36.994Z</time></trkpt><trkpt lat="45.40228661210438" lon="8.001142801988559"><ele>250.0</ele><time>2026-04-05T16:20:37.994Z</time></trkpt><trkpt lat="45.4023801632583" lon="8.000986720824741"><ele>249.66666666666666</ele><time>2026-04-05T16:20:38.994Z</time></trkpt><trkpt lat="45.40247872786358" lon="8.000814625423441"><ele>249.33333333333331</ele><time>2026-04-05T16:20:39.994Z</time></trkpt><trkpt lat="45.40254735801172" lon="8.000611826190424"><ele>249.0</ele><time>2026-04-05T16:20:40.994Z</time></trkpt><trkpt lat="45.40262398960961" lon="8.000411282026525"><ele>249.0</ele><time>2026-04-05T16:20:41.994Z</time></trkpt><trkpt lat="45.40270055882208" lon="8.00021659301738"><ele>249.0</ele><time>2026-04-05T16:20:42.994Z</time></trkpt><trkpt lat="45.40279234460164" lon="8.000050549976766"><ele>249.0</ele><time>2026-04-05T16:20:43.994Z</time></trkpt><trkpt lat="45.40285687301539" lon="7.999874311321958"><ele>249.0</ele><time>2026-04-05T16:20:44.994Z</time></trkpt><trkpt lat="45.40289447026384" lon="7.9996949413962835"><ele>249.0</ele><time>2026-04-05T16:20:45.994Z</time></trkpt><trkpt lat="45.40293090682732" lon="7.999523743814241"><ele>249.0</ele><time>2026-04-05T16:20:46.994Z</time></trkpt><trkpt lat="45.402945550105244" lon="7.999349733714257"><ele>249.0</ele><time>2026-04-05T16:20:47.994Z</time></trkpt><trkpt lat="45.40295896560989" lon="7.999191761342327"><ele>249.0</ele><time>2026-04-05T16:20:48.994Z</time></trkpt><trkpt lat="45.40298176703426" lon="7.999053112303879"><ele>251.2</ele><time>2026-04-05T16:20:49.994Z</time></trkpt><trkpt lat="45.403030542470205" lon="7.998940308337712"><ele>253.39999999999998</ele><time>2026-04-05T16:20:50.994Z</time></trkpt><trkpt lat="45.40310694888647" lon="7.998846073230738"><ele>255.6</ele><time>2026-04-05T16:20:51.994Z</time></trkpt><trkpt lat="45.40320697106164" lon="7.998776661728877"><ele>257.8</ele><time>2026-04-05T16:20:52.994Z</time></trkpt><trkpt lat="45.40331998323937" lon="7.998716021739345"><ele>260.0</ele><time>2026-04-05T16:20:53.994Z</time></trkpt><trkpt lat="45.40343807151001" lon="7.998653545159314"><ele>260.0</ele><time>2026-04-05T16:20:54.994Z</time></trkpt><trkpt lat="45.40355573640173" lon="7.998584846250153"><ele>260.0</ele><time>2026-04-05T16:20:55.994Z</time></trkpt><trkpt lat="45.4036759026007" lon="7.998524391543123"><ele>260.0</ele><time>2026-04-05T16:20:56.994Z</time></trkpt><trkpt lat="45.40380098651487" lon="7.998484288309496"><ele>260.0</ele><time>2026-04-05T16:20:57.994Z</time></trkpt><trkpt lat="45.40392986959548" lon="7.998455807343374"><ele>261.0</ele><time>2026-04-05T16:20:58.994Z</time></trkpt><trkpt lat="45.40406554591927" lon="7.9984556570234915"><ele>262.0</ele><time>2026-04-05T16:20:59.994Z</time></trkpt><trkpt lat="45.40420330741975" lon="7.998451174029989"><ele>263.0</ele><time>2026-04-05T16:21:00.994Z</time></trkpt><trkpt lat="45.404333594850485" lon="7.998443526667444"><ele>264.0</ele><time>2026-04-05T16:21:01.994Z</time></trkpt><trkpt lat="45.40445740892282" lon="7.998441369029901"><ele>264.0</ele><time>2026-04-05T16:21:02.994Z</time></trkpt><trkpt lat="45.40457108795768" lon="7.9984406673424555"><ele>264.0</ele><time>2026-04-05T16:21:03.994Z</time></trkpt><trkpt lat="45.404670533049426" lon="7.998450492887908"><ele>264.0</ele><time>2026-04-05T16:21:04.994Z</time></trkpt><trkpt lat="45.404756598443214" lon="7.9984810092908605"><ele>264.0</ele><time>2026-04-05T16:21:05.994Z</time></trkpt><trkpt lat="45.40482408205086" lon="7.998506300546484"><ele>264.0</ele><time>2026-04-05T16:21:06.994Z</time></trkpt><trkpt lat="45.40491704372864" lon="7.998495903292273"><ele>264.3333333333333</ele><time>2026-04-05T16:21:08.994Z</time></trkpt><trkpt lat="45.4049457079196" lon="7.99841296624044"><ele>264.6666666666667</ele><time>2026-04-05T16:21:09.994Z</time></trkpt><trkpt lat="45.40497195137725" lon="7.998313225108639"><ele>265.0</ele><time>2026-04-05T16:21:10.994Z</time></trkpt><trkpt lat="45.404994092480855" lon="7.998192920158378"><ele>265.33333333333337</ele><time>2026-04-05T16:21:11.994Z</time></trkpt><trkpt lat="45.40502277112751" lon="7.998053884131983"><ele>265.6666666666667</ele><time>2026-04-05T16:21:12.994Z</time></trkpt><trkpt lat="45.405051216842175" lon="7.997899769684297"><ele>266.0</ele><time>2026-04-05T16:21:13.994Z</time></trkpt><trkpt lat="45.40507452089886" lon="7.997742874201342"><ele>266.0</ele><time>2026-04-05T16:21:14.994Z</time></trkpt><trkpt lat="45.40509187585265" lon="7.997597937786603"><ele>266.0</ele><time>2026-04-05T16:21:15.994Z</time></trkpt><trkpt lat="45.405104561430726" lon="7.997454295770835"><ele>266.0</ele><time>2026-04-05T16:21:16.994Z</time></trkpt><trkpt lat="45.40511477944673" lon="7.997303441807102"><ele>266.0</ele><time>2026-04-05T16:21:17.994Z</time></trkpt><trkpt lat="45.40510928748298" lon="7.997147458261659"><ele>266.0</ele><time>2026-04-05T16:21:18.994Z</time></trkpt><trkpt lat="45.4050945474629" lon="7.996988817134973"><ele>265.75</ele><time>2026-04-05T16:21:19.994Z</time></trkpt><trkpt lat="45.4050794783658" lon="7.996829499591816"><ele>265.5</ele><time>2026-04-05T16:21:20.994Z</time></trkpt><trkpt lat="45.40505989717651" lon="7.996660815668547"><ele>265.25</ele><time>2026-04-05T16:21:21.994Z</time></trkpt><trkpt lat="45.40504469702066" lon="7.996486302479187"><ele>265.0</ele><time>2026-04-05T16:21:22.994Z</time></trkpt><trkpt lat="45.40504459331326" lon="7.996320709741143"><ele>265.0</ele><time>2026-04-05T16:21:23.994Z</time></trkpt><trkpt lat="45.40504653197341" lon="7.996165509285637"><ele>265.0</ele><time>2026-04-05T16:21:24.994Z</time></trkpt><trkpt lat="45.4050526921057" lon="7.996022868395708"><ele>265.0</ele><time>2026-04-05T16:21:25.994Z</time></trkpt><trkpt lat="45.40505742029961" lon="7.995868143794568"><ele>265.0</ele><time>2026-04-05T16:21:26.994Z</time></trkpt><trkpt lat="45.40506971582481" lon="7.9957035084728405"><ele>265.0</ele><time>2026-04-05T16:21:27.994Z</time></trkpt><trkpt lat="45.40508545116599" lon="7.995545504822983"><ele>265.16666666666663</ele><time>2026-04-05T16:21:28.994Z</time></trkpt><trkpt lat="45.40510703797123" lon="7.995399139414952"><ele>265.3333333333333</ele><time>2026-04-05T16:21:29.994Z</time></trkpt><trkpt lat="45.40513200094913" lon="7.995275792586126"><ele>265.5</ele><time>2026-04-05T16:21:30.994Z</time></trkpt><trkpt lat="45.40515598241799" lon="7.995164273261845"><ele>265.6666666666667</ele><time>2026-04-05T16:21:31.994Z</time></trkpt><trkpt lat="45.40519519357733" lon="7.995066680886739"><ele>265.83333333333337</ele><time>2026-04-05T16:21:32.994Z</time></trkpt><trkpt lat="45.405247886752605" lon="7.994988740673029"><ele>266.0</ele><time>2026-04-05T16:21:33.994Z</time></trkpt><trkpt lat="45.405316086645485" lon="7.994922450753797"><ele>265.40000000000003</ele><time>2026-04-05T16:21:34.993Z</time></trkpt><trkpt lat="45.40539539496959" lon="7.99485334293603"><ele>264.8</ele><time>2026-04-05T16:21:35.993Z</time></trkpt><trkpt lat="45.40547031738252" lon="7.99476598907285"><ele>264.20000000000005</ele><time>2026-04-05T16:21:36.993Z</time></trkpt><trkpt lat="45.4055455471856" lon="7.994669394688857"><ele>263.6</ele><time>2026-04-05T16:21:37.993Z</time></trkpt><trkpt lat="45.40562329761705" lon="7.994582294742476"><ele>263.0</ele><time>2026-04-05T16:21:38.993Z</time></trkpt><trkpt lat="45.4056890291869" lon="7.9944952467982775"><ele>262.8</ele><time>2026-04-05T16:21:39.993Z</time></trkpt><trkpt lat="45.405745581083025" lon="7.994398986608387"><ele>262.6</ele><time>2026-04-05T16:21:40.993Z</time></trkpt><trkpt lat="45.4058092633206" lon="7.994296458583666"><ele>262.4</ele><time>2026-04-05T16:21:41.993Z</time></trkpt><trkpt lat="45.40588360346196" lon="7.9942003271026865"><ele>262.2</ele><time>2026-04-05T16:21:42.993Z</time></trkpt><trkpt lat="45.405971446580516" lon="7.994113691949955"><ele>262.0</ele><time>2026-04-05T16:21:43.993Z</time></trkpt><trkpt lat="45.406065260941524" lon="7.994033081349324"><ele>262.0</ele><time>2026-04-05T16:21:44.993Z</time></trkpt><trkpt lat="45.40615550007136" lon="7.993952690850079"><ele>262.0</ele><time>2026-04-05T16:21:45.993Z</time></trkpt><trkpt lat="45.40623997352764" lon="7.993864711061891"><ele>262.0</ele><time>2026-04-05T16:21:46.993Z</time></trkpt><trkpt lat="45.40631907826517" lon="7.993759948153623"><ele>262.0</ele><time>2026-04-05T16:21:47.993Z</time></trkpt><trkpt lat="45.40638800035089" lon="7.993645716270088"><ele>262.0</ele><time>2026-04-05T16:21:48.993Z</time></trkpt><trkpt lat="45.406452429819765" lon="7.993538693244605"><ele>262.0</ele><time>2026-04-05T16:21:49.993Z</time></trkpt><trkpt lat="45.40651099866086" lon="7.993439388179325"><ele>262.0</ele><time>2026-04-05T16:21:50.993Z</time></trkpt><trkpt lat="45.406559716015956" lon="7.993364105866637"><ele>262.0</ele><time>2026-04-05T16:21:51.993Z</time></trkpt><trkpt lat="45.406613786668636" lon="7.993273159141358"><ele>262.0</ele><time>2026-04-05T16:21:53.993Z</time></trkpt><trkpt lat="45.4067249324058" lon="7.993227392308269"><ele>262.0</ele><time>2026-04-05T16:21:56.993Z</time></trkpt><trkpt lat="45.40686283224663" lon="7.993214801210848"><ele>261.8</ele><time>2026-04-05T16:21:58.993Z</time></trkpt><trkpt lat="45.406944182158696" lon="7.993208662609908"><ele>261.6</ele><time>2026-04-05T16:21:59.993Z</time></trkpt><trkpt lat="45.4070247859858" lon="7.993196285063899"><ele>261.40000000000003</ele><time>2026-04-05T16:22:00.993Z</time></trkpt><trkpt lat="45.40712690868668" lon="7.993178055735131"><ele>261.2</ele><time>2026-04-05T16:22:01.993Z</time></trkpt><trkpt lat="45.4072420372576" lon="7.993162062379259"><ele>261.0</ele><time>2026-04-05T16:22:02.993Z</time></trkpt><trkpt lat="45.40736851474257" lon="7.99315092989751"><ele>260.75</ele><time>2026-04-05T16:22:03.993Z</time></trkpt><trkpt lat="45.40748934767911" lon="7.993137986505973"><ele>260.5</ele><time>2026-04-05T16:22:04.993Z</time></trkpt><trkpt lat="45.407613326636174" lon="7.9931351725257125"><ele>260.25</ele><time>2026-04-05T16:22:05.993Z</time></trkpt><trkpt lat="45.40774546930596" lon="7.993134768326947"><ele>260.0</ele><time>2026-04-05T16:22:06.993Z</time></trkpt><trkpt lat="45.40788266544955" lon="7.993164514798655"><ele>260.25</ele><time>2026-04-05T16:22:07.993Z</time></trkpt><trkpt lat="45.40802652156803" lon="7.993177952004853"><ele>260.5</ele><time>2026-04-05T16:22:08.993Z</time></trkpt><trkpt lat="45.408179663881214" lon="7.993193347442272"><ele>260.75</ele><time>2026-04-05T16:22:09.993Z</time></trkpt><trkpt lat="45.408327285754986" lon="7.993215766700697"><ele>261.0</ele><time>2026-04-05T16:22:10.993Z</time></trkpt><trkpt lat="45.40847586612719" lon="7.993244651496332"><ele>261.0</ele><time>2026-04-05T16:22:11.993Z</time></trkpt><trkpt lat="45.408629963905554" lon="7.993282382727395"><ele>261.0</ele><time>2026-04-05T16:22:12.993Z</time></trkpt><trkpt lat="45.40878935660577" lon="7.993326519438051"><ele>261.0</ele><time>2026-04-05T16:22:13.993Z</time></trkpt><trkpt lat="45.40895313293972" lon="7.993371622712434"><ele>260.6666666666667</ele><time>2026-04-05T16:22:14.993Z</time></trkpt><trkpt lat="45.409122820506624" lon="7.993419805335465"><ele>260.33333333333337</ele><time>2026-04-05T16:22:15.993Z</time></trkpt><trkpt lat="45.40929270276961" lon="7.993468578263811"><ele>260.0</ele><time>2026-04-05T16:22:16.993Z</time></trkpt><trkpt lat="45.40945406641527" lon="7.993516944388364"><ele>260.0</ele><time>2026-04-05T16:22:17.993Z</time></trkpt><trkpt lat="45.40961382395167" lon="7.993565571567645"><ele>260.0</ele><time>2026-04-05T16:22:18.993Z</time></trkpt><trkpt lat="45.40977085176917" lon="7.993609621166061"><ele>260.0</ele><time>2026-04-05T16:22:19.993Z</time></trkpt><trkpt lat="45.40993024960325" lon="7.993659228895758"><ele>260.33333333333337</ele><time>2026-04-05T16:22:20.993Z</time></trkpt><trkpt lat="45.4100906284372" lon="7.993705450056409"><ele>260.6666666666667</ele><time>2026-04-05T16:22:21.993Z</time></trkpt><trkpt lat="45.41025280026307" lon="7.993754611091451"><ele>261.0</ele><time>2026-04-05T16:22:22.993Z</time></trkpt><trkpt lat="45.41041197859316" lon="7.993797536972462"><ele>260.3333333333333</ele><time>2026-04-05T16:22:23.993Z</time></trkpt><trkpt lat="45.410571990527416" lon="7.9938422676415755"><ele>259.66666666666663</ele><time>2026-04-05T16:22:24.993Z</time></trkpt><trkpt lat="45.410730347103325" lon="7.993884649987427"><ele>259.0</ele><time>2026-04-05T16:22:25.993Z</time></trkpt><trkpt lat="45.41088923952346" lon="7.993917281397649"><ele>259.0</ele><time>2026-04-05T16:22:26.993Z</time></trkpt><trkpt lat="45.41104923587627" lon="7.9939339085942045"><ele>259.0</ele><time>2026-04-05T16:22:27.993Z</time></trkpt><trkpt lat="45.41120597766287" lon="7.993959146586725"><ele>259.0</ele><time>2026-04-05T16:22:28.993Z</time></trkpt><trkpt lat="45.41136042775982" lon="7.993939631646473"><ele>258.0</ele><time>2026-04-05T16:22:29.993Z</time></trkpt><trkpt lat="45.411518890643414" lon="7.993903766662877"><ele>257.0</ele><time>2026-04-05T16:22:30.993Z</time></trkpt><trkpt lat="45.411678247144906" lon="7.993840097894268"><ele>256.0</ele><time>2026-04-05T16:22:31.993Z</time></trkpt><trkpt lat="45.41184057537274" lon="7.993756967405458"><ele>256.0</ele><time>2026-04-05T16:22:32.993Z</time></trkpt><trkpt lat="45.41200176325856" lon="7.993652919946011"><ele>256.0</ele><time>2026-04-05T16:22:33.993Z</time></trkpt><trkpt lat="45.41216164580355" lon="7.993545131047692"><ele>256.0</ele><time>2026-04-05T16:22:34.993Z</time></trkpt><trkpt lat="45.41231787581466" lon="7.993416787617275"><ele>255.33333333333331</ele><time>2026-04-05T16:22:35.993Z</time></trkpt><trkpt lat="45.41248782007236" lon="7.993310000922761"><ele>254.66666666666669</ele><time>2026-04-05T16:22:36.993Z</time></trkpt><trkpt lat="45.412662918273206" lon="7.993210800696716"><ele>254.0</ele><time>2026-04-05T16:22:37.993Z</time></trkpt><trkpt lat="45.41284430583297" lon="7.993123627230348"><ele>253.66666666666669</ele><time>2026-04-05T16:22:38.993Z</time></trkpt><trkpt lat="45.41303255588913" lon="7.993056391910287"><ele>253.33333333333331</ele><time>2026-04-05T16:22:39.993Z</time></trkpt><trkpt lat="45.413214025909674" lon="7.99296091769725"><ele>253.0</ele><time>2026-04-05T16:22:40.993Z</time></trkpt><trkpt lat="45.413389638140735" lon="7.99285875028033"><ele>253.0</ele><time>2026-04-05T16:22:41.993Z</time></trkpt><trkpt lat="45.413563259078636" lon="7.992761234998911"><ele>253.0</ele><time>2026-04-05T16:22:42.993Z</time></trkpt><trkpt lat="45.4137325284533" lon="7.992665297215815"><ele>253.0</ele><time>2026-04-05T16:22:43.993Z</time></trkpt><trkpt lat="45.41389194597382" lon="7.99257427411644"><ele>251.66666666666666</ele><time>2026-04-05T16:22:44.993Z</time></trkpt><trkpt lat="45.414046000194766" lon="7.992486665063752"><ele>250.33333333333331</ele><time>2026-04-05T16:22:45.993Z</time></trkpt><trkpt lat="45.414200094737396" lon="7.9924156264554655"><ele>249.0</ele><time>2026-04-05T16:22:46.993Z</time></trkpt><trkpt lat="45.414356940018564" lon="7.992362821630694"><ele>249.0</ele><time>2026-04-05T16:22:47.993Z</time></trkpt><trkpt lat="45.414522661411404" lon="7.992335008899864"><ele>249.0</ele><time>2026-04-05T16:22:48.993Z</time></trkpt><trkpt lat="45.41469234174138" lon="7.992334288824028"><ele>249.0</ele><time>2026-04-05T16:22:49.993Z</time></trkpt><trkpt lat="45.414864606239966" lon="7.992353930922496"><ele>247.33333333333331</ele><time>2026-04-05T16:22:50.993Z</time></trkpt><trkpt lat="45.41503702643075" lon="7.992387377369199"><ele>245.66666666666666</ele><time>2026-04-05T16:22:51.993Z</time></trkpt><trkpt lat="45.41520993835305" lon="7.992436924362675"><ele>244.0</ele><time>2026-04-05T16:22:52.993Z</time></trkpt><trkpt lat="45.41538494187283" lon="7.992475775879116"><ele>242.33333333333331</ele><time>2026-04-05T16:22:53.993Z</time></trkpt><trkpt lat="45.41556467806003" lon="7.992511946655885"><ele>240.66666666666669</ele><time>2026-04-05T16:22:54.993Z</time></trkpt><trkpt lat="45.41574208685218" lon="7.992551165784207"><ele>239.0</ele><time>2026-04-05T16:22:55.993Z</time></trkpt><trkpt lat="45.41592201408192" lon="7.992592394843171"><ele>239.0</ele><time>2026-04-05T16:22:56.993Z</time></trkpt><trkpt lat="45.416096276177576" lon="7.992664156983684"><ele>239.0</ele><time>2026-04-05T16:22:57.993Z</time></trkpt><trkpt lat="45.416273420383746" lon="7.992722676624552"><ele>239.0</ele><time>2026-04-05T16:22:58.993Z</time></trkpt><trkpt lat="45.41645013146144" lon="7.992793103858687"><ele>239.66666666666669</ele><time>2026-04-05T16:22:59.993Z</time></trkpt><trkpt lat="45.41663156798485" lon="7.9928724480962146"><ele>240.33333333333331</ele><time>2026-04-05T16:23:00.993Z</time></trkpt><trkpt lat="45.41681383918421" lon="7.992952783100896"><ele>241.0</ele><time>2026-04-05T16:23:01.993Z</time></trkpt><trkpt lat="45.41699935526051" lon="7.993032786224812"><ele>239.33333333333331</ele><time>2026-04-05T16:23:02.993Z</time></trkpt><trkpt lat="45.41718599733152" lon="7.993103940318438"><ele>237.66666666666669</ele><time>2026-04-05T16:23:03.993Z</time></trkpt><trkpt lat="45.41738143374662" lon="7.9931539911649985"><ele>236.0</ele><time>2026-04-05T16:23:04.993Z</time></trkpt><trkpt lat="45.417576287390894" lon="7.993188746300576"><ele>236.0</ele><time>2026-04-05T16:23:05.993Z</time></trkpt><trkpt lat="45.417773601907" lon="7.99322022685967"><ele>236.0</ele><time>2026-04-05T16:23:06.993Z</time></trkpt><trkpt lat="45.41797404864062" lon="7.99325258657072"><ele>236.0</ele><time>2026-04-05T16:23:07.993Z</time></trkpt><trkpt lat="45.4181678849456" lon="7.993284523004652"><ele>235.33333333333334</ele><time>2026-04-05T16:23:08.993Z</time></trkpt><trkpt lat="45.41836434109564" lon="7.99331749648583"><ele>234.66666666666669</ele><time>2026-04-05T16:23:09.993Z</time></trkpt><trkpt lat="45.41856437105779" lon="7.993350975013723"><ele>234.0</ele><time>2026-04-05T16:23:10.993Z</time></trkpt><trkpt lat="45.41876603202004" lon="7.993384726551344"><ele>235.0</ele><time>2026-04-05T16:23:11.993Z</time></trkpt><trkpt lat="45.4189628367604" lon="7.99341751379353"><ele>236.0</ele><time>2026-04-05T16:23:12.993Z</time></trkpt><trkpt lat="45.41915639664928" lon="7.993449579823886"><ele>237.0</ele><time>2026-04-05T16:23:13.993Z</time></trkpt><trkpt lat="45.41934584367147" lon="7.993481641811999"><ele>237.0</ele><time>2026-04-05T16:23:14.993Z</time></trkpt><trkpt lat="45.41953209096913" lon="7.9935132272956935"><ele>237.0</ele><time>2026-04-05T16:23:15.993Z</time></trkpt><trkpt lat="45.41971254723546" lon="7.99354383068684"><ele>237.0</ele><time>2026-04-05T16:23:16.993Z</time></trkpt><trkpt lat="45.419891021437664" lon="7.993574097790468"><ele>237.66666666666669</ele><time>2026-04-05T16:23:17.993Z</time></trkpt><trkpt lat="45.42006639543573" lon="7.993602641457824"><ele>238.33333333333334</ele><time>2026-04-05T16:23:18.993Z</time></trkpt><trkpt lat="45.42024014716647" lon="7.993631053026496"><ele>239.0</ele><time>2026-04-05T16:23:19.993Z</time></trkpt><trkpt lat="45.42041614606595" lon="7.993660120876929"><ele>239.0</ele><time>2026-04-05T16:23:20.993Z</time></trkpt><trkpt lat="45.42059132118956" lon="7.993689688847651"><ele>239.0</ele><time>2026-04-05T16:23:21.993Z</time></trkpt><trkpt lat="45.4207625346601" lon="7.993718588113056"><ele>239.0</ele><time>2026-04-05T16:23:22.993Z</time></trkpt><trkpt lat="45.42093700928086" lon="7.993748037823498"><ele>239.0</ele><time>2026-04-05T16:23:23.992Z</time></trkpt><trkpt lat="45.42111293129108" lon="7.993776152807859"><ele>239.0</ele><time>2026-04-05T16:23:24.992Z</time></trkpt><trkpt lat="45.42128857541122" lon="7.9938038121527955"><ele>239.0</ele><time>2026-04-05T16:23:25.992Z</time></trkpt><trkpt lat="45.42146579682737" lon="7.99383171990408"><ele>239.33333333333334</ele><time>2026-04-05T16:23:26.992Z</time></trkpt><trkpt lat="45.42164245843165" lon="7.993837256521526"><ele>239.66666666666669</ele><time>2026-04-05T16:23:27.992Z</time></trkpt><trkpt lat="45.42181540421567" lon="7.993882463783324"><ele>240.0</ele><time>2026-04-05T16:23:28.992Z</time></trkpt><trkpt lat="45.42198146158621" lon="7.9939129303348455"><ele>240.0</ele><time>2026-04-05T16:23:29.992Z</time></trkpt><trkpt lat="45.4221478910751" lon="7.993940275544721"><ele>240.0</ele><time>2026-04-05T16:23:30.992Z</time></trkpt><trkpt lat="45.42231206237403" lon="7.993964749317186"><ele>240.0</ele><time>2026-04-05T16:23:31.992Z</time></trkpt><trkpt lat="45.42247426657689" lon="7.993985346294006"><ele>239.66666666666669</ele><time>2026-04-05T16:23:32.992Z</time></trkpt><trkpt lat="45.422632832028164" lon="7.994003933844604"><ele>239.33333333333334</ele><time>2026-04-05T16:23:33.992Z</time></trkpt><trkpt lat="45.422784644978144" lon="7.994020052937759"><ele>239.0</ele><time>2026-04-05T16:23:34.992Z</time></trkpt><trkpt lat="45.4229300826705" lon="7.994041019565586"><ele>239.75</ele><time>2026-04-05T16:23:35.992Z</time></trkpt><trkpt lat="45.42306769554243" lon="7.994079448745655"><ele>240.5</ele><time>2026-04-05T16:23:36.992Z</time></trkpt><trkpt lat="45.42319509095508" lon="7.9940751065426765"><ele>241.25</ele><time>2026-04-05T16:23:37.992Z</time></trkpt><trkpt lat="45.423305706284445" lon="7.994113896290865"><ele>242.0</ele><time>2026-04-05T16:23:38.992Z</time></trkpt><trkpt lat="45.423413993593805" lon="7.994106768559733"><ele>242.00000000000003</ele><time>2026-04-05T16:23:39.992Z</time></trkpt><trkpt lat="45.42349987196113" lon="7.994137975820811"><ele>242.0</ele><time>2026-04-05T16:23:40.992Z</time></trkpt><trkpt lat="45.42357758565375" lon="7.994143647696713"><ele>242.0</ele><time>2026-04-05T16:23:41.992Z</time></trkpt><trkpt lat="45.4236412912465" lon="7.994152245150011"><ele>242.0</ele><time>2026-04-05T16:23:42.992Z</time></trkpt><trkpt lat="45.42371523391182" lon="7.9941559176191985"><ele>242.00000000000003</ele><time>2026-04-05T16:23:44.992Z</time></trkpt><trkpt lat="45.42375803138568" lon="7.994260777442172"><ele>242.0</ele><time>2026-04-05T16:23:47.992Z</time></trkpt><trkpt lat="45.423760511639074" lon="7.994440275005402"><ele>241.39999999999998</ele><time>2026-04-05T16:23:49.992Z</time></trkpt><trkpt lat="45.42376312811706" lon="7.994551876882684"><ele>240.79999999999998</ele><time>2026-04-05T16:23:50.992Z</time></trkpt><trkpt lat="45.42376657197366" lon="7.994674557275808"><ele>240.2</ele><time>2026-04-05T16:23:51.992Z</time></trkpt><trkpt lat="45.42378581204095" lon="7.994809995912672"><ele>239.6</ele><time>2026-04-05T16:23:52.992Z</time></trkpt><trkpt lat="45.42377343329306" lon="7.994955751709603"><ele>239.0</ele><time>2026-04-05T16:23:53.992Z</time></trkpt><trkpt lat="45.423769799989024" lon="7.995101359120318"><ele>238.6</ele><time>2026-04-05T16:23:54.992Z</time></trkpt><trkpt lat="45.42377470480548" lon="7.9952411131073795"><ele>238.2</ele><time>2026-04-05T16:23:55.992Z</time></trkpt><trkpt lat="45.42378699944084" lon="7.995377462212213"><ele>237.79999999999998</ele><time>2026-04-05T16:23:56.992Z</time></trkpt><trkpt lat="45.423800956305584" lon="7.995514188961396"><ele>237.39999999999998</ele><time>2026-04-05T16:23:57.992Z</time></trkpt><trkpt lat="45.42381799501878" lon="7.995654900324634"><ele>237.0</ele><time>2026-04-05T16:23:58.992Z</time></trkpt><trkpt lat="45.42384602737655" lon="7.995800396957517"><ele>238.75</ele><time>2026-04-05T16:23:59.992Z</time></trkpt><trkpt lat="45.42388039716173" lon="7.995949710588133"><ele>240.5</ele><time>2026-04-05T16:24:00.992Z</time></trkpt><trkpt lat="45.42392642134592" lon="7.996113384997677"><ele>242.25</ele><time>2026-04-05T16:24:01.992Z</time></trkpt><trkpt lat="45.4239763121141" lon="7.996278280172282"><ele>244.0</ele><time>2026-04-05T16:24:02.992Z</time></trkpt><trkpt lat="45.42402407661901" lon="7.996447696182211"><ele>244.0</ele><time>2026-04-05T16:24:03.992Z</time></trkpt><trkpt lat="45.42406749138977" lon="7.996613463068345"><ele>244.0</ele><time>2026-04-05T16:24:04.992Z</time></trkpt><trkpt lat="45.42410890973453" lon="7.996771887414099"><ele>244.0</ele><time>2026-04-05T16:24:05.992Z</time></trkpt><trkpt lat="45.424148537678384" lon="7.996922337783832"><ele>244.0</ele><time>2026-04-05T16:24:06.992Z</time></trkpt><trkpt lat="45.42418362694516" lon="7.99706463364458"><ele>243.6</ele><time>2026-04-05T16:24:07.992Z</time></trkpt><trkpt lat="45.42420894164876" lon="7.997204534583291"><ele>243.2</ele><time>2026-04-05T16:24:08.992Z</time></trkpt><trkpt lat="45.424216520095484" lon="7.997343388752585"><ele>242.79999999999998</ele><time>2026-04-05T16:24:09.992Z</time></trkpt><trkpt lat="45.4242150360514" lon="7.997478049928226"><ele>242.39999999999998</ele><time>2026-04-05T16:24:10.992Z</time></trkpt><trkpt lat="45.424211869024965" lon="7.9975984161266975"><ele>242.0</ele><time>2026-04-05T16:24:11.992Z</time></trkpt><trkpt lat="45.424201657965625" lon="7.997701228088067"><ele>242.0</ele><time>2026-04-05T16:24:12.992Z</time></trkpt><trkpt lat="45.424162872130175" lon="7.997830613414814"><ele>242.0</ele><time>2026-04-05T16:24:14.992Z</time></trkpt><trkpt lat="45.42413819846724" lon="7.997964641304975"><ele>242.0</ele><time>2026-04-05T16:24:22.992Z</time></trkpt><trkpt lat="45.42414580208925" lon="7.99814818398845"><ele>242.0</ele><time>2026-04-05T16:24:24.992Z</time></trkpt><trkpt lat="45.424181418603396" lon="7.998274720787165"><ele>242.0</ele><time>2026-04-05T16:24:25.992Z</time></trkpt><trkpt lat="45.424244001288756" lon="7.998372782491785"><ele>241.39999999999998</ele><time>2026-04-05T16:24:26.992Z</time></trkpt><trkpt lat="45.42432163413993" lon="7.9984325544099475"><ele>240.79999999999998</ele><time>2026-04-05T16:24:27.992Z</time></trkpt><trkpt lat="45.42437175497338" lon="7.99852646767194"><ele>240.2</ele><time>2026-04-05T16:24:28.992Z</time></trkpt><trkpt lat="45.424435280436235" lon="7.998611571473664"><ele>239.6</ele><time>2026-04-05T16:24:29.992Z</time></trkpt><trkpt lat="45.42451129509645" lon="7.99871289208049"><ele>239.0</ele><time>2026-04-05T16:24:30.992Z</time></trkpt><trkpt lat="45.42460107499112" lon="7.998824396093198"><ele>238.75</ele><time>2026-04-05T16:24:31.992Z</time></trkpt><trkpt lat="45.42469869073559" lon="7.998930573052904"><ele>238.5</ele><time>2026-04-05T16:24:32.992Z</time></trkpt><trkpt lat="45.42479327141085" lon="7.9990229323523625"><ele>238.25</ele><time>2026-04-05T16:24:33.992Z</time></trkpt><trkpt lat="45.424896566297384" lon="7.999100471915619"><ele>238.0</ele><time>2026-04-05T16:24:34.992Z</time></trkpt><trkpt lat="45.42501330652413" lon="7.999170323996061"><ele>236.75</ele><time>2026-04-05T16:24:35.992Z</time></trkpt><trkpt lat="45.42514385832304" lon="7.999221698872274"><ele>235.5</ele><time>2026-04-05T16:24:36.992Z</time></trkpt><trkpt lat="45.425282820389064" lon="7.999253721103467"><ele>234.25</ele><time>2026-04-05T16:24:37.992Z</time></trkpt><trkpt lat="45.42543596081732" lon="7.999238427219278"><ele>233.0</ele><time>2026-04-05T16:24:38.992Z</time></trkpt><trkpt lat="45.42559837751205" lon="7.999238404090626"><ele>233.0</ele><time>2026-04-05T16:24:39.992Z</time></trkpt><trkpt lat="45.42577087178293" lon="7.999258224914213"><ele>233.0</ele><time>2026-04-05T16:24:40.992Z</time></trkpt><trkpt lat="45.4259465793999" lon="7.999253224742699"><ele>233.0</ele><time>2026-04-05T16:24:41.992Z</time></trkpt><trkpt lat="45.42612461863321" lon="7.999245892405189"><ele>233.0</ele><time>2026-04-05T16:24:42.992Z</time></trkpt><trkpt lat="45.42629349556002" lon="7.999238937406581"><ele>233.0</ele><time>2026-04-05T16:24:43.992Z</time></trkpt><trkpt lat="45.426468906302865" lon="7.999231713321739"><ele>233.0</ele><time>2026-04-05T16:24:44.992Z</time></trkpt><trkpt lat="45.42665100671286" lon="7.999224579671637"><ele>233.33333333333334</ele><time>2026-04-05T16:24:45.992Z</time></trkpt><trkpt lat="45.42683726891434" lon="7.99921942362536"><ele>233.66666666666669</ele><time>2026-04-05T16:24:46.992Z</time></trkpt><trkpt lat="45.427029413099355" lon="7.999212590875182"><ele>234.0</ele><time>2026-04-05T16:24:47.992Z</time></trkpt><trkpt lat="45.42722778186183" lon="7.999202560331389"><ele>234.0</ele><time>2026-04-05T16:24:48.992Z</time></trkpt><trkpt lat="45.42743064162083" lon="7.999173672058822"><ele>234.0</ele><time>2026-04-05T16:24:49.992Z</time></trkpt><trkpt lat="45.42763978444797" lon="7.999167115414803"><ele>234.0</ele><time>2026-04-05T16:24:50.992Z</time></trkpt><trkpt lat="45.42785252283402" lon="7.999183626074521"><ele>234.0</ele><time>2026-04-05T16:24:51.992Z</time></trkpt><trkpt lat="45.42807025147078" lon="7.9991794360101585"><ele>234.0</ele><time>2026-04-05T16:24:52.992Z</time></trkpt><trkpt lat="45.42829020754233" lon="7.999174782424395"><ele>234.0</ele><time>2026-04-05T16:24:53.992Z</time></trkpt><trkpt lat="45.4285130789504" lon="7.999148956995989"><ele>234.0</ele><time>2026-04-05T16:24:54.992Z</time></trkpt><trkpt lat="45.42872573579275" lon="7.999150555854231"><ele>234.0</ele><time>2026-04-05T16:24:55.992Z</time></trkpt><trkpt lat="45.4289295079214" lon="7.9991419874161895"><ele>234.0</ele><time>2026-04-05T16:24:56.992Z</time></trkpt><trkpt lat="45.429133700941215" lon="7.999124066978961"><ele>233.33333333333331</ele><time>2026-04-05T16:24:57.992Z</time></trkpt><trkpt lat="45.42934363156971" lon="7.999088794516445"><ele>232.66666666666666</ele><time>2026-04-05T16:24:58.992Z</time></trkpt><trkpt lat="45.42955663670716" lon="7.999040313588928"><ele>232.0</ele><time>2026-04-05T16:24:59.992Z</time></trkpt><trkpt lat="45.42977302553456" lon="7.998982919085198"><ele>232.0</ele><time>2026-04-05T16:25:00.992Z</time></trkpt><trkpt lat="45.429999084694764" lon="7.998925902649108"><ele>232.0</ele><time>2026-04-05T16:25:01.992Z</time></trkpt><trkpt lat="45.43021847086369" lon="7.998874014523668"><ele>232.0</ele><time>2026-04-05T16:25:02.992Z</time></trkpt><trkpt lat="45.43042847641948" lon="7.998825273936031"><ele>232.0</ele><time>2026-04-05T16:25:03.992Z</time></trkpt><trkpt lat="45.430636305557826" lon="7.998774728744581"><ele>232.0</ele><time>2026-04-05T16:25:04.992Z</time></trkpt><trkpt lat="45.43084473477838" lon="7.998723723394022"><ele>232.33333333333331</ele><time>2026-04-05T16:25:05.992Z</time></trkpt><trkpt lat="45.431054004735124" lon="7.998672443498527"><ele>232.66666666666669</ele><time>2026-04-05T16:25:06.992Z</time></trkpt><trkpt lat="45.431265344579714" lon="7.998619970541061"><ele>233.0</ele><time>2026-04-05T16:25:07.992Z</time></trkpt><trkpt lat="45.431479179503704" lon="7.998590641070449"><ele>233.0</ele><time>2026-04-05T16:25:08.992Z</time></trkpt><trkpt lat="45.4316919126285" lon="7.998539201084692"><ele>233.0</ele><time>2026-04-05T16:25:09.992Z</time></trkpt><trkpt lat="45.431907748475325" lon="7.998486554827769"><ele>233.0</ele><time>2026-04-05T16:25:10.992Z</time></trkpt><trkpt lat="45.43212693832475" lon="7.998433089666651"><ele>233.0</ele><time>2026-04-05T16:25:11.991Z</time></trkpt><trkpt lat="45.43234343656457" lon="7.99835655898344"><ele>233.0</ele><time>2026-04-05T16:25:12.991Z</time></trkpt><trkpt lat="45.432566294997415" lon="7.998305003406604"><ele>233.0</ele><time>2026-04-05T16:25:13.991Z</time></trkpt><trkpt lat="45.432791435271895" lon="7.998252085993228"><ele>233.5</ele><time>2026-04-05T16:25:14.991Z</time></trkpt><trkpt lat="45.43301791116083" lon="7.998199557512584"><ele>234.0</ele><time>2026-04-05T16:25:15.991Z</time></trkpt><trkpt lat="45.43324988361111" lon="7.998176535479767"><ele>234.0</ele><time>2026-04-05T16:25:16.991Z</time></trkpt><trkpt lat="45.4334833426168" lon="7.998138339296918"><ele>234.0</ele><time>2026-04-05T16:25:17.991Z</time></trkpt><trkpt lat="45.43371835017135" lon="7.99810447281386"><ele>233.5</ele><time>2026-04-05T16:25:18.991Z</time></trkpt><trkpt lat="45.43395182825048" lon="7.998051119845886"><ele>233.0</ele><time>2026-04-05T16:25:19.991Z</time></trkpt><trkpt lat="45.434188869397126" lon="7.9980258048708075"><ele>233.0</ele><time>2026-04-05T16:25:20.991Z</time></trkpt><trkpt lat="45.43442668992132" lon="7.9979960367493605"><ele>233.0</ele><time>2026-04-05T16:25:21.991Z</time></trkpt><trkpt lat="45.434663514798956" lon="7.99796441992022"><ele>233.0</ele><time>2026-04-05T16:25:22.991Z</time></trkpt><trkpt lat="45.43489419259303" lon="7.997931443761402"><ele>233.0</ele><time>2026-04-05T16:25:23.991Z</time></trkpt><trkpt lat="45.43512313400157" lon="7.997900048976472"><ele>233.0</ele><time>2026-04-05T16:25:24.991Z</time></trkpt><trkpt lat="45.43534932069936" lon="7.997870725894822"><ele>233.0</ele><time>2026-04-05T16:25:25.991Z</time></trkpt><trkpt lat="45.43556983855867" lon="7.997841002292108"><ele>233.0</ele><time>2026-04-05T16:25:26.991Z</time></trkpt><trkpt lat="45.435785239419864" lon="7.997811550461319"><ele>233.0</ele><time>2026-04-05T16:25:27.991Z</time></trkpt><trkpt lat="45.435996777725414" lon="7.997785259308753"><ele>233.0</ele><time>2026-04-05T16:25:28.991Z</time></trkpt><trkpt lat="45.43620558716902" lon="7.997767516363221"><ele>233.0</ele><time>2026-04-05T16:25:29.991Z</time></trkpt><trkpt lat="45.4364157724399" lon="7.997764071302482"><ele>233.0</ele><time>2026-04-05T16:25:30.991Z</time></trkpt><trkpt lat="45.436627505419615" lon="7.997778370551612"><ele>233.0</ele><time>2026-04-05T16:25:31.991Z</time></trkpt><trkpt lat="45.436842396754834" lon="7.997810534739115"><ele>233.0</ele><time>2026-04-05T16:25:32.991Z</time></trkpt><trkpt lat="45.437057133997016" lon="7.997864202483141"><ele>233.33333333333334</ele><time>2026-04-05T16:25:33.991Z</time></trkpt><trkpt lat="45.437268603395374" lon="7.997940717025059"><ele>233.66666666666669</ele><time>2026-04-05T16:25:34.991Z</time></trkpt><trkpt lat="45.43747943993086" lon="7.99803731291488"><ele>234.0</ele><time>2026-04-05T16:25:35.991Z</time></trkpt><trkpt lat="45.43768934075636" lon="7.9981538296906685"><ele>234.0</ele><time>2026-04-05T16:25:36.991Z</time></trkpt><trkpt lat="45.43790293384199" lon="7.998262171526611"><ele>234.0</ele><time>2026-04-05T16:25:37.991Z</time></trkpt><trkpt lat="45.43811750661675" lon="7.998383930376598"><ele>233.0</ele><time>2026-04-05T16:25:38.991Z</time></trkpt><trkpt lat="45.438332954201876" lon="7.99850970695398"><ele>232.0</ele><time>2026-04-05T16:25:39.991Z</time></trkpt><trkpt lat="45.43854926276982" lon="7.9986373590900515"><ele>232.0</ele><time>2026-04-05T16:25:40.991Z</time></trkpt><trkpt lat="45.43876246779678" lon="7.9987638696020715"><ele>232.0</ele><time>2026-04-05T16:25:41.991Z</time></trkpt><trkpt lat="45.438975244889114" lon="7.998889090595197"><ele>232.5</ele><time>2026-04-05T16:25:42.991Z</time></trkpt><trkpt lat="45.43918559826946" lon="7.999012313484808"><ele>233.0</ele><time>2026-04-05T16:25:43.991Z</time></trkpt><trkpt lat="45.43939110153315" lon="7.999133253714797"><ele>233.0</ele><time>2026-04-05T16:25:44.991Z</time></trkpt><trkpt lat="45.43959075969084" lon="7.999251106685003"><ele>233.0</ele><time>2026-04-05T16:25:45.991Z</time></trkpt><trkpt lat="45.439786083597724" lon="7.999367340886761"><ele>233.0</ele><time>2026-04-05T16:25:46.991Z</time></trkpt><trkpt lat="45.4399749012808" lon="7.9994803237631285"><ele>233.0</ele><time>2026-04-05T16:25:47.991Z</time></trkpt><trkpt lat="45.440158251261366" lon="7.9995930556585115"><ele>233.0</ele><time>2026-04-05T16:25:48.991Z</time></trkpt><trkpt lat="45.4403420039408" lon="7.999704972495881"><ele>233.0</ele><time>2026-04-05T16:25:49.991Z</time></trkpt><trkpt lat="45.440524550247126" lon="7.9998139975550915"><ele>233.33333333333334</ele><time>2026-04-05T16:25:50.991Z</time></trkpt><trkpt lat="45.440703317332165" lon="7.9999210116655615"><ele>233.66666666666669</ele><time>2026-04-05T16:25:51.991Z</time></trkpt><trkpt lat="45.44088082397381" lon="8.000026158061758"><ele>234.0</ele><time>2026-04-05T16:25:52.991Z</time></trkpt><trkpt lat="45.44105680257696" lon="8.000129147905412"><ele>234.0</ele><time>2026-04-05T16:25:53.991Z</time></trkpt><trkpt lat="45.441230663818104" lon="8.00022942115872"><ele>234.0</ele><time>2026-04-05T16:25:54.991Z</time></trkpt><trkpt lat="45.441403527955195" lon="8.000324657906562"><ele>234.0</ele><time>2026-04-05T16:25:55.991Z</time></trkpt><trkpt lat="45.441576493345174" lon="8.000424569596557"><ele>234.33333333333331</ele><time>2026-04-05T16:25:56.991Z</time></trkpt><trkpt lat="45.44174988318906" lon="8.000524681233136"><ele>234.66666666666666</ele><time>2026-04-05T16:25:57.991Z</time></trkpt><trkpt lat="45.44192057009521" lon="8.00062895556893"><ele>235.0</ele><time>2026-04-05T16:25:58.991Z</time></trkpt><trkpt lat="45.44209181653533" lon="8.000736798068809"><ele>234.66666666666666</ele><time>2026-04-05T16:25:59.991Z</time></trkpt><trkpt lat="45.44226065620171" lon="8.00084990851181"><ele>234.33333333333331</ele><time>2026-04-05T16:26:00.991Z</time></trkpt><trkpt lat="45.442421980411126" lon="8.00096647418175"><ele>234.0</ele><time>2026-04-05T16:26:01.991Z</time></trkpt><trkpt lat="45.44257435905979" lon="8.001078977996348"><ele>234.0</ele><time>2026-04-05T16:26:02.991Z</time></trkpt><trkpt lat="45.442717184896416" lon="8.001182576545318"><ele>234.0</ele><time>2026-04-05T16:26:03.991Z</time></trkpt><trkpt lat="45.44285498281459" lon="8.001280651567951"><ele>234.0</ele><time>2026-04-05T16:26:04.991Z</time></trkpt><trkpt lat="45.442983621852164" lon="8.001376026991815"><ele>234.25</ele><time>2026-04-05T16:26:05.991Z</time></trkpt><trkpt lat="45.44310073462755" lon="8.001462065022132"><ele>234.5</ele><time>2026-04-05T16:26:06.991Z</time></trkpt><trkpt lat="45.443209624259566" lon="8.00154322531652"><ele>234.75</ele><time>2026-04-05T16:26:07.991Z</time></trkpt><trkpt lat="45.44330935989685" lon="8.001611142077664"><ele>235.0</ele><time>2026-04-05T16:26:08.991Z</time></trkpt><trkpt lat="45.44340148358178" lon="8.001679582945462"><ele>235.16666666666666</ele><time>2026-04-05T16:26:09.991Z</time></trkpt><trkpt lat="45.4434900920198" lon="8.001746896660947"><ele>235.33333333333331</ele><time>2026-04-05T16:26:10.991Z</time></trkpt><trkpt lat="45.44357087569331" lon="8.001799766063794"><ele>235.5</ele><time>2026-04-05T16:26:11.991Z</time></trkpt><trkpt lat="45.44363492455057" lon="8.001845206228385"><ele>235.66666666666669</ele><time>2026-04-05T16:26:12.991Z</time></trkpt><trkpt lat="45.443707081923364" lon="8.001892923225466"><ele>235.83333333333334</ele><time>2026-04-05T16:26:14.991Z</time></trkpt><trkpt lat="45.44377722789501" lon="8.001952695119398"><ele>236.0</ele><time>2026-04-05T16:26:39.991Z</time></trkpt><trkpt lat="45.443813252085405" lon="8.002052721244928"><ele>236.00000000000003</ele><time>2026-04-05T16:26:41.991Z</time></trkpt><trkpt lat="45.44377220839787" lon="8.002173012163752"><ele>236.0</ele><time>2026-04-05T16:26:43.991Z</time></trkpt><trkpt lat="45.443710456691406" lon="8.002219824246648"><ele>236.0</ele><time>2026-04-05T16:26:44.991Z</time></trkpt><trkpt lat="45.443663804995445" lon="8.00231123877004"><ele>236.0</ele><time>2026-04-05T16:26:45.991Z</time></trkpt><trkpt lat="45.44360970554745" lon="8.002417247287108"><ele>236.00000000000003</ele><time>2026-04-05T16:26:46.991Z</time></trkpt><trkpt lat="45.443546809808595" lon="8.002540492278348"><ele>236.0</ele><time>2026-04-05T16:26:47.991Z</time></trkpt><trkpt lat="45.44347517411132" lon="8.00268086324524"><ele>236.0</ele><time>2026-04-05T16:26:48.991Z</time></trkpt><trkpt lat="45.443409555101965" lon="8.00284515420929"><ele>236.0</ele><time>2026-04-05T16:26:49.991Z</time></trkpt><trkpt lat="45.44332055635319" lon="8.002989040792462"><ele>236.0</ele><time>2026-04-05T16:26:50.991Z</time></trkpt><trkpt lat="45.4432447803326" lon="8.00313606385728"><ele>236.0</ele><time>2026-04-05T16:26:51.991Z</time></trkpt><trkpt lat="45.44316401233087" lon="8.003289688604092"><ele>236.0</ele><time>2026-04-05T16:26:52.991Z</time></trkpt><trkpt lat="45.44308016932346" lon="8.00344538538817"><ele>236.0</ele><time>2026-04-05T16:26:53.991Z</time></trkpt><trkpt lat="45.44299186858173" lon="8.003612630393778"><ele>236.0</ele><time>2026-04-05T16:26:54.991Z</time></trkpt><trkpt lat="45.44290310126177" lon="8.00378237718164"><ele>236.0</ele><time>2026-04-05T16:26:55.991Z</time></trkpt><trkpt lat="45.44280775901755" lon="8.00395591968807"><ele>236.0</ele><time>2026-04-05T16:26:56.991Z</time></trkpt><trkpt lat="45.44271192901612" lon="8.004138792142161"><ele>236.0</ele><time>2026-04-05T16:26:57.991Z</time></trkpt><trkpt lat="45.44261634389636" lon="8.004338495937843"><ele>236.0</ele><time>2026-04-05T16:26:58.991Z</time></trkpt><trkpt lat="45.442516121435276" lon="8.004541372996208"><ele>236.0</ele><time>2026-04-05T16:26:59.991Z</time></trkpt><trkpt lat="45.44240877336879" lon="8.004754268384819"><ele>236.0</ele><time>2026-04-05T16:27:00.99Z</time></trkpt><trkpt lat="45.44230379723288" lon="8.004964641999264"><ele>236.0</ele><time>2026-04-05T16:27:01.99Z</time></trkpt><trkpt lat="45.442198624153875" lon="8.005173831616986"><ele>236.0</ele><time>2026-04-05T16:27:02.99Z</time></trkpt><trkpt lat="45.4420910485497" lon="8.005389473485083"><ele>236.0</ele><time>2026-04-05T16:27:03.99Z</time></trkpt><trkpt lat="45.44198423250436" lon="8.005610607843504"><ele>236.0</ele><time>2026-04-05T16:27:04.99Z</time></trkpt><trkpt lat="45.44187324843589" lon="8.005839139822024"><ele>236.0</ele><time>2026-04-05T16:27:05.99Z</time></trkpt><trkpt lat="45.441764043971034" lon="8.006064175472751"><ele>236.0</ele><time>2026-04-05T16:27:06.99Z</time></trkpt><trkpt lat="45.44165834383881" lon="8.006285154063486"><ele>236.0</ele><time>2026-04-05T16:27:07.99Z</time></trkpt><trkpt lat="45.441548405045204" lon="8.006510657110166"><ele>236.0</ele><time>2026-04-05T16:27:08.99Z</time></trkpt><trkpt lat="45.4414336553656" lon="8.006737040250375"><ele>236.0</ele><time>2026-04-05T16:27:09.99Z</time></trkpt><trkpt lat="45.441318097200146" lon="8.006966320231115"><ele>236.0</ele><time>2026-04-05T16:27:10.99Z</time></trkpt><trkpt lat="45.44120003617327" lon="8.007202337001557"><ele>235.66666666666669</ele><time>2026-04-05T16:27:11.99Z</time></trkpt><trkpt lat="45.44108167305356" lon="8.007436633781024"><ele>235.33333333333331</ele><time>2026-04-05T16:27:12.99Z</time></trkpt><trkpt lat="45.44096251876546" lon="8.007674439203628"><ele>235.0</ele><time>2026-04-05T16:27:13.99Z</time></trkpt><trkpt lat="45.440842251413805" lon="8.00791635332535"><ele>235.0</ele><time>2026-04-05T16:27:14.99Z</time></trkpt><trkpt lat="45.44072160549752" lon="8.008159170824406"><ele>235.0</ele><time>2026-04-05T16:27:15.99Z</time></trkpt><trkpt lat="45.44060201860912" lon="8.008406722276227"><ele>235.0</ele><time>2026-04-05T16:27:16.99Z</time></trkpt><trkpt lat="45.44048133485924" lon="8.008653653841781"><ele>234.66666666666666</ele><time>2026-04-05T16:27:17.99Z</time></trkpt><trkpt lat="45.440359350425375" lon="8.008900624454377"><ele>234.33333333333331</ele><time>2026-04-05T16:27:18.99Z</time></trkpt><trkpt lat="45.44023484037333" lon="8.009149986048044"><ele>234.0</ele><time>2026-04-05T16:27:19.99Z</time></trkpt><trkpt lat="45.44009896432081" lon="8.00938213941595"><ele>234.66666666666669</ele><time>2026-04-05T16:27:20.99Z</time></trkpt><trkpt lat="45.439980141567766" lon="8.009617385621539"><ele>235.33333333333334</ele><time>2026-04-05T16:27:21.99Z</time></trkpt><trkpt lat="45.43986259383065" lon="8.009850107585157"><ele>236.0</ele><time>2026-04-05T16:27:22.99Z</time></trkpt><trkpt lat="45.43974350908263" lon="8.01008587247118"><ele>235.66666666666669</ele><time>2026-04-05T16:27:23.99Z</time></trkpt><trkpt lat="45.4396238250369" lon="8.010322823887122"><ele>235.33333333333331</ele><time>2026-04-05T16:27:24.99Z</time></trkpt><trkpt lat="45.43950306729576" lon="8.010562738494581"><ele>235.0</ele><time>2026-04-05T16:27:25.99Z</time></trkpt><trkpt lat="45.43938243052617" lon="8.01080323335782"><ele>234.66666666666666</ele><time>2026-04-05T16:27:26.99Z</time></trkpt><trkpt lat="45.43927282360008" lon="8.01105936122073"><ele>234.33333333333331</ele><time>2026-04-05T16:27:27.99Z</time></trkpt><trkpt lat="45.43914755367632" lon="8.011304591796762"><ele>234.0</ele><time>2026-04-05T16:27:28.99Z</time></trkpt><trkpt lat="45.43900168464466" lon="8.01153344997407"><ele>233.33333333333331</ele><time>2026-04-05T16:27:29.99Z</time></trkpt><trkpt lat="45.43887881415486" lon="8.011781188932677"><ele>232.66666666666666</ele><time>2026-04-05T16:27:30.99Z</time></trkpt><trkpt lat="45.438756092108335" lon="8.012032120406364"><ele>232.0</ele><time>2026-04-05T16:27:31.99Z</time></trkpt><trkpt lat="45.438633423404795" lon="8.012282354972827"><ele>232.33333333333331</ele><time>2026-04-05T16:27:32.99Z</time></trkpt><trkpt lat="45.43851170262824" lon="8.012531065218775"><ele>232.66666666666669</ele><time>2026-04-05T16:27:33.99Z</time></trkpt><trkpt lat="45.43839268470184" lon="8.012782692917119"><ele>233.0</ele><time>2026-04-05T16:27:34.99Z</time></trkpt><trkpt lat="45.43826945782753" lon="8.013029086317713"><ele>233.0</ele><time>2026-04-05T16:27:35.99Z</time></trkpt><trkpt lat="45.43814578718561" lon="8.013277390789192"><ele>233.0</ele><time>2026-04-05T16:27:36.99Z</time></trkpt><trkpt lat="45.438022192736504" lon="8.01352125204702"><ele>233.0</ele><time>2026-04-05T16:27:37.99Z</time></trkpt><trkpt lat="45.437901011881735" lon="8.013769731129491"><ele>233.0</ele><time>2026-04-05T16:27:38.99Z</time></trkpt><trkpt lat="45.43777676357533" lon="8.01401780325756"><ele>233.0</ele><time>2026-04-05T16:27:39.99Z</time></trkpt><trkpt lat="45.43765046086134" lon="8.01426150325769"><ele>233.0</ele><time>2026-04-05T16:27:40.99Z</time></trkpt><trkpt lat="45.43752290941588" lon="8.014506544362819"><ele>233.33333333333334</ele><time>2026-04-05T16:27:41.99Z</time></trkpt><trkpt lat="45.43739814409962" lon="8.014753619352069"><ele>233.66666666666669</ele><time>2026-04-05T16:27:42.99Z</time></trkpt><trkpt lat="45.43727631168413" lon="8.015000687439116"><ele>234.0</ele><time>2026-04-05T16:27:43.99Z</time></trkpt><trkpt lat="45.437153681740526" lon="8.015245513084594"><ele>233.66666666666669</ele><time>2026-04-05T16:27:44.99Z</time></trkpt><trkpt lat="45.43703046337526" lon="8.015491438674621"><ele>233.33333333333334</ele><time>2026-04-05T16:27:45.99Z</time></trkpt><trkpt lat="45.43690645287028" lon="8.015739170407512"><ele>233.0</ele><time>2026-04-05T16:27:46.99Z</time></trkpt><trkpt lat="45.43678371481852" lon="8.01598805940491"><ele>233.0</ele><time>2026-04-05T16:27:47.99Z</time></trkpt><trkpt lat="45.436663962418535" lon="8.016234270997918"><ele>233.0</ele><time>2026-04-05T16:27:48.99Z</time></trkpt><trkpt lat="45.43654271364461" lon="8.01647876659033"><ele>233.0</ele><time>2026-04-05T16:27:49.99Z</time></trkpt><trkpt lat="45.43641918779509" lon="8.016724226097592"><ele>233.0</ele><time>2026-04-05T16:27:50.99Z</time></trkpt><trkpt lat="45.43629498047333" lon="8.016968013829656"><ele>233.0</ele><time>2026-04-05T16:27:51.99Z</time></trkpt><trkpt lat="45.436170380327354" lon="8.017209637653487"><ele>233.0</ele><time>2026-04-05T16:27:52.99Z</time></trkpt><trkpt lat="45.436046050902604" lon="8.017454164125517"><ele>232.66666666666669</ele><time>2026-04-05T16:27:53.99Z</time></trkpt><trkpt lat="45.43592377039679" lon="8.017702083447634"><ele>232.33333333333331</ele><time>2026-04-05T16:27:54.99Z</time></trkpt><trkpt lat="45.435802343386136" lon="8.017949545208685"><ele>232.0</ele><time>2026-04-05T16:27:55.99Z</time></trkpt><trkpt lat="45.43567928138571" lon="8.018196232847684"><ele>232.0</ele><time>2026-04-05T16:27:56.99Z</time></trkpt><trkpt lat="45.43555664197435" lon="8.0184403870348"><ele>232.0</ele><time>2026-04-05T16:27:57.99Z</time></trkpt><trkpt lat="45.435432963924136" lon="8.0186843545532"><ele>232.0</ele><time>2026-04-05T16:27:58.99Z</time></trkpt><trkpt lat="45.435310120105825" lon="8.018927623746272"><ele>233.0</ele><time>2026-04-05T16:27:59.99Z</time></trkpt><trkpt lat="45.43518563382471" lon="8.0191702034947"><ele>234.0</ele><time>2026-04-05T16:28:00.99Z</time></trkpt><trkpt lat="45.43506388633406" lon="8.019412006001254"><ele>235.0</ele><time>2026-04-05T16:28:01.99Z</time></trkpt><trkpt lat="45.43494262283212" lon="8.019649486450444"><ele>235.0</ele><time>2026-04-05T16:28:02.99Z</time></trkpt><trkpt lat="45.434822984929674" lon="8.019886522927152"><ele>235.0</ele><time>2026-04-05T16:28:03.99Z</time></trkpt><trkpt lat="45.43470572749732" lon="8.020122198098298"><ele>235.0</ele><time>2026-04-05T16:28:04.99Z</time></trkpt><trkpt lat="45.434589612813205" lon="8.020355281347786"><ele>234.0</ele><time>2026-04-05T16:28:05.99Z</time></trkpt><trkpt lat="45.4344732351661" lon="8.02058423387501"><ele>233.0</ele><time>2026-04-05T16:28:06.99Z</time></trkpt><trkpt lat="45.434356250554416" lon="8.020812228839183"><ele>232.0</ele><time>2026-04-05T16:28:07.99Z</time></trkpt><trkpt lat="45.434240930884584" lon="8.021041283012963"><ele>232.0</ele><time>2026-04-05T16:28:08.99Z</time></trkpt><trkpt lat="45.43412685313369" lon="8.021267199599473"><ele>232.0</ele><time>2026-04-05T16:28:09.99Z</time></trkpt><trkpt lat="45.43401342768271" lon="8.021494083701612"><ele>232.0</ele><time>2026-04-05T16:28:10.99Z</time></trkpt><trkpt lat="45.43389982321126" lon="8.021723055759598"><ele>232.0</ele><time>2026-04-05T16:28:11.99Z</time></trkpt><trkpt lat="45.433785539333854" lon="8.021952540774262"><ele>232.0</ele><time>2026-04-05T16:28:12.99Z</time></trkpt><trkpt lat="45.43366939250972" lon="8.02218380049895"><ele>232.0</ele><time>2026-04-05T16:28:13.99Z</time></trkpt><trkpt lat="45.43355388364588" lon="8.022410657665993"><ele>232.66666666666666</ele><time>2026-04-05T16:28:14.99Z</time></trkpt><trkpt lat="45.433440569839384" lon="8.022641037855468"><ele>233.33333333333331</ele><time>2026-04-05T16:28:15.99Z</time></trkpt><trkpt lat="45.43332477812359" lon="8.022868609281359"><ele>234.0</ele><time>2026-04-05T16:28:16.99Z</time></trkpt><trkpt lat="45.43320899539134" lon="8.023094801781172"><ele>233.66666666666669</ele><time>2026-04-05T16:28:17.99Z</time></trkpt><trkpt lat="45.4330968844114" lon="8.023325673552193"><ele>233.33333333333334</ele><time>2026-04-05T16:28:18.99Z</time></trkpt><trkpt lat="45.432983098116004" lon="8.023556540637085"><ele>233.0</ele><time>2026-04-05T16:28:19.99Z</time></trkpt><trkpt lat="45.43286715328244" lon="8.023785158101342"><ele>233.0</ele><time>2026-04-05T16:28:20.99Z</time></trkpt><trkpt lat="45.43275129526974" lon="8.024015266361365"><ele>233.0</ele><time>2026-04-05T16:28:21.99Z</time></trkpt><trkpt lat="45.43263628339747" lon="8.024246880740886"><ele>233.0</ele><time>2026-04-05T16:28:22.99Z</time></trkpt><trkpt lat="45.43252010486685" lon="8.024478892597466"><ele>233.0</ele><time>2026-04-05T16:28:23.99Z</time></trkpt><trkpt lat="45.43239932576497" lon="8.024704124452882"><ele>233.0</ele><time>2026-04-05T16:28:24.99Z</time></trkpt><trkpt lat="45.43227239020547" lon="8.024925436568477"><ele>233.0</ele><time>2026-04-05T16:28:25.99Z</time></trkpt><trkpt lat="45.4321358295351" lon="8.025132885026961"><ele>233.66666666666669</ele><time>2026-04-05T16:28:26.99Z</time></trkpt><trkpt lat="45.43199338210928" lon="8.025329681060843"><ele>234.33333333333331</ele><time>2026-04-05T16:28:27.99Z</time></trkpt><trkpt lat="45.431846862278164" lon="8.025520344113271"><ele>235.0</ele><time>2026-04-05T16:28:28.99Z</time></trkpt><trkpt lat="45.43169774695079" lon="8.025708393285619"><ele>235.66666666666666</ele><time>2026-04-05T16:28:29.99Z</time></trkpt><trkpt lat="45.43155275271391" lon="8.02589648228083"><ele>236.33333333333331</ele><time>2026-04-05T16:28:30.99Z</time></trkpt><trkpt lat="45.43140931637688" lon="8.02608027298433"><ele>237.0</ele><time>2026-04-05T16:28:31.99Z</time></trkpt><trkpt lat="45.43127414689545" lon="8.026273301243243"><ele>236.0</ele><time>2026-04-05T16:28:32.99Z</time></trkpt><trkpt lat="45.43115136773862" lon="8.026477096199777"><ele>235.0</ele><time>2026-04-05T16:28:33.99Z</time></trkpt><trkpt lat="45.431052202070674" lon="8.026690733356762"><ele>234.0</ele><time>2026-04-05T16:28:34.99Z</time></trkpt><trkpt lat="45.4309688481331" lon="8.026911323745656"><ele>234.0</ele><time>2026-04-05T16:28:35.99Z</time></trkpt><trkpt lat="45.430908198574265" lon="8.027141497753128"><ele>234.0</ele><time>2026-04-05T16:28:36.99Z</time></trkpt><trkpt lat="45.4308731224487" lon="8.02737416661365"><ele>234.0</ele><time>2026-04-05T16:28:37.99Z</time></trkpt><trkpt lat="45.430848032665764" lon="8.027605188809993"><ele>235.0</ele><time>2026-04-05T16:28:38.99Z</time></trkpt><trkpt lat="45.43084136098504" lon="8.027832913840658"><ele>236.0</ele><time>2026-04-05T16:28:39.99Z</time></trkpt><trkpt lat="45.430850221824585" lon="8.02805833130672"><ele>237.0</ele><time>2026-04-05T16:28:40.99Z</time></trkpt><trkpt lat="45.430876975094996" lon="8.02827457055879"><ele>236.75</ele><time>2026-04-05T16:28:41.99Z</time></trkpt><trkpt lat="45.43091644862923" lon="8.02848176913692"><ele>236.5</ele><time>2026-04-05T16:28:42.99Z</time></trkpt><trkpt lat="45.43096646867686" lon="8.028677178388392"><ele>236.25</ele><time>2026-04-05T16:28:43.99Z</time></trkpt><trkpt lat="45.43102143423477" lon="8.028862929593416"><ele>236.0</ele><time>2026-04-05T16:28:44.99Z</time></trkpt><trkpt lat="45.431076595767834" lon="8.029038596863137"><ele>236.0</ele><time>2026-04-05T16:28:45.99Z</time></trkpt><trkpt lat="45.43113082938793" lon="8.029205946868124"><ele>236.0</ele><time>2026-04-05T16:28:46.99Z</time></trkpt><trkpt lat="45.43118179538366" lon="8.029371898905117"><ele>236.0</ele><time>2026-04-05T16:28:47.99Z</time></trkpt><trkpt lat="45.431229628405575" lon="8.029534333531933"><ele>236.0</ele><time>2026-04-05T16:28:48.99Z</time></trkpt><trkpt lat="45.43127672010628" lon="8.029697699357286"><ele>236.5</ele><time>2026-04-05T16:28:49.989Z</time></trkpt><trkpt lat="45.43132669424904" lon="8.029860777161975"><ele>237.0</ele><time>2026-04-05T16:28:50.989Z</time></trkpt><trkpt lat="45.43138167588101" lon="8.03002711653212"><ele>237.5</ele><time>2026-04-05T16:28:51.989Z</time></trkpt><trkpt lat="45.43143526644113" lon="8.030196071208815"><ele>238.0</ele><time>2026-04-05T16:28:52.989Z</time></trkpt><trkpt lat="45.431486443790305" lon="8.03037034372782"><ele>238.0</ele><time>2026-04-05T16:28:53.989Z</time></trkpt><trkpt lat="45.43154227189971" lon="8.030544831333806"><ele>238.0</ele><time>2026-04-05T16:28:54.989Z</time></trkpt><trkpt lat="45.431599399413756" lon="8.030721013922259"><ele>238.0</ele><time>2026-04-05T16:28:55.989Z</time></trkpt><trkpt lat="45.43165278107672" lon="8.030894790519765"><ele>238.0</ele><time>2026-04-05T16:28:56.989Z</time></trkpt><trkpt lat="45.43170699276508" lon="8.031063408811708"><ele>237.5</ele><time>2026-04-05T16:28:57.989Z</time></trkpt><trkpt lat="45.43176228772907" lon="8.03123288558311"><ele>237.0</ele><time>2026-04-05T16:28:58.989Z</time></trkpt><trkpt lat="45.431814694706965" lon="8.031402670238396"><ele>236.5</ele><time>2026-04-05T16:28:59.989Z</time></trkpt><trkpt lat="45.43186697628085" lon="8.031577449728083"><ele>236.0</ele><time>2026-04-05T16:29:00.989Z</time></trkpt><trkpt lat="45.431921247797696" lon="8.031759302375113"><ele>235.75</ele><time>2026-04-05T16:29:01.989Z</time></trkpt><trkpt lat="45.43197603441046" lon="8.031943367425532"><ele>235.5</ele><time>2026-04-05T16:29:02.989Z</time></trkpt><trkpt lat="45.43203317504813" lon="8.03212711400561"><ele>235.25</ele><time>2026-04-05T16:29:03.989Z</time></trkpt><trkpt lat="45.432090952033995" lon="8.03231348363158"><ele>235.0</ele><time>2026-04-05T16:29:04.989Z</time></trkpt><trkpt lat="45.43215553310076" lon="8.032497629172276"><ele>236.75</ele><time>2026-04-05T16:29:05.989Z</time></trkpt><trkpt lat="45.43221810711837" lon="8.032683450962145"><ele>238.5</ele><time>2026-04-05T16:29:06.989Z</time></trkpt><trkpt lat="45.432275742614415" lon="8.032871408387209"><ele>240.25</ele><time>2026-04-05T16:29:07.989Z</time></trkpt><trkpt lat="45.43233400526333" lon="8.033057424990908"><ele>242.0</ele><time>2026-04-05T16:29:08.989Z</time></trkpt><trkpt lat="45.43238876758711" lon="8.033245070171088"><ele>241.5</ele><time>2026-04-05T16:29:09.989Z</time></trkpt><trkpt lat="45.43244377263289" lon="8.033432138547274"><ele>241.0</ele><time>2026-04-05T16:29:10.989Z</time></trkpt><trkpt lat="45.432496014138096" lon="8.03362185614523"><ele>240.5</ele><time>2026-04-05T16:29:11.989Z</time></trkpt><trkpt lat="45.43254085177714" lon="8.033811740949783"><ele>240.0</ele><time>2026-04-05T16:29:12.989Z</time></trkpt><trkpt lat="45.43257684526035" lon="8.034008105097673"><ele>240.5</ele><time>2026-04-05T16:29:13.989Z</time></trkpt><trkpt lat="45.43260270587767" lon="8.034207914207625"><ele>241.0</ele><time>2026-04-05T16:29:14.989Z</time></trkpt><trkpt lat="45.43262247361637" lon="8.03441187357409"><ele>241.5</ele><time>2026-04-05T16:29:15.989Z</time></trkpt><trkpt lat="45.43263260813402" lon="8.034618704265862"><ele>242.0</ele><time>2026-04-05T16:29:16.989Z</time></trkpt><trkpt lat="45.43263223148858" lon="8.034826615507727"><ele>242.25</ele><time>2026-04-05T16:29:17.989Z</time></trkpt><trkpt lat="45.432625099106914" lon="8.03503511172259"><ele>242.5</ele><time>2026-04-05T16:29:18.989Z</time></trkpt><trkpt lat="45.43260812360572" lon="8.03524457418762"><ele>242.75</ele><time>2026-04-05T16:29:19.989Z</time></trkpt><trkpt lat="45.43258055303438" lon="8.035454119382972"><ele>243.0</ele><time>2026-04-05T16:29:20.989Z</time></trkpt><trkpt lat="45.43253645466218" lon="8.035661048218842"><ele>243.33333333333331</ele><time>2026-04-05T16:29:21.989Z</time></trkpt><trkpt lat="45.432486850187004" lon="8.035867398190474"><ele>243.66666666666666</ele><time>2026-04-05T16:29:22.989Z</time></trkpt><trkpt lat="45.43242362370318" lon="8.036068204433784"><ele>244.0</ele><time>2026-04-05T16:29:23.989Z</time></trkpt><trkpt lat="45.432348013489246" lon="8.03626488484453"><ele>244.0</ele><time>2026-04-05T16:29:24.989Z</time></trkpt><trkpt lat="45.43226384932785" lon="8.036462571924636"><ele>244.0</ele><time>2026-04-05T16:29:25.989Z</time></trkpt><trkpt lat="45.432173847580174" lon="8.036655276918284"><ele>244.0</ele><time>2026-04-05T16:29:26.989Z</time></trkpt><trkpt lat="45.43207411141808" lon="8.036843193099031"><ele>243.0</ele><time>2026-04-05T16:29:27.989Z</time></trkpt><trkpt lat="45.4319699650717" lon="8.037028111013782"><ele>242.0</ele><time>2026-04-05T16:29:28.989Z</time></trkpt><trkpt lat="45.431862947554826" lon="8.037213978306012"><ele>241.0</ele><time>2026-04-05T16:29:29.989Z</time></trkpt><trkpt lat="45.4317539289549" lon="8.037401726000926"><ele>242.33333333333331</ele><time>2026-04-05T16:29:30.989Z</time></trkpt><trkpt lat="45.4316433565055" lon="8.037591428443557"><ele>243.66666666666669</ele><time>2026-04-05T16:29:31.989Z</time></trkpt><trkpt lat="45.43153221184925" lon="8.03778982803237"><ele>245.0</ele><time>2026-04-05T16:29:33.011Z</time></trkpt><trkpt lat="45.431420876431524" lon="8.037983192088758"><ele>245.0</ele><time>2026-04-05T16:29:34.011Z</time></trkpt><trkpt lat="45.43131458527498" lon="8.038179751686883"><ele>245.0</ele><time>2026-04-05T16:29:35.011Z</time></trkpt><trkpt lat="45.431215446174264" lon="8.03838334701345"><ele>245.0</ele><time>2026-04-05T16:29:36.011Z</time></trkpt><trkpt lat="45.431125035617065" lon="8.038593078811271"><ele>244.0</ele><time>2026-04-05T16:29:37.011Z</time></trkpt><trkpt lat="45.43103323891194" lon="8.038804927320474"><ele>243.0</ele><time>2026-04-05T16:29:38.011Z</time></trkpt><trkpt lat="45.430960114821616" lon="8.03903130446037"><ele>242.0</ele><time>2026-04-05T16:29:39.011Z</time></trkpt><trkpt lat="45.43089690515674" lon="8.03926677522361"><ele>242.0</ele><time>2026-04-05T16:29:40.011Z</time></trkpt><trkpt lat="45.43083817387413" lon="8.039507416118209"><ele>242.0</ele><time>2026-04-05T16:29:41.011Z</time></trkpt><trkpt lat="45.430796921463106" lon="8.039754802617823"><ele>242.0</ele><time>2026-04-05T16:29:42.011Z</time></trkpt><trkpt lat="45.43074093528513" lon="8.03998449349718"><ele>242.66666666666669</ele><time>2026-04-05T16:29:43.011Z</time></trkpt><trkpt lat="45.43068446955695" lon="8.040213797707953"><ele>243.33333333333331</ele><time>2026-04-05T16:29:44.011Z</time></trkpt><trkpt lat="45.43061072321771" lon="8.040435089113126"><ele>244.0</ele><time>2026-04-05T16:29:45.011Z</time></trkpt><trkpt lat="45.43054647962001" lon="8.040668872438857"><ele>245.33333333333331</ele><time>2026-04-05T16:29:46.011Z</time></trkpt><trkpt lat="45.43047670040844" lon="8.0409089949892"><ele>246.66666666666669</ele><time>2026-04-05T16:29:47.011Z</time></trkpt><trkpt lat="45.430399366290786" lon="8.041146607485105"><ele>248.0</ele><time>2026-04-05T16:29:48.011Z</time></trkpt><trkpt lat="45.43031452107549" lon="8.041384954313742"><ele>247.0</ele><time>2026-04-05T16:29:49.011Z</time></trkpt><trkpt lat="45.43022779965147" lon="8.041620889841116"><ele>246.0</ele><time>2026-04-05T16:29:50.011Z</time></trkpt><trkpt lat="45.43013865766332" lon="8.04185336474323"><ele>245.0</ele><time>2026-04-05T16:29:51.011Z</time></trkpt><trkpt lat="45.4300432426396" lon="8.042084329902691"><ele>245.0</ele><time>2026-04-05T16:29:52.011Z</time></trkpt><trkpt lat="45.429941843236925" lon="8.042303759224414"><ele>245.0</ele><time>2026-04-05T16:29:53.011Z</time></trkpt><trkpt lat="45.42983815546997" lon="8.042524320319405"><ele>245.0</ele><time>2026-04-05T16:29:54.011Z</time></trkpt><trkpt lat="45.42972790101612" lon="8.042740028421766"><ele>246.33333333333334</ele><time>2026-04-05T16:29:55.011Z</time></trkpt><trkpt lat="45.42961172191255" lon="8.042948809859002"><ele>247.66666666666669</ele><time>2026-04-05T16:29:56.011Z</time></trkpt><trkpt lat="45.42949266932988" lon="8.043147381250387"><ele>249.0</ele><time>2026-04-05T16:29:57.011Z</time></trkpt><trkpt lat="45.42936593220674" lon="8.043341333752458"><ele>249.0</ele><time>2026-04-05T16:29:58.011Z</time></trkpt><trkpt lat="45.42923344946694" lon="8.04353305269077"><ele>249.0</ele><time>2026-04-05T16:29:59.011Z</time></trkpt><trkpt lat="45.42910424919771" lon="8.043719191929114"><ele>249.0</ele><time>2026-04-05T16:30:00.011Z</time></trkpt><trkpt lat="45.42897528850884" lon="8.043902935271499"><ele>249.0</ele><time>2026-04-05T16:30:01.011Z</time></trkpt><trkpt lat="45.42883947919389" lon="8.04409014833077"><ele>249.0</ele><time>2026-04-05T16:30:02.011Z</time></trkpt><trkpt lat="45.42870002809444" lon="8.044266731985681"><ele>249.0</ele><time>2026-04-05T16:30:03.011Z</time></trkpt><trkpt lat="45.428561600654696" lon="8.04444478146496"><ele>248.0</ele><time>2026-04-05T16:30:04.011Z</time></trkpt><trkpt lat="45.42842557448313" lon="8.044626773454327"><ele>247.0</ele><time>2026-04-05T16:30:05.011Z</time></trkpt><trkpt lat="45.428277127501055" lon="8.0447914223117"><ele>246.0</ele><time>2026-04-05T16:30:06.011Z</time></trkpt><trkpt lat="45.428139069910436" lon="8.044960522117078"><ele>246.0</ele><time>2026-04-05T16:30:07.011Z</time></trkpt><trkpt lat="45.4280063165298" lon="8.045144166304125"><ele>246.0</ele><time>2026-04-05T16:30:08.011Z</time></trkpt><trkpt lat="45.42787831578488" lon="8.045322175367483"><ele>246.0</ele><time>2026-04-05T16:30:09.01Z</time></trkpt><trkpt lat="45.42774706908693" lon="8.045490734367878"><ele>246.0</ele><time>2026-04-05T16:30:10.01Z</time></trkpt><trkpt lat="45.42762232434044" lon="8.045661428285086"><ele>246.0</ele><time>2026-04-05T16:30:11.01Z</time></trkpt><trkpt lat="45.42749875796264" lon="8.045825417698508"><ele>246.0</ele><time>2026-04-05T16:30:12.01Z</time></trkpt><trkpt lat="45.427383416342536" lon="8.0459979978405"><ele>247.0</ele><time>2026-04-05T16:30:13.01Z</time></trkpt><trkpt lat="45.427265263501866" lon="8.046163409298513"><ele>248.0</ele><time>2026-04-05T16:30:14.01Z</time></trkpt><trkpt lat="45.42715721445338" lon="8.04634326724818"><ele>249.0</ele><time>2026-04-05T16:30:15.01Z</time></trkpt><trkpt lat="45.427050937371234" lon="8.046523469037858"><ele>251.33333333333331</ele><time>2026-04-05T16:30:16.01Z</time></trkpt><trkpt lat="45.42693312738244" lon="8.046702448515749"><ele>253.66666666666666</ele><time>2026-04-05T16:30:17.01Z</time></trkpt><trkpt lat="45.42683003076699" lon="8.04689390457079"><ele>256.0</ele><time>2026-04-05T16:30:18.01Z</time></trkpt><trkpt lat="45.42672882192114" lon="8.047087443526557"><ele>256.0</ele><time>2026-04-05T16:30:19.012Z</time></trkpt><trkpt lat="45.426628136448095" lon="8.047282554694396"><ele>256.0</ele><time>2026-04-05T16:30:20.012Z</time></trkpt><trkpt lat="45.42652916698083" lon="8.047474340538114"><ele>256.0</ele><time>2026-04-05T16:30:21.012Z</time></trkpt><trkpt lat="45.42643013135468" lon="8.047666254584145"><ele>255.33333333333331</ele><time>2026-04-05T16:30:22.012Z</time></trkpt><trkpt lat="45.42632972920878" lon="8.047857635185325"><ele>254.66666666666669</ele><time>2026-04-05T16:30:23.012Z</time></trkpt><trkpt lat="45.42623363301209" lon="8.048040200048797"><ele>254.0</ele><time>2026-04-05T16:30:24.012Z</time></trkpt><trkpt lat="45.426142103258954" lon="8.048217188766486"><ele>256.25</ele><time>2026-04-05T16:30:25.012Z</time></trkpt><trkpt lat="45.42606726965348" lon="8.048400903572364"><ele>258.5</ele><time>2026-04-05T16:30:26.012Z</time></trkpt><trkpt lat="45.42597005473754" lon="8.04853978056398"><ele>260.75</ele><time>2026-04-05T16:30:27.012Z</time></trkpt><trkpt lat="45.42589840639981" lon="8.048698976522079"><ele>263.0</ele><time>2026-04-05T16:30:28.011Z</time></trkpt><trkpt lat="45.425801743830476" lon="8.048821808333312"><ele>263.0</ele><time>2026-04-05T16:30:29.012Z</time></trkpt><trkpt lat="45.425709628320654" lon="8.048945430196815"><ele>263.0</ele><time>2026-04-05T16:30:30.012Z</time></trkpt><trkpt lat="45.42561839902761" lon="8.049074254282385"><ele>263.0</ele><time>2026-04-05T16:30:31.012Z</time></trkpt><trkpt lat="45.42551731794021" lon="8.049192800342711"><ele>263.0</ele><time>2026-04-05T16:30:32.011Z</time></trkpt><trkpt lat="45.425413479987064" lon="8.049312786444629"><ele>262.5</ele><time>2026-04-05T16:30:33.011Z</time></trkpt><trkpt lat="45.42531104679982" lon="8.04944543556561"><ele>262.0</ele><time>2026-04-05T16:30:34.011Z</time></trkpt><trkpt lat="45.42520817521782" lon="8.049576822897823"><ele>261.5</ele><time>2026-04-05T16:30:35.011Z</time></trkpt><trkpt lat="45.425086184961756" lon="8.049677749081743"><ele>261.0</ele><time>2026-04-05T16:30:36.011Z</time></trkpt><trkpt lat="45.424972780303186" lon="8.049806881956561"><ele>261.0</ele><time>2026-04-05T16:30:37.011Z</time></trkpt><trkpt lat="45.42485442610131" lon="8.049931702315833"><ele>261.0</ele><time>2026-04-05T16:30:38.011Z</time></trkpt><trkpt lat="45.424737611678914" lon="8.050060288142134"><ele>261.0</ele><time>2026-04-05T16:30:39.011Z</time></trkpt><trkpt lat="45.42461776062847" lon="8.050183949152158"><ele>261.0</ele><time>2026-04-05T16:30:40.011Z</time></trkpt><trkpt lat="45.4244929811293" lon="8.05029645581626"><ele>261.75</ele><time>2026-04-05T16:30:41.011Z</time></trkpt><trkpt lat="45.42436478449072" lon="8.050401671759023"><ele>262.5</ele><time>2026-04-05T16:30:42.011Z</time></trkpt><trkpt lat="45.424234794336726" lon="8.050504056233532"><ele>263.25</ele><time>2026-04-05T16:30:43.011Z</time></trkpt><trkpt lat="45.424106548850034" lon="8.050601375938689"><ele>264.0</ele><time>2026-04-05T16:30:44.011Z</time></trkpt><trkpt lat="45.4239776139241" lon="8.050695310051786"><ele>264.0</ele><time>2026-04-05T16:30:45.011Z</time></trkpt><trkpt lat="45.42385072828781" lon="8.050784347733217"><ele>264.0</ele><time>2026-04-05T16:30:46.011Z</time></trkpt><trkpt lat="45.42372911766627" lon="8.050865164632247"><ele>264.0</ele><time>2026-04-05T16:30:47.011Z</time></trkpt><trkpt lat="45.4236102450338" lon="8.050945369995102"><ele>264.0</ele><time>2026-04-05T16:30:48.011Z</time></trkpt><trkpt lat="45.42349443100983" lon="8.05102168694827"><ele>264.75</ele><time>2026-04-05T16:30:49.011Z</time></trkpt><trkpt lat="45.42338315095806" lon="8.051099764605807"><ele>265.5</ele><time>2026-04-05T16:30:50.011Z</time></trkpt><trkpt lat="45.42327710699377" lon="8.051167824747328"><ele>266.25</ele><time>2026-04-05T16:30:51.011Z</time></trkpt><trkpt lat="45.42317393670971" lon="8.051233007229634"><ele>267.0</ele><time>2026-04-05T16:30:52.011Z</time></trkpt><trkpt lat="45.4230862530163" lon="8.051296585320836"><ele>267.0</ele><time>2026-04-05T16:30:53.011Z</time></trkpt><trkpt lat="45.42300263026427" lon="8.051358568842513"><ele>267.0</ele><time>2026-04-05T16:30:54.011Z</time></trkpt><trkpt lat="45.42292489384882" lon="8.051399813483284"><ele>267.0</ele><time>2026-04-05T16:30:55.011Z</time></trkpt><trkpt lat="45.42285398070438" lon="8.051452853246799"><ele>267.0</ele><time>2026-04-05T16:30:56.011Z</time></trkpt><trkpt lat="45.4227954776247" lon="8.051489769677762"><ele>267.0</ele><time>2026-04-05T16:30:57.011Z</time></trkpt><trkpt lat="45.42270069199648" lon="8.051558402409649"><ele>267.0</ele><time>2026-04-05T16:30:59.011Z</time></trkpt><trkpt lat="45.42264100141829" lon="8.051513088196778"><ele>267.0</ele><time>2026-04-05T16:31:01.011Z</time></trkpt><trkpt lat="45.422593998213934" lon="8.051413743340417"><ele>267.0</ele><time>2026-04-05T16:31:03.011Z</time></trkpt><trkpt lat="45.42254299117558" lon="8.05130310519513"><ele>267.0</ele><time>2026-04-05T16:31:05.011Z</time></trkpt><trkpt lat="45.42249644931783" lon="8.051195127234353"><ele>267.0</ele><time>2026-04-05T16:31:07.011Z</time></trkpt><trkpt lat="45.42244669647327" lon="8.051081308166916"><ele>267.0</ele><time>2026-04-05T16:31:09.011Z</time></trkpt><trkpt lat="45.42239222478141" lon="8.050949750838042"><ele>267.0</ele><time>2026-04-05T16:31:11.011Z</time></trkpt><trkpt lat="45.42232953121302" lon="8.050805697491725"><ele>267.0</ele><time>2026-04-05T16:31:13.011Z</time></trkpt><trkpt lat="45.42227315485517" lon="8.05065639274854"><ele>267.0</ele><time>2026-04-05T16:31:15.011Z</time></trkpt><trkpt lat="45.422242697988224" lon="8.050575863576565"><ele>267.0</ele><time>2026-04-05T16:31:16.011Z</time></trkpt><trkpt lat="45.42220448564594" lon="8.050502775737396"><ele>267.0</ele><time>2026-04-05T16:31:17.011Z</time></trkpt><trkpt lat="45.42217070824334" lon="8.050424566226338"><ele>267.0</ele><time>2026-04-05T16:31:18.011Z</time></trkpt><trkpt lat="45.42213746428615" lon="8.050342545551215"><ele>265.00000000000006</ele><time>2026-04-05T16:31:19.011Z</time></trkpt><trkpt lat="45.42210195743545" lon="8.050260689607263"><ele>263.0</ele><time>2026-04-05T16:31:20.011Z</time></trkpt><trkpt lat="45.42206488057023" lon="8.050181720060674"><ele>261.0</ele><time>2026-04-05T16:31:21.011Z</time></trkpt><trkpt lat="45.42203043785044" lon="8.050104972207176"><ele>259.0</ele><time>2026-04-05T16:31:22.011Z</time></trkpt><trkpt lat="45.421995857104754" lon="8.050026449636745"><ele>257.0</ele><time>2026-04-05T16:31:23.011Z</time></trkpt><trkpt lat="45.421961638304474" lon="8.04995095047261"><ele>255.00000000000003</ele><time>2026-04-05T16:31:24.011Z</time></trkpt><trkpt lat="45.42192701338756" lon="8.049872641111856"><ele>253.00000000000003</ele><time>2026-04-05T16:31:25.011Z</time></trkpt><trkpt lat="45.421893756852384" lon="8.049796186762386"><ele>251.83333333333331</ele><time>2026-04-05T16:31:26.011Z</time></trkpt><trkpt lat="45.42182688170055" lon="8.049649070351528"><ele>250.66666666666666</ele><time>2026-04-05T16:31:28.011Z</time></trkpt><trkpt lat="45.42177198071289" lon="8.04950524325722"><ele>249.5</ele><time>2026-04-05T16:31:30.011Z</time></trkpt><trkpt lat="45.42173540140084" lon="8.049431013643433"><ele>248.33333333333331</ele><time>2026-04-05T16:31:31.011Z</time></trkpt><trkpt lat="45.42170159022751" lon="8.049354366201985"><ele>247.16666666666666</ele><time>2026-04-05T16:31:32.011Z</time></trkpt><trkpt lat="45.421668491071465" lon="8.049271392567304"><ele>246.0</ele><time>2026-04-05T16:31:33.011Z</time></trkpt><trkpt lat="45.42163733174608" lon="8.049191945605095"><ele>245.42857142857144</ele><time>2026-04-05T16:31:34.011Z</time></trkpt><trkpt lat="45.421600118266724" lon="8.049112707499374"><ele>244.85714285714286</ele><time>2026-04-05T16:31:35.011Z</time></trkpt><trkpt lat="45.42156297635622" lon="8.049031130379355"><ele>244.28571428571428</ele><time>2026-04-05T16:31:36.011Z</time></trkpt><trkpt lat="45.42152382836378" lon="8.048945939920046"><ele>243.71428571428572</ele><time>2026-04-05T16:31:37.011Z</time></trkpt><trkpt lat="45.421488495520684" lon="8.04886329356628"><ele>243.1428571428571</ele><time>2026-04-05T16:31:38.011Z</time></trkpt><trkpt lat="45.42145481114027" lon="8.04877821478202"><ele>242.57142857142856</ele><time>2026-04-05T16:31:39.011Z</time></trkpt><trkpt lat="45.42142375721519" lon="8.048696472369805"><ele>242.0</ele><time>2026-04-05T16:31:40.011Z</time></trkpt><trkpt lat="45.42138871738335" lon="8.04861433495733"><ele>242.00000000000003</ele><time>2026-04-05T16:31:41.011Z</time></trkpt><trkpt lat="45.42135388722562" lon="8.048536935415266"><ele>242.0</ele><time>2026-04-05T16:31:42.011Z</time></trkpt><trkpt lat="45.4212822480049" lon="8.048388532994576"><ele>242.0</ele><time>2026-04-05T16:31:44.011Z</time></trkpt><trkpt lat="45.42124655650877" lon="8.04831322070727"><ele>242.0</ele><time>2026-04-05T16:31:45.011Z</time></trkpt><trkpt lat="45.42120816065582" lon="8.048231455127182"><ele>242.00000000000003</ele><time>2026-04-05T16:31:46.011Z</time></trkpt><trkpt lat="45.42117229878979" lon="8.048151427423186"><ele>242.0</ele><time>2026-04-05T16:31:47.011Z</time></trkpt><trkpt lat="45.421135375049595" lon="8.048066861334597"><ele>241.39999999999998</ele><time>2026-04-05T16:31:48.011Z</time></trkpt><trkpt lat="45.42109759551738" lon="8.047992285611379"><ele>240.79999999999998</ele><time>2026-04-05T16:31:49.011Z</time></trkpt><trkpt lat="45.42102396915273" lon="8.047850756752455"><ele>240.2</ele><time>2026-04-05T16:31:51.011Z</time></trkpt><trkpt lat="45.42095553114269" lon="8.047718551231402"><ele>239.6</ele><time>2026-04-05T16:31:53.011Z</time></trkpt><trkpt lat="45.42091084660464" lon="8.047572551793465"><ele>239.0</ele><time>2026-04-05T16:31:55.011Z</time></trkpt><trkpt lat="45.42085444444457" lon="8.047444720620216"><ele>238.2</ele><time>2026-04-05T16:31:57.011Z</time></trkpt><trkpt lat="45.42079290810825" lon="8.047334505550717"><ele>237.39999999999998</ele><time>2026-04-05T16:31:59.011Z</time></trkpt><trkpt lat="45.42074648911283" lon="8.047220458472516"><ele>236.6</ele><time>2026-04-05T16:32:01.011Z</time></trkpt><trkpt lat="45.42071592151513" lon="8.047120189826362"><ele>235.8</ele><time>2026-04-05T16:32:03.011Z</time></trkpt><trkpt lat="45.42072269983241" lon="8.046972224883715"><ele>235.0</ele><time>2026-04-05T16:32:06.011Z</time></trkpt><trkpt lat="45.420746962769854" lon="8.046863851606496"><ele>234.99999999999997</ele><time>2026-04-05T16:32:08.011Z</time></trkpt><trkpt lat="45.42081931135604" lon="8.046804681841046"><ele>235.0</ele><time>2026-04-05T16:32:10.011Z</time></trkpt><trkpt lat="45.42087863323016" lon="8.046736979668893"><ele>235.0</ele><time>2026-04-05T16:32:12.011Z</time></trkpt><trkpt lat="45.4209471939598" lon="8.046697793340716"><ele>235.0</ele><time>2026-04-05T16:32:14.011Z</time></trkpt><trkpt lat="45.42101287191255" lon="8.04664737032928"><ele>234.99999999999997</ele><time>2026-04-05T16:32:16.011Z</time></trkpt><trkpt lat="45.4210933422897" lon="8.046593960014812"><ele>235.0</ele><time>2026-04-05T16:32:18.011Z</time></trkpt><trkpt lat="45.42116662407507" lon="8.046539872568994"><ele>230.0</ele><time>2026-04-05T16:32:20.011Z</time></trkpt><trkpt lat="45.42123964502027" lon="8.0464773157884"><ele>230.0</ele><time>2026-04-05T16:32:22.01Z</time></trkpt><trkpt lat="45.42130828157789" lon="8.046418460730214"><ele>230.0</ele><time>2026-04-05T16:32:24.012Z</time></trkpt><trkpt lat="45.4213714583375" lon="8.046370227117462"><ele>231.0</ele><time>2026-04-05T16:32:26.013Z</time></trkpt><trkpt lat="45.42142416907165" lon="8.046317948621123"><ele>231.0</ele><time>2026-04-05T16:32:28.013Z</time></trkpt></trkseg><trkseg><trkpt lat="45.42086119226193" lon="8.047549050168348"><ele>239.00000000000003</ele><time>2026-04-05T17:01:31.996Z</time></trkpt><trkpt lat="45.42091331611768" lon="8.047627422452043"><ele>239.0</ele><time>2026-04-05T17:01:32.996Z</time></trkpt><trkpt lat="45.42094284242441" lon="8.047722062877993"><ele>239.0</ele><time>2026-04-05T17:01:33.996Z</time></trkpt><trkpt lat="45.42097933494285" lon="8.047804217156303"><ele>239.0</ele><time>2026-04-05T17:01:34.996Z</time></trkpt><trkpt lat="45.421022910084844" lon="8.047902923407335"><ele>239.00000000000003</ele><time>2026-04-05T17:01:35.996Z</time></trkpt><trkpt lat="45.42106503300581" lon="8.048001104946204"><ele>239.0</ele><time>2026-04-05T17:01:36.996Z</time></trkpt><trkpt lat="45.42110135730085" lon="8.048097970539336"><ele>239.00000000000003</ele><time>2026-04-05T17:01:37.996Z</time></trkpt><trkpt lat="45.421136664712265" lon="8.048180948716304"><ele>239.0</ele><time>2026-04-05T17:01:38.996Z</time></trkpt><trkpt lat="45.421176914321705" lon="8.048271260218753"><ele>239.00000000000003</ele><time>2026-04-05T17:01:39.996Z</time></trkpt><trkpt lat="45.421218217890335" lon="8.0483593027417"><ele>239.00000000000003</ele><time>2026-04-05T17:01:40.996Z</time></trkpt><trkpt lat="45.4212668605133" lon="8.048444651500745"><ele>239.0</ele><time>2026-04-05T17:01:41.996Z</time></trkpt><trkpt lat="45.421309480571104" lon="8.048536188876609"><ele>239.00000000000003</ele><time>2026-04-05T17:01:42.996Z</time></trkpt><trkpt lat="45.42133070406887" lon="8.04863517876341"><ele>239.00000000000003</ele><time>2026-04-05T17:01:43.996Z</time></trkpt><trkpt lat="45.42137365031981" lon="8.048722535832866"><ele>239.42857142857144</ele><time>2026-04-05T17:01:44.996Z</time></trkpt><trkpt lat="45.42141298545838" lon="8.0488142796861"><ele>239.85714285714286</ele><time>2026-04-05T17:01:45.996Z</time></trkpt><trkpt lat="45.42145154103875" lon="8.048903597938466"><ele>240.28571428571428</ele><time>2026-04-05T17:01:46.996Z</time></trkpt><trkpt lat="45.421490752352796" lon="8.048989582656757"><ele>240.71428571428572</ele><time>2026-04-05T17:01:47.996Z</time></trkpt><trkpt lat="45.42153150789982" lon="8.049076541838472"><ele>241.1428571428571</ele><time>2026-04-05T17:01:48.996Z</time></trkpt><trkpt lat="45.42157319240587" lon="8.049167477159754"><ele>241.57142857142856</ele><time>2026-04-05T17:01:49.996Z</time></trkpt><trkpt lat="45.4216107804058" lon="8.049254871100501"><ele>242.0</ele><time>2026-04-05T17:01:50.996Z</time></trkpt><trkpt lat="45.42164862031694" lon="8.049345678156195"><ele>242.57142857142856</ele><time>2026-04-05T17:01:51.996Z</time></trkpt><trkpt lat="45.42168510030435" lon="8.049433075598946"><ele>243.1428571428571</ele><time>2026-04-05T17:01:52.996Z</time></trkpt><trkpt lat="45.421724595930435" lon="8.049521258132957"><ele>243.71428571428572</ele><time>2026-04-05T17:01:53.996Z</time></trkpt><trkpt lat="45.421765629367826" lon="8.049606950852112"><ele>244.28571428571428</ele><time>2026-04-05T17:01:54.996Z</time></trkpt><trkpt lat="45.42180528256052" lon="8.049696154315777"><ele>244.85714285714286</ele><time>2026-04-05T17:01:55.996Z</time></trkpt><trkpt lat="45.421845054245246" lon="8.049789160645751"><ele>245.42857142857144</ele><time>2026-04-05T17:01:56.996Z</time></trkpt><trkpt lat="45.42188116780756" lon="8.049878818217778"><ele>246.00000000000003</ele><time>2026-04-05T17:01:57.995Z</time></trkpt><trkpt lat="45.42191786986265" lon="8.049964052585382"><ele>247.00000000000003</ele><time>2026-04-05T17:01:58.995Z</time></trkpt><trkpt lat="45.421956060064204" lon="8.050051262000514"><ele>248.0</ele><time>2026-04-05T17:01:59.995Z</time></trkpt><trkpt lat="45.42199339717406" lon="8.050136371952654"><ele>249.00000000000003</ele><time>2026-04-05T17:02:00.995Z</time></trkpt><trkpt lat="45.42202888020666" lon="8.050219302745425"><ele>250.00000000000003</ele><time>2026-04-05T17:02:01.995Z</time></trkpt><trkpt lat="45.422062950987716" lon="8.05030503626837"><ele>251.0</ele><time>2026-04-05T17:02:02.995Z</time></trkpt><trkpt lat="45.42210115596573" lon="8.050392180778852"><ele>252.00000000000003</ele><time>2026-04-05T17:02:03.995Z</time></trkpt><trkpt lat="45.42214004520226" lon="8.050478551781518"><ele>253.00000000000003</ele><time>2026-04-05T17:02:04.995Z</time></trkpt><trkpt lat="45.42218161801444" lon="8.050561110865846"><ele>253.8571428571429</ele><time>2026-04-05T17:02:05.995Z</time></trkpt><trkpt lat="45.42221726174866" lon="8.050646544458122"><ele>254.71428571428572</ele><time>2026-04-05T17:02:06.995Z</time></trkpt><trkpt lat="45.42226028603579" lon="8.05073269520515"><ele>255.57142857142858</ele><time>2026-04-05T17:02:07.995Z</time></trkpt><trkpt lat="45.42229906168166" lon="8.050817643506063"><ele>256.42857142857144</ele><time>2026-04-05T17:02:08.995Z</time></trkpt><trkpt lat="45.42233951195511" lon="8.050910417603301"><ele>257.2857142857143</ele><time>2026-04-05T17:02:09.995Z</time></trkpt><trkpt lat="45.422377082627825" lon="8.051002260321274"><ele>258.14285714285717</ele><time>2026-04-05T17:02:10.995Z</time></trkpt><trkpt lat="45.422424033942775" lon="8.05108822062154"><ele>259.0</ele><time>2026-04-05T17:02:11.995Z</time></trkpt><trkpt lat="45.42246586129714" lon="8.051177753803534"><ele>260.14285714285717</ele><time>2026-04-05T17:02:12.995Z</time></trkpt><trkpt lat="45.422501895436" lon="8.051262744592966"><ele>261.2857142857143</ele><time>2026-04-05T17:02:13.995Z</time></trkpt><trkpt lat="45.422535952859356" lon="8.051342453036812"><ele>262.42857142857144</ele><time>2026-04-05T17:02:14.995Z</time></trkpt><trkpt lat="45.42257173972269" lon="8.051422507633701"><ele>263.57142857142856</ele><time>2026-04-05T17:02:15.995Z</time></trkpt><trkpt lat="45.422607738295284" lon="8.051533501034164"><ele>264.7142857142857</ele><time>2026-04-05T17:02:17.995Z</time></trkpt><trkpt lat="45.42262684741491" lon="8.05163603682655"><ele>265.8571428571429</ele><time>2026-04-05T17:02:20.995Z</time></trkpt><trkpt lat="45.42256193681862" lon="8.051709467836462"><ele>267.0</ele><time>2026-04-05T17:02:21.995Z</time></trkpt><trkpt lat="45.42246468542742" lon="8.051832779235005"><ele>268.2</ele><time>2026-04-05T17:02:23.995Z</time></trkpt><trkpt lat="45.422407698619" lon="8.051918224127963"><ele>269.4</ele><time>2026-04-05T17:02:24.995Z</time></trkpt><trkpt lat="45.422351468317075" lon="8.052005955232977"><ele>270.6</ele><time>2026-04-05T17:02:25.995Z</time></trkpt><trkpt lat="45.42229695607642" lon="8.052110140752026"><ele>271.8</ele><time>2026-04-05T17:02:26.995Z</time></trkpt><trkpt lat="45.422243057718504" lon="8.052227969818963"><ele>273.0</ele><time>2026-04-05T17:02:27.995Z</time></trkpt><trkpt lat="45.422199669710764" lon="8.052374593097193"><ele>272.25</ele><time>2026-04-05T17:02:28.995Z</time></trkpt><trkpt lat="45.42215564579012" lon="8.052538046863873"><ele>271.5</ele><time>2026-04-05T17:02:29.995Z</time></trkpt><trkpt lat="45.42211682603795" lon="8.052712306736947"><ele>270.75</ele><time>2026-04-05T17:02:30.995Z</time></trkpt><trkpt lat="45.422084246701594" lon="8.052903653633775"><ele>270.0</ele><time>2026-04-05T17:02:31.995Z</time></trkpt><trkpt lat="45.42202070067539" lon="8.053073832006886"><ele>270.0</ele><time>2026-04-05T17:02:32.995Z</time></trkpt><trkpt lat="45.42198791753159" lon="8.053249836403877"><ele>270.0</ele><time>2026-04-05T17:02:33.995Z</time></trkpt><trkpt lat="45.42195524110202" lon="8.05343449153781"><ele>270.0</ele><time>2026-04-05T17:02:34.995Z</time></trkpt><trkpt lat="45.42192394351313" lon="8.053631053255947"><ele>270.0</ele><time>2026-04-05T17:02:35.995Z</time></trkpt><trkpt lat="45.42189035460277" lon="8.053834111506688"><ele>271.0</ele><time>2026-04-05T17:02:36.995Z</time></trkpt><trkpt lat="45.421839570388165" lon="8.05403439138579"><ele>272.0</ele><time>2026-04-05T17:02:37.995Z</time></trkpt><trkpt lat="45.42179994382117" lon="8.054249427797746"><ele>273.0</ele><time>2026-04-05T17:02:38.995Z</time></trkpt><trkpt lat="45.42175731827808" lon="8.054467397465377"><ele>274.3333333333333</ele><time>2026-04-05T17:02:39.995Z</time></trkpt><trkpt lat="45.42172316079896" lon="8.05468521936372"><ele>275.66666666666663</ele><time>2026-04-05T17:02:40.995Z</time></trkpt><trkpt lat="45.42169590849376" lon="8.05489056116125"><ele>277.0</ele><time>2026-04-05T17:02:41.995Z</time></trkpt><trkpt lat="45.42164171456418" lon="8.05510146360815"><ele>277.66666666666663</ele><time>2026-04-05T17:02:42.995Z</time></trkpt><trkpt lat="45.42160842923585" lon="8.055312876151472"><ele>278.3333333333333</ele><time>2026-04-05T17:02:43.995Z</time></trkpt><trkpt lat="45.42156774681807" lon="8.055524501484943"><ele>279.0</ele><time>2026-04-05T17:02:44.994Z</time></trkpt><trkpt lat="45.42152365013348" lon="8.0557283914656"><ele>279.75</ele><time>2026-04-05T17:02:45.994Z</time></trkpt><trkpt lat="45.42147579032555" lon="8.05591527473945"><ele>280.5</ele><time>2026-04-05T17:02:46.994Z</time></trkpt><trkpt lat="45.421438902326244" lon="8.056096322196675"><ele>281.25</ele><time>2026-04-05T17:02:47.994Z</time></trkpt><trkpt lat="45.42140261703465" lon="8.056273739067635"><ele>282.0</ele><time>2026-04-05T17:02:48.994Z</time></trkpt><trkpt lat="45.42136806160568" lon="8.056441799292003"><ele>282.0</ele><time>2026-04-05T17:02:49.994Z</time></trkpt><trkpt lat="45.42134932265117" lon="8.056610804304443"><ele>282.0</ele><time>2026-04-05T17:02:50.994Z</time></trkpt><trkpt lat="45.421303796530516" lon="8.056762819897578"><ele>282.0</ele><time>2026-04-05T17:02:51.994Z</time></trkpt><trkpt lat="45.421277402507656" lon="8.056910720223144"><ele>282.0</ele><time>2026-04-05T17:02:52.994Z</time></trkpt><trkpt lat="45.42124980401527" lon="8.057036034146156"><ele>282.0</ele><time>2026-04-05T17:02:53.994Z</time></trkpt><trkpt lat="45.421214869684675" lon="8.057142005688364"><ele>280.8333333333333</ele><time>2026-04-05T17:02:54.994Z</time></trkpt><trkpt lat="45.42117138571383" lon="8.057230116692788"><ele>279.6666666666667</ele><time>2026-04-05T17:02:55.994Z</time></trkpt><trkpt lat="45.42111924641089" lon="8.05729493627255"><ele>278.5</ele><time>2026-04-05T17:02:56.994Z</time></trkpt><trkpt lat="45.42106537494468" lon="8.057353060349913"><ele>277.33333333333337</ele><time>2026-04-05T17:02:57.994Z</time></trkpt><trkpt lat="45.42101166527696" lon="8.057500013042757"><ele>276.1666666666667</ele><time>2026-04-05T17:02:59.994Z</time></trkpt><trkpt lat="45.421018011950146" lon="8.057595489437809"><ele>275.0</ele><time>2026-04-05T17:03:00.994Z</time></trkpt><trkpt lat="45.42103901654654" lon="8.057701669979407"><ele>275.0</ele><time>2026-04-05T17:03:01.994Z</time></trkpt><trkpt lat="45.42105169037224" lon="8.057824215809475"><ele>275.0</ele><time>2026-04-05T17:03:02.994Z</time></trkpt><trkpt lat="45.42104958099771" lon="8.057961211519743"><ele>275.0</ele><time>2026-04-05T17:03:03.994Z</time></trkpt><trkpt lat="45.421026874959544" lon="8.058107669716495"><ele>275.0</ele><time>2026-04-05T17:03:04.994Z</time></trkpt><trkpt lat="45.420987423513644" lon="8.058268116903822"><ele>275.0</ele><time>2026-04-05T17:03:05.994Z</time></trkpt><trkpt lat="45.420931803153614" lon="8.058444658957477"><ele>276.0</ele><time>2026-04-05T17:03:06.994Z</time></trkpt><trkpt lat="45.42084740874363" lon="8.058619744548368"><ele>277.0</ele><time>2026-04-05T17:03:07.994Z</time></trkpt><trkpt lat="45.42076255170375" lon="8.05881526802391"><ele>278.0</ele><time>2026-04-05T17:03:08.994Z</time></trkpt><trkpt lat="45.42068169049998" lon="8.059025976835976"><ele>279.0</ele><time>2026-04-05T17:03:09.994Z</time></trkpt><trkpt lat="45.420584698834716" lon="8.059211464961745"><ele>280.0</ele><time>2026-04-05T17:03:10.994Z</time></trkpt><trkpt lat="45.42049923914151" lon="8.05939374095069"><ele>281.0</ele><time>2026-04-05T17:03:11.994Z</time></trkpt><trkpt lat="45.42041518548615" lon="8.059562866848491"><ele>281.0</ele><time>2026-04-05T17:03:12.994Z</time></trkpt><trkpt lat="45.420332823859624" lon="8.059738736908344"><ele>281.0</ele><time>2026-04-05T17:03:13.994Z</time></trkpt><trkpt lat="45.42024723157852" lon="8.059931036757462"><ele>281.0</ele><time>2026-04-05T17:03:14.994Z</time></trkpt><trkpt lat="45.420134369986435" lon="8.060127063687217"><ele>281.0</ele><time>2026-04-05T17:03:15.994Z</time></trkpt><trkpt lat="45.42004302092852" lon="8.060385506692704"><ele>281.0</ele><time>2026-04-05T17:03:16.994Z</time></trkpt><trkpt lat="45.41992020103826" lon="8.060646867349108"><ele>281.0</ele><time>2026-04-05T17:03:17.994Z</time></trkpt><trkpt lat="45.419785540869135" lon="8.060932589461627"><ele>279.5</ele><time>2026-04-05T17:03:18.994Z</time></trkpt><trkpt lat="45.41963869930391" lon="8.061242192039764"><ele>278.0</ele><time>2026-04-05T17:03:19.994Z</time></trkpt><trkpt lat="45.41946357216657" lon="8.061526480857038"><ele>278.5</ele><time>2026-04-05T17:03:20.994Z</time></trkpt><trkpt lat="45.419321742083326" lon="8.061818896833708"><ele>279.0</ele><time>2026-04-05T17:03:21.994Z</time></trkpt><trkpt lat="45.419199641312055" lon="8.062106453755138"><ele>279.0</ele><time>2026-04-05T17:03:22.994Z</time></trkpt><trkpt lat="45.41906813821878" lon="8.06235941918425"><ele>279.0</ele><time>2026-04-05T17:03:23.994Z</time></trkpt><trkpt lat="45.41894918199828" lon="8.062601975238753"><ele>279.0</ele><time>2026-04-05T17:03:24.994Z</time></trkpt><trkpt lat="45.41883702765848" lon="8.06283410720378"><ele>279.6666666666667</ele><time>2026-04-05T17:03:25.994Z</time></trkpt><trkpt lat="45.41872745710495" lon="8.063052885454955"><ele>280.33333333333337</ele><time>2026-04-05T17:03:26.994Z</time></trkpt><trkpt lat="45.41862467587255" lon="8.063261321645687"><ele>281.0</ele><time>2026-04-05T17:03:27.994Z</time></trkpt><trkpt lat="45.418521100112955" lon="8.063465934604432"><ele>282.0</ele><time>2026-04-05T17:03:28.994Z</time></trkpt><trkpt lat="45.41840862277631" lon="8.063679249497804"><ele>283.0</ele><time>2026-04-05T17:03:29.994Z</time></trkpt><trkpt lat="45.41829693773937" lon="8.063899342861042"><ele>284.0</ele><time>2026-04-05T17:03:30.993Z</time></trkpt><trkpt lat="45.41818492265864" lon="8.064125137733447"><ele>284.33333333333337</ele><time>2026-04-05T17:03:31.993Z</time></trkpt><trkpt lat="45.41806557408468" lon="8.064346705169507"><ele>284.6666666666667</ele><time>2026-04-05T17:03:32.993Z</time></trkpt><trkpt lat="45.41793807586352" lon="8.064561260922723"><ele>285.0</ele><time>2026-04-05T17:03:33.993Z</time></trkpt><trkpt lat="45.41780164315823" lon="8.064763992569619"><ele>286.0</ele><time>2026-04-05T17:03:34.993Z</time></trkpt><trkpt lat="45.41765360091491" lon="8.064960144290202"><ele>287.0</ele><time>2026-04-05T17:03:35.993Z</time></trkpt><trkpt lat="45.417494066134395" lon="8.065145934503235"><ele>288.0</ele><time>2026-04-05T17:03:36.993Z</time></trkpt><trkpt lat="45.4173259459276" lon="8.065324787014756"><ele>288.0</ele><time>2026-04-05T17:03:37.993Z</time></trkpt><trkpt lat="45.41715599220917" lon="8.065501410719005"><ele>288.0</ele><time>2026-04-05T17:03:38.993Z</time></trkpt><trkpt lat="45.416982273818974" lon="8.065676315215303"><ele>288.0</ele><time>2026-04-05T17:03:39.993Z</time></trkpt><trkpt lat="45.41680689214727" lon="8.065845314404767"><ele>287.3333333333333</ele><time>2026-04-05T17:03:40.993Z</time></trkpt><trkpt lat="45.41663576356065" lon="8.066005926013798"><ele>286.66666666666663</ele><time>2026-04-05T17:03:41.993Z</time></trkpt><trkpt lat="45.4164655631602" lon="8.066158576088771"><ele>286.0</ele><time>2026-04-05T17:03:42.993Z</time></trkpt><trkpt lat="45.41630423119229" lon="8.066315063128885"><ele>285.66666666666663</ele><time>2026-04-05T17:03:43.993Z</time></trkpt><trkpt lat="45.416153001710306" lon="8.06648586883312"><ele>285.3333333333333</ele><time>2026-04-05T17:03:44.993Z</time></trkpt><trkpt lat="45.41600015696507" lon="8.066670303881699"><ele>285.0</ele><time>2026-04-05T17:03:45.993Z</time></trkpt><trkpt lat="45.41583117095041" lon="8.066854668245476"><ele>285.0</ele><time>2026-04-05T17:03:46.993Z</time></trkpt><trkpt lat="45.41566379359373" lon="8.067084713696568"><ele>285.0</ele><time>2026-04-05T17:03:47.993Z</time></trkpt><trkpt lat="45.4154849180904" lon="8.067342590101203"><ele>283.0</ele><time>2026-04-05T17:03:48.993Z</time></trkpt><trkpt lat="45.41529666095749" lon="8.067614911764858"><ele>281.0</ele><time>2026-04-05T17:03:49.993Z</time></trkpt><trkpt lat="45.41509885273188" lon="8.067899032756271"><ele>281.0</ele><time>2026-04-05T17:03:50.993Z</time></trkpt><trkpt lat="45.41489882855249" lon="8.068185006022357"><ele>281.0</ele><time>2026-04-05T17:03:51.993Z</time></trkpt><trkpt lat="45.41470360525934" lon="8.068464115422255"><ele>279.5</ele><time>2026-04-05T17:03:52.993Z</time></trkpt><trkpt lat="45.414521606905424" lon="8.068750470090036"><ele>278.0</ele><time>2026-04-05T17:03:53.993Z</time></trkpt><trkpt lat="45.41433884735637" lon="8.069003243724941"><ele>283.0</ele><time>2026-04-05T17:03:54.993Z</time></trkpt><trkpt lat="45.41417349918865" lon="8.069250555723942"><ele>288.0</ele><time>2026-04-05T17:03:55.993Z</time></trkpt><trkpt lat="45.41401470433029" lon="8.069491871255678"><ele>288.0</ele><time>2026-04-05T17:03:56.993Z</time></trkpt><trkpt lat="45.41386610826609" lon="8.069732754330216"><ele>288.0</ele><time>2026-04-05T17:03:57.993Z</time></trkpt><trkpt lat="45.41372572506586" lon="8.069978884744922"><ele>288.0</ele><time>2026-04-05T17:03:58.993Z</time></trkpt><trkpt lat="45.413590775336104" lon="8.070230376703153"><ele>289.0</ele><time>2026-04-05T17:03:59.993Z</time></trkpt><trkpt lat="45.413458395259426" lon="8.07047670846418"><ele>290.0</ele><time>2026-04-05T17:04:00.993Z</time></trkpt><trkpt lat="45.4133261131663" lon="8.07071982011517"><ele>291.0</ele><time>2026-04-05T17:04:01.993Z</time></trkpt><trkpt lat="45.41318848063564" lon="8.070950128697154"><ele>291.0</ele><time>2026-04-05T17:04:02.993Z</time></trkpt><trkpt lat="45.41305513311881" lon="8.071180875938163"><ele>291.0</ele><time>2026-04-05T17:04:03.993Z</time></trkpt><trkpt lat="45.41292794384592" lon="8.071410625820263"><ele>291.0</ele><time>2026-04-05T17:04:04.993Z</time></trkpt><trkpt lat="45.41280208646446" lon="8.071639028105997"><ele>289.0</ele><time>2026-04-05T17:04:05.993Z</time></trkpt><trkpt lat="45.41268465205651" lon="8.071863412675441"><ele>287.0</ele><time>2026-04-05T17:04:06.993Z</time></trkpt><trkpt lat="45.412580443627064" lon="8.072086489393715"><ele>285.0</ele><time>2026-04-05T17:04:07.993Z</time></trkpt><trkpt lat="45.41249315021807" lon="8.072310603269273"><ele>287.0</ele><time>2026-04-05T17:04:08.993Z</time></trkpt><trkpt lat="45.41241708513701" lon="8.072538377820521"><ele>289.0</ele><time>2026-04-05T17:04:09.993Z</time></trkpt><trkpt lat="45.41235406892657" lon="8.072752717356828"><ele>291.0</ele><time>2026-04-05T17:04:10.993Z</time></trkpt><trkpt lat="45.41230280727962" lon="8.07295534854859"><ele>291.0</ele><time>2026-04-05T17:04:11.993Z</time></trkpt><trkpt lat="45.412260842741766" lon="8.073153257156276"><ele>291.0</ele><time>2026-04-05T17:04:12.993Z</time></trkpt><trkpt lat="45.41222567799099" lon="8.073332041831678"><ele>291.0</ele><time>2026-04-05T17:04:13.993Z</time></trkpt><trkpt lat="45.412194574144806" lon="8.073503112345074"><ele>291.0</ele><time>2026-04-05T17:04:14.993Z</time></trkpt><trkpt lat="45.41216777076279" lon="8.073664177616742"><ele>290.6666666666667</ele><time>2026-04-05T17:04:15.993Z</time></trkpt><trkpt lat="45.41214267344904" lon="8.073815955980894"><ele>290.3333333333333</ele><time>2026-04-05T17:04:16.993Z</time></trkpt><trkpt lat="45.41212164786434" lon="8.073939046840243"><ele>290.0</ele><time>2026-04-05T17:04:17.992Z</time></trkpt><trkpt lat="45.41210498321317" lon="8.074040930266882"><ele>289.66666666666663</ele><time>2026-04-05T17:04:18.992Z</time></trkpt><trkpt lat="45.412089887421" lon="8.074136657650367"><ele>289.3333333333333</ele><time>2026-04-05T17:04:19.992Z</time></trkpt><trkpt lat="45.41207197363398" lon="8.074234615124123"><ele>289.0</ele><time>2026-04-05T17:04:20.992Z</time></trkpt><trkpt lat="45.41204545807103" lon="8.074346614722756"><ele>289.8</ele><time>2026-04-05T17:04:21.992Z</time></trkpt><trkpt lat="45.412007084754" lon="8.07446344913448"><ele>290.59999999999997</ele><time>2026-04-05T17:04:22.992Z</time></trkpt><trkpt lat="45.41195182016069" lon="8.074590812163846"><ele>291.4</ele><time>2026-04-05T17:04:23.992Z</time></trkpt><trkpt lat="45.41188849470628" lon="8.074726436806973"><ele>292.2</ele><time>2026-04-05T17:04:24.992Z</time></trkpt><trkpt lat="45.41181129683895" lon="8.07487235726822"><ele>293.0</ele><time>2026-04-05T17:04:25.992Z</time></trkpt><trkpt lat="45.41172339437755" lon="8.07502571796821"><ele>294.6666666666667</ele><time>2026-04-05T17:04:26.992Z</time></trkpt><trkpt lat="45.41162536952854" lon="8.075187947170823"><ele>296.3333333333333</ele><time>2026-04-05T17:04:27.992Z</time></trkpt><trkpt lat="45.41152442054719" lon="8.075348696418652"><ele>298.0</ele><time>2026-04-05T17:04:28.992Z</time></trkpt><trkpt lat="45.41141509122547" lon="8.075505504728701"><ele>296.3333333333333</ele><time>2026-04-05T17:04:29.992Z</time></trkpt><trkpt lat="45.41129184259671" lon="8.07566177147853"><ele>294.6666666666667</ele><time>2026-04-05T17:04:30.992Z</time></trkpt><trkpt lat="45.41116091594115" lon="8.075825026960375"><ele>293.0</ele><time>2026-04-05T17:04:31.992Z</time></trkpt><trkpt lat="45.41102103790915" lon="8.075998304312249"><ele>293.0</ele><time>2026-04-05T17:04:32.992Z</time></trkpt><trkpt lat="45.41087079389604" lon="8.076175390518785"><ele>293.0</ele><time>2026-04-05T17:04:33.992Z</time></trkpt><trkpt lat="45.410719112525605" lon="8.07635210041121"><ele>293.0</ele><time>2026-04-05T17:04:34.992Z</time></trkpt><trkpt lat="45.41056830556516" lon="8.076515935150281"><ele>293.6666666666667</ele><time>2026-04-05T17:04:35.992Z</time></trkpt><trkpt lat="45.41042752755335" lon="8.07667215895143"><ele>294.3333333333333</ele><time>2026-04-05T17:04:36.992Z</time></trkpt><trkpt lat="45.410294964358044" lon="8.076824316220973"><ele>295.0</ele><time>2026-04-05T17:04:37.992Z</time></trkpt><trkpt lat="45.41016776787037" lon="8.076974282740846"><ele>295.0</ele><time>2026-04-05T17:04:38.992Z</time></trkpt><trkpt lat="45.41003434993383" lon="8.07713341643268"><ele>295.0</ele><time>2026-04-05T17:04:39.992Z</time></trkpt><trkpt lat="45.409899768577084" lon="8.077295831653824"><ele>295.0</ele><time>2026-04-05T17:04:40.992Z</time></trkpt><trkpt lat="45.40977279505003" lon="8.077458013804248"><ele>298.3333333333333</ele><time>2026-04-05T17:04:41.992Z</time></trkpt><trkpt lat="45.40964982062104" lon="8.07762851701094"><ele>301.6666666666667</ele><time>2026-04-05T17:04:42.992Z</time></trkpt><trkpt lat="45.40952387997377" lon="8.077804073836653"><ele>305.0</ele><time>2026-04-05T17:04:43.992Z</time></trkpt><trkpt lat="45.40940385810349" lon="8.077984327563644"><ele>305.0</ele><time>2026-04-05T17:04:44.992Z</time></trkpt><trkpt lat="45.40928436254623" lon="8.078185487076238"><ele>305.0</ele><time>2026-04-05T17:04:45.992Z</time></trkpt><trkpt lat="45.409162197081905" lon="8.078400357379957"><ele>305.0</ele><time>2026-04-05T17:04:46.992Z</time></trkpt><trkpt lat="45.409037337558274" lon="8.078634434656173"><ele>305.6666666666667</ele><time>2026-04-05T17:04:47.992Z</time></trkpt><trkpt lat="45.40890045885211" lon="8.078872663947614"><ele>306.3333333333333</ele><time>2026-04-05T17:04:48.992Z</time></trkpt><trkpt lat="45.40875563812627" lon="8.079109434582694"><ele>307.0</ele><time>2026-04-05T17:04:49.992Z</time></trkpt><trkpt lat="45.40860785538375" lon="8.079353603504511"><ele>307.0</ele><time>2026-04-05T17:04:50.992Z</time></trkpt><trkpt lat="45.40846949751047" lon="8.07959994934578"><ele>307.0</ele><time>2026-04-05T17:04:51.992Z</time></trkpt><trkpt lat="45.40833729599957" lon="8.079838290233173"><ele>307.0</ele><time>2026-04-05T17:04:52.992Z</time></trkpt><trkpt lat="45.408212541029094" lon="8.080067994188873"><ele>305.0</ele><time>2026-04-05T17:04:53.992Z</time></trkpt><trkpt lat="45.40809292901495" lon="8.080291114062334"><ele>303.0</ele><time>2026-04-05T17:04:54.992Z</time></trkpt><trkpt lat="45.40797745831222" lon="8.08051045684077"><ele>301.0</ele><time>2026-04-05T17:04:55.992Z</time></trkpt><trkpt lat="45.40785967276132" lon="8.080726450853891"><ele>297.66666666666663</ele><time>2026-04-05T17:04:56.992Z</time></trkpt><trkpt lat="45.40773767460912" lon="8.080938618621666"><ele>294.3333333333333</ele><time>2026-04-05T17:04:57.992Z</time></trkpt><trkpt lat="45.407622911572425" lon="8.081159518482716"><ele>291.0</ele><time>2026-04-05T17:04:58.992Z</time></trkpt><trkpt lat="45.40751242853065" lon="8.081374781147296"><ele>291.0</ele><time>2026-04-05T17:04:59.992Z</time></trkpt><trkpt lat="45.407405068139155" lon="8.081585973793388"><ele>291.0</ele><time>2026-04-05T17:05:00.992Z</time></trkpt><trkpt lat="45.407297973847115" lon="8.081787777689478"><ele>291.0</ele><time>2026-04-05T17:05:01.992Z</time></trkpt><trkpt lat="45.40719648177713" lon="8.0819870844331"><ele>290.6666666666667</ele><time>2026-04-05T17:05:02.992Z</time></trkpt><trkpt lat="45.4071030889238" lon="8.08218306062417"><ele>290.33333333333337</ele><time>2026-04-05T17:05:03.992Z</time></trkpt><trkpt lat="45.407013132109974" lon="8.082372153330839"><ele>290.0</ele><time>2026-04-05T17:05:04.991Z</time></trkpt><trkpt lat="45.406936287882594" lon="8.082561926333284"><ele>289.5</ele><time>2026-04-05T17:05:05.991Z</time></trkpt><trkpt lat="45.40687577800616" lon="8.08275629243974"><ele>289.0</ele><time>2026-04-05T17:05:06.991Z</time></trkpt><trkpt lat="45.40682622599947" lon="8.082947484391873"><ele>288.5</ele><time>2026-04-05T17:05:07.991Z</time></trkpt><trkpt lat="45.4067817601994" lon="8.083141140607928"><ele>288.0</ele><time>2026-04-05T17:05:08.991Z</time></trkpt><trkpt lat="45.40674487411024" lon="8.083333566780167"><ele>287.75</ele><time>2026-04-05T17:05:09.991Z</time></trkpt><trkpt lat="45.40671169104543" lon="8.08352389901303"><ele>287.5</ele><time>2026-04-05T17:05:10.991Z</time></trkpt><trkpt lat="45.40668029055522" lon="8.083709029041097"><ele>287.25</ele><time>2026-04-05T17:05:11.991Z</time></trkpt><trkpt lat="45.406653020772886" lon="8.08388877118405"><ele>287.0</ele><time>2026-04-05T17:05:12.991Z</time></trkpt><trkpt lat="45.40663102870538" lon="8.08406719082415"><ele>286.75</ele><time>2026-04-05T17:05:13.991Z</time></trkpt><trkpt lat="45.40660682575346" lon="8.084247208882758"><ele>286.5</ele><time>2026-04-05T17:05:14.991Z</time></trkpt><trkpt lat="45.40658436897006" lon="8.084433852341844"><ele>286.25</ele><time>2026-04-05T17:05:15.991Z</time></trkpt><trkpt lat="45.406562747210145" lon="8.084624491238307"><ele>286.0</ele><time>2026-04-05T17:05:16.991Z</time></trkpt><trkpt lat="45.40653819181636" lon="8.084820150152604"><ele>285.75</ele><time>2026-04-05T17:05:17.991Z</time></trkpt><trkpt lat="45.40650627839683" lon="8.085015916862197"><ele>285.5</ele><time>2026-04-05T17:05:18.991Z</time></trkpt><trkpt lat="45.40647844066951" lon="8.085218353807623"><ele>285.25</ele><time>2026-04-05T17:05:19.991Z</time></trkpt><trkpt lat="45.406452857820895" lon="8.085428113816851"><ele>285.0</ele><time>2026-04-05T17:05:20.991Z</time></trkpt><trkpt lat="45.40642861367082" lon="8.085642252287936"><ele>284.6666666666667</ele><time>2026-04-05T17:05:21.991Z</time></trkpt><trkpt lat="45.40640489395502" lon="8.085856904058687"><ele>284.33333333333337</ele><time>2026-04-05T17:05:22.991Z</time></trkpt><trkpt lat="45.40638434950733" lon="8.086072648224045"><ele>284.0</ele><time>2026-04-05T17:05:23.991Z</time></trkpt><trkpt lat="45.40636312121831" lon="8.086288239221874"><ele>284.0</ele><time>2026-04-05T17:05:24.991Z</time></trkpt><trkpt lat="45.40634096632462" lon="8.086504342073923"><ele>284.0</ele><time>2026-04-05T17:05:25.991Z</time></trkpt><trkpt lat="45.40631765051659" lon="8.086722511175099"><ele>284.0</ele><time>2026-04-05T17:05:26.991Z</time></trkpt><trkpt lat="45.406293024230514" lon="8.08693957413562"><ele>283.0</ele><time>2026-04-05T17:05:27.991Z</time></trkpt><trkpt lat="45.406267765900026" lon="8.087152325330514"><ele>282.0</ele><time>2026-04-05T17:05:28.991Z</time></trkpt><trkpt lat="45.40623951770941" lon="8.087352565357088"><ele>281.0</ele><time>2026-04-05T17:05:29.991Z</time></trkpt><trkpt lat="45.40621637549437" lon="8.087531077878843"><ele>280.0</ele><time>2026-04-05T17:05:30.991Z</time></trkpt><trkpt lat="45.40619600610472" lon="8.087689589929623"><ele>280.0</ele><time>2026-04-05T17:05:31.991Z</time></trkpt><trkpt lat="45.40618081632171" lon="8.087829783841428"><ele>280.0</ele><time>2026-04-05T17:05:32.991Z</time></trkpt><trkpt lat="45.40617038412965" lon="8.087936631063661"><ele>280.0</ele><time>2026-04-05T17:05:33.991Z</time></trkpt><trkpt lat="45.406139334998336" lon="8.088051280826281"><ele>280.0</ele><time>2026-04-05T17:05:35.991Z</time></trkpt><trkpt lat="45.40614145615521" lon="8.088154614261656"><ele>280.0</ele><time>2026-04-05T17:05:38.991Z</time></trkpt><trkpt lat="45.4061350040656" lon="8.088280456355921"><ele>280.0</ele><time>2026-04-05T17:05:40.991Z</time></trkpt><trkpt lat="45.40610760384873" lon="8.088374146501149"><ele>280.0</ele><time>2026-04-05T17:05:42.991Z</time></trkpt><trkpt lat="45.406229614749506" lon="8.088393014095107"><ele>280.0</ele><time>2026-04-05T17:05:45.991Z</time></trkpt><trkpt lat="45.406336918441774" lon="8.088334919128709"><ele>280.0</ele><time>2026-04-05T17:05:47.991Z</time></trkpt><trkpt lat="45.40640707947927" lon="8.08830426387457"><ele>280.0</ele><time>2026-04-05T17:05:48.991Z</time></trkpt><trkpt lat="45.406478907825154" lon="8.088271178370217"><ele>280.0</ele><time>2026-04-05T17:05:49.991Z</time></trkpt><trkpt lat="45.40654287115332" lon="8.08824757382623"><ele>279.75</ele><time>2026-04-05T17:05:50.991Z</time></trkpt><trkpt lat="45.40669033894783" lon="8.088207138741215"><ele>279.5</ele><time>2026-04-05T17:05:52.99Z</time></trkpt><trkpt lat="45.40679081106252" lon="8.088192871425049"><ele>279.25</ele><time>2026-04-05T17:05:53.99Z</time></trkpt><trkpt lat="45.406899872728744" lon="8.088212453716343"><ele>279.0</ele><time>2026-04-05T17:05:54.99Z</time></trkpt><trkpt lat="45.40701398031243" lon="8.088191647508232"><ele>279.0</ele><time>2026-04-05T17:05:55.99Z</time></trkpt><trkpt lat="45.407131940175695" lon="8.088197836491"><ele>279.0</ele><time>2026-04-05T17:05:56.99Z</time></trkpt><trkpt lat="45.40725109785354" lon="8.088201619779971"><ele>279.0</ele><time>2026-04-05T17:05:57.99Z</time></trkpt><trkpt lat="45.40735499934033" lon="8.088207575919263"><ele>279.0</ele><time>2026-04-05T17:05:58.99Z</time></trkpt><trkpt lat="45.40743777608341" lon="8.088209669746789"><ele>279.0</ele><time>2026-04-05T17:05:59.99Z</time></trkpt><trkpt lat="45.407541913751274" lon="8.088189496742228"><ele>279.2</ele><time>2026-04-05T17:06:01.99Z</time></trkpt><trkpt lat="45.407670278317845" lon="8.088189934773474"><ele>279.4</ele><time>2026-04-05T17:06:03.99Z</time></trkpt><trkpt lat="45.40775066267525" lon="8.088186969119803"><ele>279.6</ele><time>2026-04-05T17:06:04.99Z</time></trkpt><trkpt lat="45.40784130161079" lon="8.088189876787911"><ele>279.8</ele><time>2026-04-05T17:06:05.99Z</time></trkpt><trkpt lat="45.40793739685234" lon="8.088182805904362"><ele>280.0</ele><time>2026-04-05T17:06:06.99Z</time></trkpt><trkpt lat="45.40804166409682" lon="8.08818453650201"><ele>280.6</ele><time>2026-04-05T17:06:07.99Z</time></trkpt><trkpt lat="45.40814968907869" lon="8.088185190349416"><ele>281.2</ele><time>2026-04-05T17:06:08.99Z</time></trkpt><trkpt lat="45.408258286636496" lon="8.08818904729365"><ele>281.8</ele><time>2026-04-05T17:06:09.99Z</time></trkpt><trkpt lat="45.40836178347477" lon="8.088187827308289"><ele>282.4</ele><time>2026-04-05T17:06:10.99Z</time></trkpt><trkpt lat="45.40846310800463" lon="8.088192998543027"><ele>283.0</ele><time>2026-04-05T17:06:11.99Z</time></trkpt><trkpt lat="45.40856486607295" lon="8.088192344515765"><ele>283.0</ele><time>2026-04-05T17:06:12.99Z</time></trkpt><trkpt lat="45.408663400903585" lon="8.088190804972253"><ele>283.0</ele><time>2026-04-05T17:06:13.99Z</time></trkpt><trkpt lat="45.40875380674179" lon="8.088183135613503"><ele>283.0</ele><time>2026-04-05T17:06:14.99Z</time></trkpt><trkpt lat="45.40883655016815" lon="8.088170843575094"><ele>283.0</ele><time>2026-04-05T17:06:15.99Z</time></trkpt><trkpt lat="45.40890230378787" lon="8.088165397847611"><ele>283.0</ele><time>2026-04-05T17:06:16.99Z</time></trkpt><trkpt lat="45.40899097520442" lon="8.088181544903168"><ele>283.0</ele><time>2026-04-05T17:06:18.99Z</time></trkpt><trkpt lat="45.4089787713991" lon="8.088342034862075"><ele>283.2</ele><time>2026-04-05T17:06:22.99Z</time></trkpt><trkpt lat="45.40890204397234" lon="8.088477454245321"><ele>283.4</ele><time>2026-04-05T17:06:24.99Z</time></trkpt><trkpt lat="45.408848912588105" lon="8.088566332719294"><ele>283.59999999999997</ele><time>2026-04-05T17:06:25.99Z</time></trkpt><trkpt lat="45.40879283666595" lon="8.08865783822128"><ele>283.8</ele><time>2026-04-05T17:06:26.99Z</time></trkpt><trkpt lat="45.40873203239523" lon="8.088757059510927"><ele>284.0</ele><time>2026-04-05T17:06:27.99Z</time></trkpt><trkpt lat="45.408668199238306" lon="8.088861223381059"><ele>284.0</ele><time>2026-04-05T17:06:28.99Z</time></trkpt><trkpt lat="45.408603241877245" lon="8.088963915391902"><ele>284.0</ele><time>2026-04-05T17:06:29.99Z</time></trkpt><trkpt lat="45.40853839807527" lon="8.089074389685136"><ele>284.0</ele><time>2026-04-05T17:06:30.99Z</time></trkpt><trkpt lat="45.40848413447963" lon="8.089168823175688"><ele>284.0</ele><time>2026-04-05T17:06:31.99Z</time></trkpt><trkpt lat="45.408424313576276" lon="8.089268044531925"><ele>284.0</ele><time>2026-04-05T17:06:33.99Z</time></trkpt><trkpt lat="45.408347234406875" lon="8.089385154811978"><ele>284.6666666666667</ele><time>2026-04-05T17:06:35.99Z</time></trkpt><trkpt lat="45.40828935515161" lon="8.089460618633959"><ele>285.33333333333337</ele><time>2026-04-05T17:06:36.99Z</time></trkpt><trkpt lat="45.40823534605092" lon="8.08955027658106"><ele>286.0</ele><time>2026-04-05T17:06:37.989Z</time></trkpt><trkpt lat="45.40818901829994" lon="8.089611981520939"><ele>286.6666666666667</ele><time>2026-04-05T17:06:38.989Z</time></trkpt><trkpt lat="45.408126228765525" lon="8.089700778047439"><ele>287.3333333333333</ele><time>2026-04-05T17:06:40.989Z</time></trkpt><trkpt lat="45.408028335842786" lon="8.089830987978925"><ele>288.0</ele><time>2026-04-05T17:06:42.989Z</time></trkpt><trkpt lat="45.407966266462886" lon="8.089914897285015"><ele>287.3333333333333</ele><time>2026-04-05T17:06:43.989Z</time></trkpt><trkpt lat="45.40790058761115" lon="8.090005284332323"><ele>286.6666666666667</ele><time>2026-04-05T17:06:44.989Z</time></trkpt><trkpt lat="45.407838597935964" lon="8.090096279447996"><ele>286.0</ele><time>2026-04-05T17:06:45.989Z</time></trkpt><trkpt lat="45.407772738202496" lon="8.09017986369275"><ele>285.33333333333337</ele><time>2026-04-05T17:06:46.989Z</time></trkpt><trkpt lat="45.40772272778728" lon="8.09025204412548"><ele>284.6666666666667</ele><time>2026-04-05T17:06:47.989Z</time></trkpt><trkpt lat="45.407655837472895" lon="8.090362295651278"><ele>284.0</ele><time>2026-04-05T17:06:49.989Z</time></trkpt><trkpt lat="45.40761156007031" lon="8.090426866806874"><ele>284.0</ele><time>2026-04-05T17:06:50.989Z</time></trkpt><trkpt lat="45.40755297772553" lon="8.090506439476131"><ele>284.0</ele><time>2026-04-05T17:06:51.989Z</time></trkpt><trkpt lat="45.40749134987765" lon="8.090600299685695"><ele>284.0</ele><time>2026-04-05T17:06:52.989Z</time></trkpt><trkpt lat="45.407425360995894" lon="8.090692677459192"><ele>284.0</ele><time>2026-04-05T17:06:53.989Z</time></trkpt><trkpt lat="45.407355099765674" lon="8.090782468849152"><ele>284.0</ele><time>2026-04-05T17:06:54.989Z</time></trkpt><trkpt lat="45.407293291081615" lon="8.090870371738106"><ele>284.0</ele><time>2026-04-05T17:06:55.989Z</time></trkpt><trkpt lat="45.40724020691337" lon="8.090953302682056"><ele>282.4</ele><time>2026-04-05T17:06:56.989Z</time></trkpt><trkpt lat="45.40719612755419" lon="8.091021857915011"><ele>280.79999999999995</ele><time>2026-04-05T17:06:57.989Z</time></trkpt><trkpt lat="45.40714113785235" lon="8.091096668028268"><ele>279.20000000000005</ele><time>2026-04-05T17:06:59.989Z</time></trkpt><trkpt lat="45.40711157526787" lon="8.091181557020775"><ele>277.6</ele><time>2026-04-05T17:07:04.989Z</time></trkpt><trkpt lat="45.4072739849604" lon="8.091294697782722"><ele>276.0</ele><time>2026-04-05T17:07:06.989Z</time></trkpt><trkpt lat="45.40736235366052" lon="8.091323849561759"><ele>276.0</ele><time>2026-04-05T17:07:07.989Z</time></trkpt><trkpt lat="45.4074419217499" lon="8.09135043738446"><ele>276.0</ele><time>2026-04-05T17:07:08.989Z</time></trkpt><trkpt lat="45.40753255985173" lon="8.091384536893006"><ele>276.0</ele><time>2026-04-05T17:07:09.989Z</time></trkpt><trkpt lat="45.407638081882624" lon="8.091429245234695"><ele>276.0</ele><time>2026-04-05T17:07:10.989Z</time></trkpt><trkpt lat="45.40775200890142" lon="8.091484128336818"><ele>276.0</ele><time>2026-04-05T17:07:11.989Z</time></trkpt><trkpt lat="45.40787267929914" lon="8.091551805087393"><ele>275.75</ele><time>2026-04-05T17:07:12.989Z</time></trkpt><trkpt lat="45.407986685256944" lon="8.09161536655056"><ele>275.5</ele><time>2026-04-05T17:07:13.989Z</time></trkpt><trkpt lat="45.40809568097742" lon="8.091674483909454"><ele>275.25</ele><time>2026-04-05T17:07:14.989Z</time></trkpt><trkpt lat="45.40820131089971" lon="8.091735624345443"><ele>275.0</ele><time>2026-04-05T17:07:15.989Z</time></trkpt><trkpt lat="45.40830261089494" lon="8.09179288061997"><ele>275.0</ele><time>2026-04-05T17:07:16.989Z</time></trkpt><trkpt lat="45.40838554604424" lon="8.091866480352962"><ele>275.0</ele><time>2026-04-05T17:07:17.989Z</time></trkpt><trkpt lat="45.40846044086739" lon="8.091910273735051"><ele>275.0</ele><time>2026-04-05T17:07:18.989Z</time></trkpt><trkpt lat="45.40851626830238" lon="8.091979875683345"><ele>275.0</ele><time>2026-04-05T17:07:19.989Z</time></trkpt><trkpt lat="45.40854750087456" lon="8.092073257659958"><ele>275.0</ele><time>2026-04-05T17:07:20.989Z</time></trkpt><trkpt lat="45.40853153232034" lon="8.092272321705169"><ele>275.0</ele><time>2026-04-05T17:07:22.989Z</time></trkpt><trkpt lat="45.40850766415435" lon="8.092391468975364"><ele>275.0</ele><time>2026-04-05T17:07:23.989Z</time></trkpt><trkpt lat="45.408488787874745" lon="8.092529335988944"><ele>275.0</ele><time>2026-04-05T17:07:24.988Z</time></trkpt><trkpt lat="45.40847327786951" lon="8.092678527297974"><ele>275.0</ele><time>2026-04-05T17:07:25.988Z</time></trkpt><trkpt lat="45.40846663377918" lon="8.092841665006286"><ele>275.0</ele><time>2026-04-05T17:07:26.988Z</time></trkpt><trkpt lat="45.40847089092828" lon="8.093013088585149"><ele>275.0</ele><time>2026-04-05T17:07:27.988Z</time></trkpt><trkpt lat="45.40848005891783" lon="8.093185778450522"><ele>275.0</ele><time>2026-04-05T17:07:28.988Z</time></trkpt><trkpt lat="45.40848885611825" lon="8.093358208584736"><ele>275.0</ele><time>2026-04-05T17:07:29.988Z</time></trkpt><trkpt lat="45.40849458369065" lon="8.093535292968134"><ele>275.0</ele><time>2026-04-05T17:07:30.988Z</time></trkpt><trkpt lat="45.40850225493721" lon="8.093714301282208"><ele>275.0</ele><time>2026-04-05T17:07:31.988Z</time></trkpt><trkpt lat="45.408511773334446" lon="8.093891816917777"><ele>275.0</ele><time>2026-04-05T17:07:32.988Z</time></trkpt><trkpt lat="45.40852531887802" lon="8.094069062211663"><ele>275.0</ele><time>2026-04-05T17:07:33.988Z</time></trkpt><trkpt lat="45.40855425008261" lon="8.094244889933412"><ele>275.0</ele><time>2026-04-05T17:07:34.988Z</time></trkpt><trkpt lat="45.40859624182062" lon="8.094412990375316"><ele>274.6</ele><time>2026-04-05T17:07:35.988Z</time></trkpt><trkpt lat="45.40863977988722" lon="8.094561838703534"><ele>274.2</ele><time>2026-04-05T17:07:36.988Z</time></trkpt><trkpt lat="45.40868007528151" lon="8.094694295661244"><ele>273.8</ele><time>2026-04-05T17:07:37.988Z</time></trkpt><trkpt lat="45.408718045713904" lon="8.094817421563983"><ele>273.4</ele><time>2026-04-05T17:07:38.988Z</time></trkpt><trkpt lat="45.408748303443126" lon="8.09493222847198"><ele>273.0</ele><time>2026-04-05T17:07:39.988Z</time></trkpt><trkpt lat="45.40877746945426" lon="8.095042114319993"><ele>273.1666666666667</ele><time>2026-04-05T17:07:40.988Z</time></trkpt><trkpt lat="45.40879954962858" lon="8.095142429536663"><ele>273.3333333333333</ele><time>2026-04-05T17:07:41.988Z</time></trkpt><trkpt lat="45.40881367258542" lon="8.095230358318698"><ele>273.5</ele><time>2026-04-05T17:07:42.988Z</time></trkpt><trkpt lat="45.40882805473595" lon="8.095370283191901"><ele>273.66666666666663</ele><time>2026-04-05T17:07:44.988Z</time></trkpt><trkpt lat="45.40882100191903" lon="8.095460201750846"><ele>273.8333333333333</ele><time>2026-04-05T17:07:46.988Z</time></trkpt><trkpt lat="45.40881453039158" lon="8.095568451129974"><ele>274.0</ele><time>2026-04-05T17:07:48.988Z</time></trkpt><trkpt lat="45.40877692214233" lon="8.095669281683477"><ele>274.0</ele><time>2026-04-05T17:07:50.988Z</time></trkpt><trkpt lat="45.408800575985154" lon="8.095844543389726"><ele>274.0</ele><time>2026-04-05T17:07:52.988Z</time></trkpt><trkpt lat="45.40886743173814" lon="8.095884722005904"><ele>274.0</ele><time>2026-04-05T17:07:53.988Z</time></trkpt><trkpt lat="45.40892919885766" lon="8.095905020559455"><ele>274.0</ele><time>2026-04-05T17:07:54.988Z</time></trkpt><trkpt lat="45.40899537834563" lon="8.095898511902048"><ele>274.0</ele><time>2026-04-05T17:07:55.988Z</time></trkpt><trkpt lat="45.409063457418185" lon="8.095897385415071"><ele>274.0</ele><time>2026-04-05T17:07:56.988Z</time></trkpt><trkpt lat="45.4091708686471" lon="8.0959036464211"><ele>274.0</ele><time>2026-04-05T17:07:58.988Z</time></trkpt><trkpt lat="45.409271051824454" lon="8.09591733101471"><ele>274.0</ele><time>2026-04-05T17:08:00.988Z</time></trkpt><trkpt lat="45.40934108978542" lon="8.095941667809772"><ele>274.0</ele><time>2026-04-05T17:08:01.988Z</time></trkpt><trkpt lat="45.40943105413278" lon="8.095977329220576"><ele>274.0</ele><time>2026-04-05T17:08:02.988Z</time></trkpt><trkpt lat="45.40954050457449" lon="8.09602505915268"><ele>274.0</ele><time>2026-04-05T17:08:03.988Z</time></trkpt><trkpt lat="45.40966043373649" lon="8.09607647768573"><ele>274.0</ele><time>2026-04-05T17:08:04.988Z</time></trkpt><trkpt lat="45.40978613978161" lon="8.096117504306054"><ele>274.0</ele><time>2026-04-05T17:08:05.988Z</time></trkpt><trkpt lat="45.40990706264476" lon="8.096150250616176"><ele>274.0</ele><time>2026-04-05T17:08:06.988Z</time></trkpt><trkpt lat="45.410032455814196" lon="8.096187233813442"><ele>274.0</ele><time>2026-04-05T17:08:07.988Z</time></trkpt><trkpt lat="45.410158606113406" lon="8.09622544770168"><ele>274.0</ele><time>2026-04-05T17:08:08.988Z</time></trkpt><trkpt lat="45.41029017313187" lon="8.096261324427404"><ele>274.0</ele><time>2026-04-05T17:08:09.988Z</time></trkpt><trkpt lat="45.41042469040865" lon="8.096300830538567"><ele>274.0</ele><time>2026-04-05T17:08:10.988Z</time></trkpt><trkpt lat="45.410562279988206" lon="8.096349445711176"><ele>274.0</ele><time>2026-04-05T17:08:11.987Z</time></trkpt><trkpt lat="45.410706745635814" lon="8.096396661422988"><ele>274.0</ele><time>2026-04-05T17:08:12.987Z</time></trkpt><trkpt lat="45.410855479636" lon="8.096445541144185"><ele>274.0</ele><time>2026-04-05T17:08:13.987Z</time></trkpt><trkpt lat="45.411009322435135" lon="8.09649295126582"><ele>274.0</ele><time>2026-04-05T17:08:14.987Z</time></trkpt><trkpt lat="45.41117075705993" lon="8.096543123099945"><ele>274.3333333333333</ele><time>2026-04-05T17:08:15.987Z</time></trkpt><trkpt lat="45.411339203533814" lon="8.096594259627668"><ele>274.6666666666667</ele><time>2026-04-05T17:08:16.987Z</time></trkpt><trkpt lat="45.41150876728138" lon="8.096646249321275"><ele>275.0</ele><time>2026-04-05T17:08:17.987Z</time></trkpt><trkpt lat="45.41167050265067" lon="8.096696642502591"><ele>275.0</ele><time>2026-04-05T17:08:18.987Z</time></trkpt><trkpt lat="45.41183384749998" lon="8.096747522016804"><ele>275.0</ele><time>2026-04-05T17:08:19.987Z</time></trkpt><trkpt lat="45.41200067016594" lon="8.096800072387591"><ele>275.0</ele><time>2026-04-05T17:08:20.987Z</time></trkpt><trkpt lat="45.41216928922649" lon="8.096851741622064"><ele>275.6666666666667</ele><time>2026-04-05T17:08:21.987Z</time></trkpt><trkpt lat="45.41233749708173" lon="8.096905439527674"><ele>276.3333333333333</ele><time>2026-04-05T17:08:22.987Z</time></trkpt><trkpt lat="45.41250451295903" lon="8.09695962149567"><ele>277.0</ele><time>2026-04-05T17:08:23.987Z</time></trkpt><trkpt lat="45.412669584440295" lon="8.097016676185213"><ele>277.0</ele><time>2026-04-05T17:08:24.987Z</time></trkpt><trkpt lat="45.4128342806762" lon="8.097070559068682"><ele>277.0</ele><time>2026-04-05T17:08:25.987Z</time></trkpt><trkpt lat="45.413000331739546" lon="8.097126499161552"><ele>277.0</ele><time>2026-04-05T17:08:26.987Z</time></trkpt><trkpt lat="45.413171960104975" lon="8.097177620088079"><ele>277.3333333333333</ele><time>2026-04-05T17:08:27.987Z</time></trkpt><trkpt lat="45.41334205202314" lon="8.097224545595376"><ele>277.6666666666667</ele><time>2026-04-05T17:08:28.987Z</time></trkpt><trkpt lat="45.41351435561564" lon="8.097276076208656"><ele>278.0</ele><time>2026-04-05T17:08:29.987Z</time></trkpt><trkpt lat="45.41368250136111" lon="8.09732614865138"><ele>277.6666666666667</ele><time>2026-04-05T17:08:30.987Z</time></trkpt><trkpt lat="45.41384785410019" lon="8.097374974835061"><ele>277.3333333333333</ele><time>2026-04-05T17:08:31.987Z</time></trkpt><trkpt lat="45.41400937271028" lon="8.097424874046583"><ele>277.0</ele><time>2026-04-05T17:08:32.987Z</time></trkpt><trkpt lat="45.41416830120045" lon="8.097475843869125"><ele>276.3333333333333</ele><time>2026-04-05T17:08:33.987Z</time></trkpt><trkpt lat="45.414327936135095" lon="8.09752561754213"><ele>275.6666666666667</ele><time>2026-04-05T17:08:34.987Z</time></trkpt><trkpt lat="45.41449124967147" lon="8.097572854325046"><ele>275.0</ele><time>2026-04-05T17:08:35.987Z</time></trkpt><trkpt lat="45.41465800307779" lon="8.097620265600815"><ele>276.33333333333337</ele><time>2026-04-05T17:08:36.987Z</time></trkpt><trkpt lat="45.41482774931913" lon="8.09766854141074"><ele>277.6666666666667</ele><time>2026-04-05T17:08:37.987Z</time></trkpt><trkpt lat="45.41499530060987" lon="8.097716075895569"><ele>279.0</ele><time>2026-04-05T17:08:38.987Z</time></trkpt><trkpt lat="45.4151635849477" lon="8.09776609674785"><ele>279.0</ele><time>2026-04-05T17:08:39.987Z</time></trkpt><trkpt lat="45.41532568771415" lon="8.097813137259678"><ele>279.0</ele><time>2026-04-05T17:08:40.987Z</time></trkpt><trkpt lat="45.415491123705586" lon="8.097862940813753"><ele>279.0</ele><time>2026-04-05T17:08:41.987Z</time></trkpt><trkpt lat="45.4156599629251" lon="8.09791559386922"><ele>279.3333333333333</ele><time>2026-04-05T17:08:42.987Z</time></trkpt><trkpt lat="45.41583502137234" lon="8.097970689811547"><ele>279.66666666666663</ele><time>2026-04-05T17:08:43.987Z</time></trkpt><trkpt lat="45.41601051036812" lon="8.098027751410644"><ele>280.0</ele><time>2026-04-05T17:08:44.987Z</time></trkpt><trkpt lat="45.416187916484425" lon="8.098081881840661"><ele>281.0</ele><time>2026-04-05T17:08:45.987Z</time></trkpt><trkpt lat="45.41636473618381" lon="8.098136708247601"><ele>282.0</ele><time>2026-04-05T17:08:46.987Z</time></trkpt><trkpt lat="45.416540009779744" lon="8.098190553998986"><ele>283.0</ele><time>2026-04-05T17:08:47.987Z</time></trkpt><trkpt lat="45.41671118173174" lon="8.098243007306735"><ele>283.3333333333333</ele><time>2026-04-05T17:08:48.987Z</time></trkpt><trkpt lat="45.41687815631942" lon="8.098291551109627"><ele>283.6666666666667</ele><time>2026-04-05T17:08:49.987Z</time></trkpt><trkpt lat="45.41704559267597" lon="8.098341115835456"><ele>284.0</ele><time>2026-04-05T17:08:50.987Z</time></trkpt><trkpt lat="45.417214658715395" lon="8.098393796370255"><ele>284.0</ele><time>2026-04-05T17:08:51.987Z</time></trkpt><trkpt lat="45.417390285585284" lon="8.098444840785271"><ele>284.0</ele><time>2026-04-05T17:08:52.987Z</time></trkpt><trkpt lat="45.41757289721391" lon="8.098523337471438"><ele>284.0</ele><time>2026-04-05T17:08:53.987Z</time></trkpt><trkpt lat="45.41776998010608" lon="8.098584011115774"><ele>284.0</ele><time>2026-04-05T17:08:54.987Z</time></trkpt><trkpt lat="45.41796863382725" lon="8.098644509256289"><ele>284.0</ele><time>2026-04-05T17:08:55.987Z</time></trkpt><trkpt lat="45.41816850454942" lon="8.098686226980298"><ele>284.0</ele><time>2026-04-05T17:08:56.987Z</time></trkpt><trkpt lat="45.418357385530385" lon="8.098751703394406"><ele>284.0</ele><time>2026-04-05T17:08:57.987Z</time></trkpt><trkpt lat="45.41853609350814" lon="8.098808760078834"><ele>284.0</ele><time>2026-04-05T17:08:58.986Z</time></trkpt><trkpt lat="45.41871760583208" lon="8.098865759924523"><ele>284.0</ele><time>2026-04-05T17:08:59.986Z</time></trkpt><trkpt lat="45.418909723130454" lon="8.098919206376795"><ele>284.0</ele><time>2026-04-05T17:09:00.986Z</time></trkpt><trkpt lat="45.41910606675852" lon="8.09897384018278"><ele>284.0</ele><time>2026-04-05T17:09:01.986Z</time></trkpt><trkpt lat="45.41930271396825" lon="8.099055750286837"><ele>284.0</ele><time>2026-04-05T17:09:02.986Z</time></trkpt><trkpt lat="45.41950478302802" lon="8.099119295038504"><ele>283.33333333333337</ele><time>2026-04-05T17:09:03.986Z</time></trkpt><trkpt lat="45.41970756382776" lon="8.099165181000606"><ele>282.6666666666667</ele><time>2026-04-05T17:09:04.986Z</time></trkpt><trkpt lat="45.41989702470118" lon="8.099250498834529"><ele>282.0</ele><time>2026-04-05T17:09:05.986Z</time></trkpt><trkpt lat="45.42008029249307" lon="8.09931249965432"><ele>282.0</ele><time>2026-04-05T17:09:06.986Z</time></trkpt><trkpt lat="45.42025216482723" lon="8.099365548398529"><ele>282.0</ele><time>2026-04-05T17:09:07.986Z</time></trkpt><trkpt lat="45.4204050764553" lon="8.099415573029871"><ele>282.0</ele><time>2026-04-05T17:09:08.986Z</time></trkpt><trkpt lat="45.42054029711113" lon="8.099462653559986"><ele>282.25</ele><time>2026-04-05T17:09:09.986Z</time></trkpt><trkpt lat="45.42066964207802" lon="8.099500066152785"><ele>282.5</ele><time>2026-04-05T17:09:10.986Z</time></trkpt><trkpt lat="45.420795179092735" lon="8.099532451961982"><ele>282.75</ele><time>2026-04-05T17:09:11.986Z</time></trkpt><trkpt lat="45.4209144002741" lon="8.099574329383358"><ele>283.0</ele><time>2026-04-05T17:09:12.986Z</time></trkpt><trkpt lat="45.42103947467766" lon="8.099614826937229"><ele>283.0</ele><time>2026-04-05T17:09:13.986Z</time></trkpt><trkpt lat="45.421174994677855" lon="8.099657965827605"><ele>283.0</ele><time>2026-04-05T17:09:14.986Z</time></trkpt><trkpt lat="45.421319160079456" lon="8.099701235556072"><ele>283.0</ele><time>2026-04-05T17:09:15.986Z</time></trkpt><trkpt lat="45.421471297211085" lon="8.099749374402814"><ele>283.0</ele><time>2026-04-05T17:09:16.986Z</time></trkpt><trkpt lat="45.42162976152373" lon="8.099795222328309"><ele>283.0</ele><time>2026-04-05T17:09:17.986Z</time></trkpt><trkpt lat="45.42179142078046" lon="8.099840730473868"><ele>283.0</ele><time>2026-04-05T17:09:18.986Z</time></trkpt><trkpt lat="45.42195801973058" lon="8.099890881310182"><ele>283.0</ele><time>2026-04-05T17:09:19.986Z</time></trkpt><trkpt lat="45.4221268772118" lon="8.099949715627021"><ele>283.0</ele><time>2026-04-05T17:09:20.986Z</time></trkpt><trkpt lat="45.42228563338943" lon="8.100020762246526"><ele>283.0</ele><time>2026-04-05T17:09:21.986Z</time></trkpt><trkpt lat="45.42244333466186" lon="8.100111679154159"><ele>283.0</ele><time>2026-04-05T17:09:22.986Z</time></trkpt><trkpt lat="45.42260282603427" lon="8.10022623447009"><ele>283.0</ele><time>2026-04-05T17:09:23.986Z</time></trkpt><trkpt lat="45.4227622529419" lon="8.100363089616534"><ele>283.0</ele><time>2026-04-05T17:09:24.986Z</time></trkpt><trkpt lat="45.422919718894484" lon="8.100518494683557"><ele>283.0</ele><time>2026-04-05T17:09:25.986Z</time></trkpt><trkpt lat="45.423071014364915" lon="8.100692911613399"><ele>282.3333333333333</ele><time>2026-04-05T17:09:26.986Z</time></trkpt><trkpt lat="45.42321239040824" lon="8.100891425936716"><ele>281.6666666666667</ele><time>2026-04-05T17:09:27.986Z</time></trkpt><trkpt lat="45.42334427720914" lon="8.101103573545767"><ele>281.0</ele><time>2026-04-05T17:09:28.986Z</time></trkpt><trkpt lat="45.42346723153461" lon="8.101328244480397"><ele>281.0</ele><time>2026-04-05T17:09:29.986Z</time></trkpt><trkpt lat="45.42358554679274" lon="8.101561848664886"><ele>281.0</ele><time>2026-04-05T17:09:30.986Z</time></trkpt><trkpt lat="45.423699522913" lon="8.101798112105868"><ele>281.0</ele><time>2026-04-05T17:09:31.986Z</time></trkpt><trkpt lat="45.42381611172807" lon="8.102033814040748"><ele>280.33333333333337</ele><time>2026-04-05T17:09:32.986Z</time></trkpt><trkpt lat="45.42393782070637" lon="8.102272656026015"><ele>279.6666666666667</ele><time>2026-04-05T17:09:33.986Z</time></trkpt><trkpt lat="45.42405742361513" lon="8.102515195159912"><ele>279.0</ele><time>2026-04-05T17:09:34.986Z</time></trkpt><trkpt lat="45.42416156965279" lon="8.102783216286944"><ele>279.0</ele><time>2026-04-05T17:09:35.986Z</time></trkpt><trkpt lat="45.42429375020536" lon="8.103029354493573"><ele>279.0</ele><time>2026-04-05T17:09:36.986Z</time></trkpt><trkpt lat="45.4244119073034" lon="8.103292793863536"><ele>279.0</ele><time>2026-04-05T17:09:37.986Z</time></trkpt><trkpt lat="45.42453289532603" lon="8.103557218877562"><ele>282.6666666666667</ele><time>2026-04-05T17:09:38.986Z</time></trkpt><trkpt lat="45.42464878327005" lon="8.103813138679277"><ele>286.33333333333337</ele><time>2026-04-05T17:09:39.986Z</time></trkpt><trkpt lat="45.42476521295073" lon="8.104061773709116"><ele>290.0</ele><time>2026-04-05T17:09:40.986Z</time></trkpt><trkpt lat="45.424880605875664" lon="8.104311361701368"><ele>290.33333333333337</ele><time>2026-04-05T17:09:41.986Z</time></trkpt><trkpt lat="45.42499973937535" lon="8.104561134765206"><ele>290.6666666666667</ele><time>2026-04-05T17:09:42.986Z</time></trkpt><trkpt lat="45.42512220374599" lon="8.104813005666115"><ele>291.0</ele><time>2026-04-05T17:09:43.986Z</time></trkpt><trkpt lat="45.4252438633993" lon="8.105064734934874"><ele>289.3333333333333</ele><time>2026-04-05T17:09:44.986Z</time></trkpt><trkpt lat="45.42536022892651" lon="8.10531942275114"><ele>287.66666666666663</ele><time>2026-04-05T17:09:45.985Z</time></trkpt><trkpt lat="45.42547369459243" lon="8.105581004815019"><ele>286.0</ele><time>2026-04-05T17:09:46.985Z</time></trkpt><trkpt lat="45.42558195449616" lon="8.10585067979732"><ele>286.0</ele><time>2026-04-05T17:09:47.985Z</time></trkpt><trkpt lat="45.42568749800252" lon="8.10612327160198"><ele>286.0</ele><time>2026-04-05T17:09:48.985Z</time></trkpt><trkpt lat="45.425787966137136" lon="8.106403257624805"><ele>286.0</ele><time>2026-04-05T17:09:49.985Z</time></trkpt><trkpt lat="45.42587941142438" lon="8.106689295150716"><ele>287.0</ele><time>2026-04-05T17:09:50.985Z</time></trkpt><trkpt lat="45.425965761151" lon="8.10697934801182"><ele>288.0</ele><time>2026-04-05T17:09:51.985Z</time></trkpt><trkpt lat="45.42605001341338" lon="8.107269650607064"><ele>289.0</ele><time>2026-04-05T17:09:52.985Z</time></trkpt><trkpt lat="45.42613527934732" lon="8.10755924190743"><ele>289.0</ele><time>2026-04-05T17:09:53.985Z</time></trkpt><trkpt lat="45.42622473456147" lon="8.107846096484327"><ele>289.0</ele><time>2026-04-05T17:09:54.985Z</time></trkpt><trkpt lat="45.4263241286049" lon="8.108124848823184"><ele>289.0</ele><time>2026-04-05T17:09:55.985Z</time></trkpt><trkpt lat="45.4264381795875" lon="8.10838876050707"><ele>288.0</ele><time>2026-04-05T17:09:56.985Z</time></trkpt><trkpt lat="45.426565129028376" lon="8.10863364236558"><ele>287.0</ele><time>2026-04-05T17:09:57.985Z</time></trkpt><trkpt lat="45.426703760187465" lon="8.10886689803621"><ele>286.0</ele><time>2026-04-05T17:09:58.985Z</time></trkpt><trkpt lat="45.426850480518915" lon="8.109085536258453"><ele>285.3333333333333</ele><time>2026-04-05T17:09:59.985Z</time></trkpt><trkpt lat="45.4269977953077" lon="8.109289261062331"><ele>284.6666666666667</ele><time>2026-04-05T17:10:00.985Z</time></trkpt><trkpt lat="45.42714094531007" lon="8.109480303407008"><ele>284.0</ele><time>2026-04-05T17:10:01.985Z</time></trkpt><trkpt lat="45.42727724305166" lon="8.109657761947808"><ele>285.6666666666667</ele><time>2026-04-05T17:10:02.985Z</time></trkpt><trkpt lat="45.42740178071215" lon="8.109821651373927"><ele>287.3333333333333</ele><time>2026-04-05T17:10:03.985Z</time></trkpt><trkpt lat="45.427524243261075" lon="8.109980003476991"><ele>289.0</ele><time>2026-04-05T17:10:04.985Z</time></trkpt><trkpt lat="45.42762023439909" lon="8.110145006869846"><ele>289.0</ele><time>2026-04-05T17:10:05.985Z</time></trkpt><trkpt lat="45.42773770123188" lon="8.110300329336802"><ele>289.0</ele><time>2026-04-05T17:10:06.985Z</time></trkpt><trkpt lat="45.42785389326043" lon="8.110455123745332"><ele>289.0</ele><time>2026-04-05T17:10:07.985Z</time></trkpt><trkpt lat="45.42796723758149" lon="8.110608391502648"><ele>287.66666666666663</ele><time>2026-04-05T17:10:08.985Z</time></trkpt><trkpt lat="45.428082026276456" lon="8.110762757169827"><ele>286.3333333333333</ele><time>2026-04-05T17:10:09.985Z</time></trkpt><trkpt lat="45.428198868247925" lon="8.11091807015618"><ele>285.0</ele><time>2026-04-05T17:10:10.985Z</time></trkpt><trkpt lat="45.42832084084816" lon="8.1110698065616"><ele>285.0</ele><time>2026-04-05T17:10:11.985Z</time></trkpt><trkpt lat="45.42844707109706" lon="8.111216342816869"><ele>285.0</ele><time>2026-04-05T17:10:12.985Z</time></trkpt><trkpt lat="45.42858658234511" lon="8.111350591380262"><ele>285.0</ele><time>2026-04-05T17:10:13.985Z</time></trkpt><trkpt lat="45.428738766086326" lon="8.111470440656488"><ele>281.6666666666667</ele><time>2026-04-05T17:10:14.985Z</time></trkpt><trkpt lat="45.428890984759626" lon="8.111580634561165"><ele>278.33333333333337</ele><time>2026-04-05T17:10:15.985Z</time></trkpt><trkpt lat="45.42904369308244" lon="8.111678101066257"><ele>275.0</ele><time>2026-04-05T17:10:16.985Z</time></trkpt><trkpt lat="45.429202602641034" lon="8.111753723480856"><ele>275.0</ele><time>2026-04-05T17:10:17.985Z</time></trkpt><trkpt lat="45.42936285160657" lon="8.11181699523525"><ele>275.0</ele><time>2026-04-05T17:10:18.985Z</time></trkpt><trkpt lat="45.42953479995318" lon="8.111867182996544"><ele>275.0</ele><time>2026-04-05T17:10:19.985Z</time></trkpt><trkpt lat="45.429715054527406" lon="8.111896711982544"><ele>274.0</ele><time>2026-04-05T17:10:20.985Z</time></trkpt><trkpt lat="45.429901269688315" lon="8.111914661048885"><ele>273.0</ele><time>2026-04-05T17:10:21.985Z</time></trkpt><trkpt lat="45.430103003326316" lon="8.111928021105946"><ele>272.0</ele><time>2026-04-05T17:10:22.985Z</time></trkpt><trkpt lat="45.43031217375788" lon="8.111944100598741"><ele>269.0</ele><time>2026-04-05T17:10:23.985Z</time></trkpt><trkpt lat="45.430529510847904" lon="8.11195765500358"><ele>266.0</ele><time>2026-04-05T17:10:24.985Z</time></trkpt><trkpt lat="45.43075513648124" lon="8.111969486169563"><ele>263.0</ele><time>2026-04-05T17:10:25.985Z</time></trkpt><trkpt lat="45.43098705970097" lon="8.111977172125489"><ele>263.0</ele><time>2026-04-05T17:10:26.985Z</time></trkpt><trkpt lat="45.43122131858762" lon="8.111985655537177"><ele>263.0</ele><time>2026-04-05T17:10:27.985Z</time></trkpt><trkpt lat="45.4314521002302" lon="8.111995331485485"><ele>262.33333333333337</ele><time>2026-04-05T17:10:28.985Z</time></trkpt><trkpt lat="45.43167476985083" lon="8.112012172152308"><ele>261.6666666666667</ele><time>2026-04-05T17:10:29.985Z</time></trkpt><trkpt lat="45.431888677623355" lon="8.112020997550102"><ele>261.0</ele><time>2026-04-05T17:10:30.985Z</time></trkpt><trkpt lat="45.43209442194228" lon="8.112028943006836"><ele>260.3333333333333</ele><time>2026-04-05T17:10:31.985Z</time></trkpt><trkpt lat="45.43229752984197" lon="8.112038931225054"><ele>259.66666666666663</ele><time>2026-04-05T17:10:32.984Z</time></trkpt><trkpt lat="45.43249864880326" lon="8.11204369698232"><ele>259.0</ele><time>2026-04-05T17:10:33.984Z</time></trkpt><trkpt lat="45.43270063270151" lon="8.11205022245466"><ele>259.0</ele><time>2026-04-05T17:10:34.984Z</time></trkpt><trkpt lat="45.43290136327915" lon="8.112055535777957"><ele>259.0</ele><time>2026-04-05T17:10:35.984Z</time></trkpt><trkpt lat="45.43310456785495" lon="8.112064095500852"><ele>259.0</ele><time>2026-04-05T17:10:36.984Z</time></trkpt><trkpt lat="45.433307213435405" lon="8.112065799321998"><ele>258.3333333333333</ele><time>2026-04-05T17:10:37.984Z</time></trkpt><trkpt lat="45.43350228462848" lon="8.112066488371214"><ele>257.6666666666667</ele><time>2026-04-05T17:10:38.984Z</time></trkpt><trkpt lat="45.43369277414129" lon="8.112072834774363"><ele>257.0</ele><time>2026-04-05T17:10:39.984Z</time></trkpt><trkpt lat="45.43388053655574" lon="8.112077644997596"><ele>257.0</ele><time>2026-04-05T17:10:40.984Z</time></trkpt><trkpt lat="45.43406746102113" lon="8.112081247114828"><ele>257.0</ele><time>2026-04-05T17:10:41.984Z</time></trkpt><trkpt lat="45.43425252979437" lon="8.112085754841118"><ele>257.0</ele><time>2026-04-05T17:10:42.984Z</time></trkpt><trkpt lat="45.434435811834625" lon="8.112091966550318"><ele>257.0</ele><time>2026-04-05T17:10:43.984Z</time></trkpt><trkpt lat="45.43461689308713" lon="8.112093376111906"><ele>257.0</ele><time>2026-04-05T17:10:44.984Z</time></trkpt><trkpt lat="45.43480741209735" lon="8.112101052023974"><ele>257.0</ele><time>2026-04-05T17:10:45.984Z</time></trkpt><trkpt lat="45.434992994295555" lon="8.112103305153235"><ele>256.0</ele><time>2026-04-05T17:10:46.984Z</time></trkpt><trkpt lat="45.43518072373912" lon="8.112110128950796"><ele>255.0</ele><time>2026-04-05T17:10:47.984Z</time></trkpt><trkpt lat="45.43536547056321" lon="8.112112795654491"><ele>254.0</ele><time>2026-04-05T17:10:48.984Z</time></trkpt><trkpt lat="45.435552199916415" lon="8.112120184952405"><ele>254.0</ele><time>2026-04-05T17:10:49.984Z</time></trkpt><trkpt lat="45.43573929576366" lon="8.112126369980865"><ele>254.0</ele><time>2026-04-05T17:10:50.984Z</time></trkpt><trkpt lat="45.43592333359711" lon="8.112132244190626"><ele>254.0</ele><time>2026-04-05T17:10:51.984Z</time></trkpt><trkpt lat="45.43610499469174" lon="8.112136424244225"><ele>254.0</ele><time>2026-04-05T17:10:52.984Z</time></trkpt><trkpt lat="45.436283383150574" lon="8.112139261125101"><ele>254.0</ele><time>2026-04-05T17:10:53.984Z</time></trkpt><trkpt lat="45.436454983486115" lon="8.112145189629379"><ele>254.0</ele><time>2026-04-05T17:10:54.984Z</time></trkpt><trkpt lat="45.43661719777305" lon="8.112150414433513"><ele>254.5</ele><time>2026-04-05T17:10:55.984Z</time></trkpt><trkpt lat="45.4367728204436" lon="8.112154688460258"><ele>255.0</ele><time>2026-04-05T17:10:56.984Z</time></trkpt><trkpt lat="45.436925548205366" lon="8.112157679223445"><ele>255.5</ele><time>2026-04-05T17:10:57.984Z</time></trkpt><trkpt lat="45.437065375442735" lon="8.112162291420034"><ele>256.0</ele><time>2026-04-05T17:10:58.984Z</time></trkpt><trkpt lat="45.43718861186015" lon="8.112166278909397"><ele>257.0</ele><time>2026-04-05T17:10:59.984Z</time></trkpt><trkpt lat="45.43730738821038" lon="8.112171543469698"><ele>258.0</ele><time>2026-04-05T17:11:00.984Z</time></trkpt><trkpt lat="45.437424835019016" lon="8.112176224008612"><ele>259.0</ele><time>2026-04-05T17:11:01.984Z</time></trkpt><trkpt lat="45.43754990413385" lon="8.112179601055848"><ele>260.0</ele><time>2026-04-05T17:11:02.984Z</time></trkpt><trkpt lat="45.43769218379346" lon="8.112179593692472"><ele>260.0</ele><time>2026-04-05T17:11:03.984Z</time></trkpt><trkpt lat="45.43785146957514" lon="8.11218081088815"><ele>260.0</ele><time>2026-04-05T17:11:04.984Z</time></trkpt><trkpt lat="45.438024326211625" lon="8.112185424781202"><ele>260.0</ele><time>2026-04-05T17:11:05.984Z</time></trkpt><trkpt lat="45.43820198700032" lon="8.112191885544869"><ele>260.6666666666667</ele><time>2026-04-05T17:11:06.984Z</time></trkpt><trkpt lat="45.43838189451794" lon="8.112200379192748"><ele>261.3333333333333</ele><time>2026-04-05T17:11:07.984Z</time></trkpt><trkpt lat="45.438566848993744" lon="8.112206868964302"><ele>262.0</ele><time>2026-04-05T17:11:08.984Z</time></trkpt><trkpt lat="45.43875400575889" lon="8.112211841292028"><ele>262.0</ele><time>2026-04-05T17:11:09.984Z</time></trkpt><trkpt lat="45.43893950306706" lon="8.112238627402878"><ele>262.0</ele><time>2026-04-05T17:11:10.984Z</time></trkpt><trkpt lat="45.4391196591791" lon="8.112244186203604"><ele>262.0</ele><time>2026-04-05T17:11:11.984Z</time></trkpt><trkpt lat="45.43930230233288" lon="8.112249821743681"><ele>262.0</ele><time>2026-04-05T17:11:12.984Z</time></trkpt><trkpt lat="45.439487082590524" lon="8.112255523224228"><ele>262.0</ele><time>2026-04-05T17:11:13.984Z</time></trkpt><trkpt lat="45.43967021016665" lon="8.112260891881899"><ele>262.0</ele><time>2026-04-05T17:11:14.984Z</time></trkpt><trkpt lat="45.43985366859614" lon="8.112266192924084"><ele>261.3333333333333</ele><time>2026-04-05T17:11:15.984Z</time></trkpt><trkpt lat="45.440036791076636" lon="8.112271484259534"><ele>260.6666666666667</ele><time>2026-04-05T17:11:16.984Z</time></trkpt><trkpt lat="45.44022421893434" lon="8.112276899998722"><ele>260.0</ele><time>2026-04-05T17:11:17.984Z</time></trkpt><trkpt lat="45.4404125762094" lon="8.112282342593165"><ele>260.33333333333337</ele><time>2026-04-05T17:11:18.983Z</time></trkpt><trkpt lat="45.44060710141772" lon="8.112287963409509"><ele>260.6666666666667</ele><time>2026-04-05T17:11:19.983Z</time></trkpt><trkpt lat="45.44080374527873" lon="8.112293645445893"><ele>261.0</ele><time>2026-04-05T17:11:20.983Z</time></trkpt><trkpt lat="45.44099995789483" lon="8.112279379803745"><ele>261.0</ele><time>2026-04-05T17:11:21.983Z</time></trkpt><trkpt lat="45.44119334691484" lon="8.112306545031462"><ele>261.0</ele><time>2026-04-05T17:11:22.983Z</time></trkpt><trkpt lat="45.44138624593853" lon="8.11231074409384"><ele>261.0</ele><time>2026-04-05T17:11:23.983Z</time></trkpt><trkpt lat="45.44158004052217" lon="8.112311771467715"><ele>260.0</ele><time>2026-04-05T17:11:24.983Z</time></trkpt><trkpt lat="45.44177083312367" lon="8.112313620754447"><ele>259.0</ele><time>2026-04-05T17:11:25.983Z</time></trkpt><trkpt lat="45.44196089096152" lon="8.112314458674284"><ele>258.0</ele><time>2026-04-05T17:11:26.983Z</time></trkpt><trkpt lat="45.44214740280037" lon="8.112318661818318"><ele>257.3333333333333</ele><time>2026-04-05T17:11:27.983Z</time></trkpt><trkpt lat="45.442328509191775" lon="8.112328718420933"><ele>256.66666666666663</ele><time>2026-04-05T17:11:28.983Z</time></trkpt><trkpt lat="45.4424997436862" lon="8.112336271670147"><ele>256.0</ele><time>2026-04-05T17:11:29.983Z</time></trkpt><trkpt lat="45.44266112082237" lon="8.112337926578883"><ele>256.0</ele><time>2026-04-05T17:11:30.983Z</time></trkpt><trkpt lat="45.442822360545065" lon="8.112338577193766"><ele>256.0</ele><time>2026-04-05T17:11:31.983Z</time></trkpt><trkpt lat="45.44297739712944" lon="8.112341718396648"><ele>256.0</ele><time>2026-04-05T17:11:32.983Z</time></trkpt><trkpt lat="45.443124603700156" lon="8.112345937227404"><ele>254.5</ele><time>2026-04-05T17:11:33.983Z</time></trkpt><trkpt lat="45.443268583846624" lon="8.112351365796895"><ele>253.0</ele><time>2026-04-05T17:11:34.983Z</time></trkpt><trkpt lat="45.443409324273325" lon="8.112353522489498"><ele>251.5</ele><time>2026-04-05T17:11:35.983Z</time></trkpt><trkpt lat="45.44354919107802" lon="8.112362633521082"><ele>250.0</ele><time>2026-04-05T17:11:36.983Z</time></trkpt><trkpt lat="45.44367673947671" lon="8.112367352223478"><ele>250.0</ele><time>2026-04-05T17:11:37.983Z</time></trkpt><trkpt lat="45.44378989348476" lon="8.112368856619318"><ele>250.0</ele><time>2026-04-05T17:11:38.983Z</time></trkpt><trkpt lat="45.44389199776739" lon="8.112401421461369"><ele>250.0</ele><time>2026-04-05T17:11:39.983Z</time></trkpt><trkpt lat="45.443981502855614" lon="8.112399548962681"><ele>250.0</ele><time>2026-04-05T17:11:40.983Z</time></trkpt><trkpt lat="45.44406320108342" lon="8.112399965129187"><ele>250.0</ele><time>2026-04-05T17:11:41.983Z</time></trkpt><trkpt lat="45.44413909468123" lon="8.1123989876785"><ele>249.83333333333331</ele><time>2026-04-05T17:11:42.983Z</time></trkpt><trkpt lat="45.44420616067075" lon="8.11239966339059"><ele>249.66666666666666</ele><time>2026-04-05T17:11:43.983Z</time></trkpt><trkpt lat="45.44430628812203" lon="8.11240104101058"><ele>249.5</ele><time>2026-04-05T17:11:45.983Z</time></trkpt><trkpt lat="45.44439853969472" lon="8.112406932171353"><ele>249.33333333333331</ele><time>2026-04-05T17:11:47.983Z</time></trkpt><trkpt lat="45.44450383122156" lon="8.112399186146451"><ele>249.16666666666666</ele><time>2026-04-05T17:11:49.983Z</time></trkpt><trkpt lat="45.444572029502346" lon="8.112406232668999"><ele>249.0</ele><time>2026-04-05T17:11:50.983Z</time></trkpt><trkpt lat="45.444648450795" lon="8.112401779892256"><ele>249.0</ele><time>2026-04-05T17:11:51.983Z</time></trkpt><trkpt lat="45.444737973781145" lon="8.11239936947724"><ele>248.99999999999997</ele><time>2026-04-05T17:11:52.983Z</time></trkpt><trkpt lat="45.44484475242571" lon="8.112397387417298"><ele>248.99999999999997</ele><time>2026-04-05T17:11:53.983Z</time></trkpt><trkpt lat="45.44496198320541" lon="8.112414376171126"><ele>249.0</ele><time>2026-04-05T17:11:54.983Z</time></trkpt><trkpt lat="45.445093660482534" lon="8.112415932968775"><ele>249.0</ele><time>2026-04-05T17:11:55.983Z</time></trkpt><trkpt lat="45.445231013563856" lon="8.11241951311471"><ele>247.75</ele><time>2026-04-05T17:11:56.983Z</time></trkpt><trkpt lat="45.445367350852415" lon="8.112422878942162"><ele>246.5</ele><time>2026-04-05T17:11:57.983Z</time></trkpt><trkpt lat="45.44549830359023" lon="8.112425461177548"><ele>245.25</ele><time>2026-04-05T17:11:58.983Z</time></trkpt><trkpt lat="45.445626135955884" lon="8.112408345247227"><ele>244.0</ele><time>2026-04-05T17:11:59.983Z</time></trkpt><trkpt lat="45.44574811221002" lon="8.112441023295435"><ele>242.25</ele><time>2026-04-05T17:12:00.983Z</time></trkpt><trkpt lat="45.445867253338776" lon="8.11244962087265"><ele>240.5</ele><time>2026-04-05T17:12:01.983Z</time></trkpt><trkpt lat="45.44598583577515" lon="8.112456001893472"><ele>238.75</ele><time>2026-04-05T17:12:02.983Z</time></trkpt><trkpt lat="45.44610247843771" lon="8.112462201364421"><ele>237.0</ele><time>2026-04-05T17:12:03.983Z</time></trkpt><trkpt lat="45.44621743034019" lon="8.1124682232104"><ele>237.25</ele><time>2026-04-05T17:12:04.983Z</time></trkpt><trkpt lat="45.446336083814735" lon="8.112472973483946"><ele>237.5</ele><time>2026-04-05T17:12:05.982Z</time></trkpt><trkpt lat="45.446459610241675" lon="8.112475054907437"><ele>237.75</ele><time>2026-04-05T17:12:06.982Z</time></trkpt><trkpt lat="45.446588505610556" lon="8.112478677685196"><ele>238.0</ele><time>2026-04-05T17:12:07.982Z</time></trkpt><trkpt lat="45.44671582832477" lon="8.112491512279368"><ele>238.0</ele><time>2026-04-05T17:12:08.982Z</time></trkpt><trkpt lat="45.44684615832169" lon="8.112515289283474"><ele>238.0</ele><time>2026-04-05T17:12:09.982Z</time></trkpt><trkpt lat="45.44697735678668" lon="8.112556165974667"><ele>238.0</ele><time>2026-04-05T17:12:10.982Z</time></trkpt><trkpt lat="45.44710707443973" lon="8.112611410576513"><ele>238.0</ele><time>2026-04-05T17:12:11.982Z</time></trkpt><trkpt lat="45.44723567799847" lon="8.11267092276649"><ele>240.75</ele><time>2026-04-05T17:12:12.982Z</time></trkpt><trkpt lat="45.447361257149666" lon="8.112742114769953"><ele>243.5</ele><time>2026-04-05T17:12:13.982Z</time></trkpt><trkpt lat="45.44748298581244" lon="8.11280597605146"><ele>246.25</ele><time>2026-04-05T17:12:14.982Z</time></trkpt><trkpt lat="45.44761437825987" lon="8.112861517920013"><ele>249.0</ele><time>2026-04-05T17:12:15.982Z</time></trkpt><trkpt lat="45.44775145680513" lon="8.1129063222795"><ele>249.0</ele><time>2026-04-05T17:12:16.982Z</time></trkpt><trkpt lat="45.447891227015475" lon="8.112944746694833"><ele>249.0</ele><time>2026-04-05T17:12:17.982Z</time></trkpt><trkpt lat="45.44804081115348" lon="8.112970665691392"><ele>249.0</ele><time>2026-04-05T17:12:18.982Z</time></trkpt><trkpt lat="45.44819233819636" lon="8.112984631734154"><ele>249.0</ele><time>2026-04-05T17:12:19.982Z</time></trkpt><trkpt lat="45.44834798818735" lon="8.11299141827399"><ele>251.0</ele><time>2026-04-05T17:12:20.982Z</time></trkpt><trkpt lat="45.448504876787794" lon="8.112986795151281"><ele>253.0</ele><time>2026-04-05T17:12:21.982Z</time></trkpt><trkpt lat="45.4486653724125" lon="8.112969750616758"><ele>255.0</ele><time>2026-04-05T17:12:22.982Z</time></trkpt><trkpt lat="45.448818530392195" lon="8.11294494920765"><ele>250.25</ele><time>2026-04-05T17:12:23.982Z</time></trkpt><trkpt lat="45.44896970128788" lon="8.112919371272"><ele>245.5</ele><time>2026-04-05T17:12:24.982Z</time></trkpt><trkpt lat="45.44911346792527" lon="8.11289452064623"><ele>240.75</ele><time>2026-04-05T17:12:25.982Z</time></trkpt><trkpt lat="45.449248527703276" lon="8.112874605859604"><ele>236.0</ele><time>2026-04-05T17:12:26.982Z</time></trkpt><trkpt lat="45.44937818684612" lon="8.112850515610731"><ele>236.0</ele><time>2026-04-05T17:12:27.982Z</time></trkpt><trkpt lat="45.44950337211169" lon="8.112826196501569"><ele>236.0</ele><time>2026-04-05T17:12:28.982Z</time></trkpt><trkpt lat="45.449624489049604" lon="8.112806338613856"><ele>236.0</ele><time>2026-04-05T17:12:29.982Z</time></trkpt><trkpt lat="45.44974727603222" lon="8.112788179859782"><ele>236.0</ele><time>2026-04-05T17:12:30.982Z</time></trkpt><trkpt lat="45.449873364899794" lon="8.112763841074957"><ele>233.25</ele><time>2026-04-05T17:12:31.982Z</time></trkpt><trkpt lat="45.449997407626995" lon="8.112739727121705"><ele>230.5</ele><time>2026-04-05T17:12:32.982Z</time></trkpt><trkpt lat="45.450119733365916" lon="8.112718561585387"><ele>227.75</ele><time>2026-04-05T17:12:33.982Z</time></trkpt><trkpt lat="45.450237407414605" lon="8.112699621781589"><ele>225.0</ele><time>2026-04-05T17:12:34.982Z</time></trkpt><trkpt lat="45.45035078352462" lon="8.112677945091768"><ele>225.0</ele><time>2026-04-05T17:12:35.982Z</time></trkpt><trkpt lat="45.45045690755561" lon="8.112648428456566"><ele>225.0</ele><time>2026-04-05T17:12:36.982Z</time></trkpt><trkpt lat="45.450555276288206" lon="8.112621463635366"><ele>225.0</ele><time>2026-04-05T17:12:37.982Z</time></trkpt><trkpt lat="45.45065046042118" lon="8.112592182394286"><ele>225.0</ele><time>2026-04-05T17:12:38.982Z</time></trkpt><trkpt lat="45.45073519404035" lon="8.112562027636082"><ele>225.0</ele><time>2026-04-05T17:12:39.982Z</time></trkpt><trkpt lat="45.45080560916933" lon="8.112540735413663"><ele>225.0</ele><time>2026-04-05T17:12:40.982Z</time></trkpt><trkpt lat="45.45086931537471" lon="8.11254024743797"><ele>225.0</ele><time>2026-04-05T17:12:41.982Z</time></trkpt><trkpt lat="45.450971617145186" lon="8.112599060772835"><ele>225.0</ele><time>2026-04-05T17:12:43.982Z</time></trkpt><trkpt lat="45.45102748836037" lon="8.112736965751616"><ele>225.0</ele><time>2026-04-05T17:12:45.982Z</time></trkpt><trkpt lat="45.4510079811019" lon="8.11286040623604"><ele>225.0</ele><time>2026-04-05T17:12:46.982Z</time></trkpt><trkpt lat="45.45096415689398" lon="8.112974316542624"><ele>225.0</ele><time>2026-04-05T17:12:47.982Z</time></trkpt><trkpt lat="45.45094297694008" lon="8.113123491674612"><ele>225.0</ele><time>2026-04-05T17:12:48.982Z</time></trkpt><trkpt lat="45.45091902540525" lon="8.113266667462723"><ele>225.0</ele><time>2026-04-05T17:12:49.982Z</time></trkpt><trkpt lat="45.45090384865696" lon="8.11340384931137"><ele>225.0</ele><time>2026-04-05T17:12:50.982Z</time></trkpt><trkpt lat="45.45087310707156" lon="8.113545549917006"><ele>225.0</ele><time>2026-04-05T17:12:51.982Z</time></trkpt><trkpt lat="45.450862616416096" lon="8.113701549487802"><ele>225.0</ele><time>2026-04-05T17:12:52.981Z</time></trkpt><trkpt lat="45.450872943576854" lon="8.113871565085558"><ele>225.0</ele><time>2026-04-05T17:12:53.981Z</time></trkpt><trkpt lat="45.450865799812625" lon="8.114054879906588"><ele>225.0</ele><time>2026-04-05T17:12:54.981Z</time></trkpt><trkpt lat="45.450863880499064" lon="8.114253176169086"><ele>225.0</ele><time>2026-04-05T17:12:55.981Z</time></trkpt><trkpt lat="45.450870101014225" lon="8.114443470442703"><ele>224.75</ele><time>2026-04-05T17:12:56.981Z</time></trkpt><trkpt lat="45.45087609129008" lon="8.114626718814153"><ele>224.5</ele><time>2026-04-05T17:12:57.981Z</time></trkpt><trkpt lat="45.450881682473444" lon="8.114806782936675"><ele>224.25</ele><time>2026-04-05T17:12:58.981Z</time></trkpt><trkpt lat="45.45088854063092" lon="8.114979487290098"><ele>224.0</ele><time>2026-04-05T17:12:59.981Z</time></trkpt><trkpt lat="45.450894146585135" lon="8.115148923240232"><ele>224.2</ele><time>2026-04-05T17:13:00.981Z</time></trkpt><trkpt lat="45.45089643987267" lon="8.115310251563209"><ele>224.39999999999998</ele><time>2026-04-05T17:13:01.981Z</time></trkpt><trkpt lat="45.45090298395319" lon="8.115458936699643"><ele>224.6</ele><time>2026-04-05T17:13:02.981Z</time></trkpt><trkpt lat="45.45091055987535" lon="8.115586968608783"><ele>224.8</ele><time>2026-04-05T17:13:03.981Z</time></trkpt><trkpt lat="45.45091109355015" lon="8.115692318260141"><ele>225.0</ele><time>2026-04-05T17:13:04.981Z</time></trkpt><trkpt lat="45.450889233994054" lon="8.115847863181596"><ele>225.0</ele><time>2026-04-05T17:13:06.981Z</time></trkpt><trkpt lat="45.45082309787513" lon="8.115961039879428"><ele>225.0</ele><time>2026-04-05T17:13:08.981Z</time></trkpt><trkpt lat="45.45075540383514" lon="8.115978412260475"><ele>225.0</ele><time>2026-04-05T17:13:09.981Z</time></trkpt><trkpt lat="45.45067226998512" lon="8.115977919950334"><ele>225.0</ele><time>2026-04-05T17:13:10.981Z</time></trkpt><trkpt lat="45.45057774361231" lon="8.11598764101379"><ele>225.0</ele><time>2026-04-05T17:13:11.981Z</time></trkpt><trkpt lat="45.45047227115253" lon="8.11601197866328"><ele>224.5</ele><time>2026-04-05T17:13:12.981Z</time></trkpt><trkpt lat="45.450363043167116" lon="8.116078528305655"><ele>224.0</ele><time>2026-04-05T17:13:13.981Z</time></trkpt><trkpt lat="45.45026018361693" lon="8.116191701380357"><ele>223.5</ele><time>2026-04-05T17:13:14.981Z</time></trkpt><trkpt lat="45.450185399719246" lon="8.11633707766347"><ele>223.0</ele><time>2026-04-05T17:13:15.981Z</time></trkpt><trkpt lat="45.45012705858166" lon="8.116503092406342"><ele>222.66666666666666</ele><time>2026-04-05T17:13:16.981Z</time></trkpt><trkpt lat="45.45007837940137" lon="8.11669647982529"><ele>222.33333333333331</ele><time>2026-04-05T17:13:17.981Z</time></trkpt><trkpt lat="45.45002530283651" lon="8.116909733509232"><ele>222.0</ele><time>2026-04-05T17:13:18.981Z</time></trkpt><trkpt lat="45.4499514845972" lon="8.11712984570435"><ele>222.0</ele><time>2026-04-05T17:13:19.981Z</time></trkpt><trkpt lat="45.44988819899594" lon="8.117374845624965"><ele>222.0</ele><time>2026-04-05T17:13:20.981Z</time></trkpt><trkpt lat="45.449825397936806" lon="8.117617969719987"><ele>222.0</ele><time>2026-04-05T17:13:21.981Z</time></trkpt><trkpt lat="45.4497663108939" lon="8.11784671560482"><ele>221.66666666666669</ele><time>2026-04-05T17:13:22.981Z</time></trkpt><trkpt lat="45.449709957088146" lon="8.118064880204011"><ele>221.33333333333334</ele><time>2026-04-05T17:13:23.981Z</time></trkpt><trkpt lat="45.44965481290394" lon="8.118278361949844"><ele>221.0</ele><time>2026-04-05T17:13:24.981Z</time></trkpt><trkpt lat="45.44959685637207" lon="8.118502731246094"><ele>220.66666666666669</ele><time>2026-04-05T17:13:25.981Z</time></trkpt><trkpt lat="45.44953718833661" lon="8.118733726350198"><ele>220.33333333333331</ele><time>2026-04-05T17:13:26.981Z</time></trkpt><trkpt lat="45.449474629986895" lon="8.118970560743747"><ele>220.0</ele><time>2026-04-05T17:13:27.981Z</time></trkpt><trkpt lat="45.449412345235835" lon="8.119215509125025"><ele>220.0</ele><time>2026-04-05T17:13:28.981Z</time></trkpt><trkpt lat="45.449354708953216" lon="8.119468434127661"><ele>220.0</ele><time>2026-04-05T17:13:29.981Z</time></trkpt><trkpt lat="45.44930492691401" lon="8.119729847484251"><ele>220.0</ele><time>2026-04-05T17:13:30.981Z</time></trkpt><trkpt lat="45.44926345363412" lon="8.119996357403439"><ele>220.0</ele><time>2026-04-05T17:13:31.981Z</time></trkpt><trkpt lat="45.44922519026881" lon="8.120250567393326"><ele>220.0</ele><time>2026-04-05T17:13:32.981Z</time></trkpt><trkpt lat="45.449189202956624" lon="8.1204951530899"><ele>220.0</ele><time>2026-04-05T17:13:33.981Z</time></trkpt><trkpt lat="45.44915563819425" lon="8.120732341456963"><ele>219.33333333333331</ele><time>2026-04-05T17:13:34.981Z</time></trkpt><trkpt lat="45.44913765713569" lon="8.120978541656724"><ele>218.66666666666669</ele><time>2026-04-05T17:13:35.981Z</time></trkpt><trkpt lat="45.44910058610515" lon="8.121231286673876"><ele>218.0</ele><time>2026-04-05T17:13:36.981Z</time></trkpt><trkpt lat="45.44906354697291" lon="8.12148989759433"><ele>218.33333333333334</ele><time>2026-04-05T17:13:37.981Z</time></trkpt><trkpt lat="45.449030886565694" lon="8.12175816687486"><ele>218.66666666666669</ele><time>2026-04-05T17:13:38.981Z</time></trkpt><trkpt lat="45.44899557310667" lon="8.122034251460988"><ele>219.0</ele><time>2026-04-05T17:13:39.98Z</time></trkpt><trkpt lat="45.448942300008994" lon="8.122314802540272"><ele>219.66666666666669</ele><time>2026-04-05T17:13:40.98Z</time></trkpt><trkpt lat="45.448918459233646" lon="8.122612283914533"><ele>220.33333333333334</ele><time>2026-04-05T17:13:41.98Z</time></trkpt><trkpt lat="45.44887637386996" lon="8.122911110469701"><ele>221.0</ele><time>2026-04-05T17:13:42.98Z</time></trkpt><trkpt lat="45.44883213338879" lon="8.123215604863498"><ele>220.66666666666669</ele><time>2026-04-05T17:13:43.98Z</time></trkpt><trkpt lat="45.44878953882125" lon="8.12352555217667"><ele>220.33333333333331</ele><time>2026-04-05T17:13:44.98Z</time></trkpt><trkpt lat="45.448747057306285" lon="8.123838534688451"><ele>220.0</ele><time>2026-04-05T17:13:45.98Z</time></trkpt><trkpt lat="45.44870480121119" lon="8.124160748100646"><ele>220.0</ele><time>2026-04-05T17:13:46.98Z</time></trkpt><trkpt lat="45.44865981979039" lon="8.12448207944913"><ele>220.0</ele><time>2026-04-05T17:13:47.98Z</time></trkpt><trkpt lat="45.44861379715923" lon="8.124804088987187"><ele>220.0</ele><time>2026-04-05T17:13:48.98Z</time></trkpt><trkpt lat="45.4485699110984" lon="8.125112643046245"><ele>220.0</ele><time>2026-04-05T17:13:49.98Z</time></trkpt><trkpt lat="45.44852973995143" lon="8.1254129432758"><ele>220.0</ele><time>2026-04-05T17:13:50.98Z</time></trkpt><trkpt lat="45.44848988376846" lon="8.12571262001708"><ele>219.66666666666666</ele><time>2026-04-05T17:13:51.98Z</time></trkpt><trkpt lat="45.448450686704376" lon="8.126019562636115"><ele>219.33333333333331</ele><time>2026-04-05T17:13:52.98Z</time></trkpt><trkpt lat="45.44840997061082" lon="8.126329131659688"><ele>219.0</ele><time>2026-04-05T17:13:53.98Z</time></trkpt><trkpt lat="45.44836924388627" lon="8.126637939547111"><ele>218.5</ele><time>2026-04-05T17:13:54.98Z</time></trkpt><trkpt lat="45.44832705219211" lon="8.126950971834983"><ele>218.0</ele><time>2026-04-05T17:13:55.98Z</time></trkpt><trkpt lat="45.44828543677761" lon="8.127268467291453"><ele>218.5</ele><time>2026-04-05T17:13:56.98Z</time></trkpt><trkpt lat="45.448244694678166" lon="8.12758953640908"><ele>219.0</ele><time>2026-04-05T17:13:57.98Z</time></trkpt><trkpt lat="45.44820060551976" lon="8.127909250217243"><ele>217.5</ele><time>2026-04-05T17:13:58.98Z</time></trkpt><trkpt lat="45.448135677059014" lon="8.128226920111333"><ele>216.0</ele><time>2026-04-05T17:13:59.98Z</time></trkpt><trkpt lat="45.448088911934356" lon="8.128550969416942"><ele>216.0</ele><time>2026-04-05T17:14:00.98Z</time></trkpt><trkpt lat="45.44804624308641" lon="8.128877600179006"><ele>216.0</ele><time>2026-04-05T17:14:01.98Z</time></trkpt><trkpt lat="45.44800066056647" lon="8.129208264851938"><ele>216.5</ele><time>2026-04-05T17:14:02.98Z</time></trkpt><trkpt lat="45.44795451774381" lon="8.129541589727175"><ele>217.0</ele><time>2026-04-05T17:14:03.98Z</time></trkpt><trkpt lat="45.44790925200135" lon="8.129876224697899"><ele>217.0</ele><time>2026-04-05T17:14:04.98Z</time></trkpt><trkpt lat="45.44786678514765" lon="8.130209419556843"><ele>217.0</ele><time>2026-04-05T17:14:05.98Z</time></trkpt><trkpt lat="45.44782514291968" lon="8.13054546528678"><ele>217.0</ele><time>2026-04-05T17:14:06.98Z</time></trkpt><trkpt lat="45.44778230049468" lon="8.130881515154595"><ele>217.0</ele><time>2026-04-05T17:14:07.98Z</time></trkpt><trkpt lat="45.44773829371512" lon="8.131217218327546"><ele>217.0</ele><time>2026-04-05T17:14:08.98Z</time></trkpt><trkpt lat="45.447693132846965" lon="8.131553673549108"><ele>217.0</ele><time>2026-04-05T17:14:09.98Z</time></trkpt><trkpt lat="45.44765168627177" lon="8.131891353532275"><ele>216.5</ele><time>2026-04-05T17:14:10.98Z</time></trkpt><trkpt lat="45.44760945709277" lon="8.132231172784275"><ele>216.0</ele><time>2026-04-05T17:14:11.98Z</time></trkpt><trkpt lat="45.4475651295393" lon="8.132574733876936"><ele>215.5</ele><time>2026-04-05T17:14:12.98Z</time></trkpt><trkpt lat="45.447522801514054" lon="8.13291723891532"><ele>215.0</ele><time>2026-04-05T17:14:13.98Z</time></trkpt><trkpt lat="45.447479297420216" lon="8.133255787674706"><ele>215.0</ele><time>2026-04-05T17:14:14.98Z</time></trkpt><trkpt lat="45.44743549866546" lon="8.133592941538884"><ele>215.0</ele><time>2026-04-05T17:14:15.98Z</time></trkpt><trkpt lat="45.447390181738015" lon="8.133928057005608"><ele>214.5</ele><time>2026-04-05T17:14:16.98Z</time></trkpt><trkpt lat="45.447344709166266" lon="8.134260200982338"><ele>214.0</ele><time>2026-04-05T17:14:17.98Z</time></trkpt><trkpt lat="45.44729941771998" lon="8.134590957767529"><ele>214.5</ele><time>2026-04-05T17:14:18.98Z</time></trkpt><trkpt lat="45.44725570529075" lon="8.134918793047804"><ele>215.0</ele><time>2026-04-05T17:14:19.98Z</time></trkpt><trkpt lat="45.44721292345714" lon="8.135245909232596"><ele>215.0</ele><time>2026-04-05T17:14:20.98Z</time></trkpt><trkpt lat="45.4471532507779" lon="8.135563419016663"><ele>215.0</ele><time>2026-04-05T17:14:21.98Z</time></trkpt><trkpt lat="45.44711039176669" lon="8.135883295578633"><ele>214.66666666666669</ele><time>2026-04-05T17:14:22.98Z</time></trkpt><trkpt lat="45.44706808649341" lon="8.136199039282888"><ele>214.33333333333331</ele><time>2026-04-05T17:14:23.98Z</time></trkpt><trkpt lat="45.44702639848083" lon="8.136508604423522"><ele>214.0</ele><time>2026-04-05T17:14:24.98Z</time></trkpt><trkpt lat="45.44698522738945" lon="8.136812109027161"><ele>214.0</ele><time>2026-04-05T17:14:25.98Z</time></trkpt><trkpt lat="45.446944306559" lon="8.137113768576214"><ele>214.0</ele><time>2026-04-05T17:14:26.979Z</time></trkpt><trkpt lat="45.4469032506619" lon="8.137416424034853"><ele>214.0</ele><time>2026-04-05T17:14:27.979Z</time></trkpt><trkpt lat="45.44686219699648" lon="8.137719062601475"><ele>214.0</ele><time>2026-04-05T17:14:28.979Z</time></trkpt><trkpt lat="45.44682085145454" lon="8.138022800424112"><ele>214.0</ele><time>2026-04-05T17:14:29.979Z</time></trkpt><trkpt lat="45.446779001246014" lon="8.138329490222455"><ele>214.0</ele><time>2026-04-05T17:14:30.979Z</time></trkpt><trkpt lat="45.44673673636438" lon="8.138639218914387"><ele>213.66666666666666</ele><time>2026-04-05T17:14:31.979Z</time></trkpt><trkpt lat="45.44669442504996" lon="8.138952486744284"><ele>213.33333333333331</ele><time>2026-04-05T17:14:32.979Z</time></trkpt><trkpt lat="45.446652534169" lon="8.139264744348594"><ele>213.0</ele><time>2026-04-05T17:14:33.979Z</time></trkpt><trkpt lat="45.44661013737099" lon="8.13958077319495"><ele>212.5</ele><time>2026-04-05T17:14:34.979Z</time></trkpt><trkpt lat="45.44656724582757" lon="8.139900489909211"><ele>212.0</ele><time>2026-04-05T17:14:35.979Z</time></trkpt><trkpt lat="45.44652402975951" lon="8.140223490708047"><ele>212.0</ele><time>2026-04-05T17:14:36.979Z</time></trkpt><trkpt lat="45.446480603647565" lon="8.140548845716934"><ele>212.0</ele><time>2026-04-05T17:14:37.979Z</time></trkpt><trkpt lat="45.44643713717299" lon="8.140874503607685"><ele>212.5</ele><time>2026-04-05T17:14:38.979Z</time></trkpt><trkpt lat="45.44639851011568" lon="8.141203201792763"><ele>213.0</ele><time>2026-04-05T17:14:39.979Z</time></trkpt><trkpt lat="45.44635184461343" lon="8.141528763622883"><ele>213.0</ele><time>2026-04-05T17:14:40.979Z</time></trkpt><trkpt lat="45.446307638200665" lon="8.141855160103825"><ele>213.0</ele><time>2026-04-05T17:14:41.979Z</time></trkpt><trkpt lat="45.446265982403794" lon="8.14218548277218"><ele>212.0</ele><time>2026-04-05T17:14:42.979Z</time></trkpt><trkpt lat="45.44622298382936" lon="8.142517944063675"><ele>211.0</ele><time>2026-04-05T17:14:43.979Z</time></trkpt><trkpt lat="45.44617870461469" lon="8.142851082286565"><ele>211.0</ele><time>2026-04-05T17:14:44.979Z</time></trkpt><trkpt lat="45.44613304951042" lon="8.143187675952783"><ele>211.0</ele><time>2026-04-05T17:14:45.979Z</time></trkpt><trkpt lat="45.446088808771" lon="8.14352446474521"><ele>210.5</ele><time>2026-04-05T17:14:46.979Z</time></trkpt><trkpt lat="45.44604301961517" lon="8.143860478963738"><ele>210.0</ele><time>2026-04-05T17:14:47.979Z</time></trkpt><trkpt lat="45.445999009565504" lon="8.144193674145988"><ele>210.0</ele><time>2026-04-05T17:14:48.979Z</time></trkpt><trkpt lat="45.44595658281565" lon="8.144513441316617"><ele>210.0</ele><time>2026-04-05T17:14:49.979Z</time></trkpt><trkpt lat="45.44591574233803" lon="8.144815871179887"><ele>210.0</ele><time>2026-04-05T17:14:50.979Z</time></trkpt><trkpt lat="45.44587453751291" lon="8.145100934050255"><ele>210.0</ele><time>2026-04-05T17:14:51.979Z</time></trkpt><trkpt lat="45.44583583157504" lon="8.145371437836085"><ele>210.0</ele><time>2026-04-05T17:14:52.979Z</time></trkpt><trkpt lat="45.445800109481176" lon="8.145633572462357"><ele>210.0</ele><time>2026-04-05T17:14:53.979Z</time></trkpt><trkpt lat="45.44576560170112" lon="8.145888500561036"><ele>210.33333333333331</ele><time>2026-04-05T17:14:54.979Z</time></trkpt><trkpt lat="45.4457395129489" lon="8.146140608443558"><ele>210.66666666666666</ele><time>2026-04-05T17:14:55.979Z</time></trkpt><trkpt lat="45.44572212774788" lon="8.14640737700742"><ele>211.0</ele><time>2026-04-05T17:14:56.979Z</time></trkpt><trkpt lat="45.445696716699075" lon="8.146647879926691"><ele>211.33333333333331</ele><time>2026-04-05T17:14:57.979Z</time></trkpt><trkpt lat="45.445678024221436" lon="8.14690018844028"><ele>211.66666666666669</ele><time>2026-04-05T17:14:58.979Z</time></trkpt><trkpt lat="45.445659518321946" lon="8.147154705907509"><ele>212.0</ele><time>2026-04-05T17:14:59.979Z</time></trkpt><trkpt lat="45.44563527455788" lon="8.147407576191812"><ele>212.66666666666669</ele><time>2026-04-05T17:15:00.979Z</time></trkpt><trkpt lat="45.445616638556366" lon="8.147662136866316"><ele>213.33333333333331</ele><time>2026-04-05T17:15:01.979Z</time></trkpt><trkpt lat="45.44559621793106" lon="8.147910071976604"><ele>214.0</ele><time>2026-04-05T17:15:02.979Z</time></trkpt><trkpt lat="45.44557916963614" lon="8.148149879425793"><ele>214.33333333333331</ele><time>2026-04-05T17:15:03.979Z</time></trkpt><trkpt lat="45.44556233996665" lon="8.148378429857651"><ele>214.66666666666669</ele><time>2026-04-05T17:15:04.979Z</time></trkpt><trkpt lat="45.445543737915536" lon="8.148591224739574"><ele>215.0</ele><time>2026-04-05T17:15:05.98Z</time></trkpt><trkpt lat="45.44552850688766" lon="8.148793534740806"><ele>215.0</ele><time>2026-04-05T17:15:06.98Z</time></trkpt><trkpt lat="45.44551624596776" lon="8.14898314148147"><ele>215.0</ele><time>2026-04-05T17:15:07.98Z</time></trkpt><trkpt lat="45.445509427211555" lon="8.149155938203732"><ele>215.0</ele><time>2026-04-05T17:15:08.98Z</time></trkpt><trkpt lat="45.445514839405625" lon="8.149312855078142"><ele>215.0</ele><time>2026-04-05T17:15:09.98Z</time></trkpt><trkpt lat="45.445539320363594" lon="8.14946603613253"><ele>215.0</ele><time>2026-04-05T17:15:10.98Z</time></trkpt><trkpt lat="45.445579490265075" lon="8.149618575435372"><ele>215.0</ele><time>2026-04-05T17:15:11.98Z</time></trkpt><trkpt lat="45.44562517504791" lon="8.149781382939008"><ele>215.0</ele><time>2026-04-05T17:15:12.979Z</time></trkpt><trkpt lat="45.44567643978309" lon="8.149954036381345"><ele>215.0</ele><time>2026-04-05T17:15:13.979Z</time></trkpt><trkpt lat="45.44572639504981" lon="8.150130288183345"><ele>215.25</ele><time>2026-04-05T17:15:14.979Z</time></trkpt><trkpt lat="45.445776092310155" lon="8.15030870307794"><ele>215.5</ele><time>2026-04-05T17:15:15.979Z</time></trkpt><trkpt lat="45.4458229458753" lon="8.15048665274344"><ele>215.75</ele><time>2026-04-05T17:15:16.979Z</time></trkpt><trkpt lat="45.445867293096384" lon="8.150654884301538"><ele>216.0</ele><time>2026-04-05T17:15:17.979Z</time></trkpt><trkpt lat="45.44590497394518" lon="8.150807706386008"><ele>216.0</ele><time>2026-04-05T17:15:18.979Z</time></trkpt><trkpt lat="45.44593551822978" lon="8.150944665371956"><ele>216.00000000000003</ele><time>2026-04-05T17:15:19.979Z</time></trkpt><trkpt lat="45.4459625172744" lon="8.151061986858881"><ele>216.00000000000003</ele><time>2026-04-05T17:15:20.979Z</time></trkpt><trkpt lat="45.44598351300081" lon="8.151161941965256"><ele>216.0</ele><time>2026-04-05T17:15:21.979Z</time></trkpt><trkpt lat="45.446022726733055" lon="8.15127594467662"><ele>216.0</ele><time>2026-04-05T17:15:23.979Z</time></trkpt><trkpt lat="45.44612070708467" lon="8.151364322041292"><ele>216.0</ele><time>2026-04-05T17:15:25.979Z</time></trkpt><trkpt lat="45.44618129280412" lon="8.151423823713294"><ele>216.0</ele><time>2026-04-05T17:15:26.979Z</time></trkpt><trkpt lat="45.446253559584655" lon="8.151503015074208"><ele>216.0</ele><time>2026-04-05T17:15:27.979Z</time></trkpt><trkpt lat="45.44633061136389" lon="8.151577678031888"><ele>216.0</ele><time>2026-04-05T17:15:28.979Z</time></trkpt><trkpt lat="45.44640780062325" lon="8.151652817748126"><ele>216.0</ele><time>2026-04-05T17:15:29.979Z</time></trkpt><trkpt lat="45.44647618139909" lon="8.151733928790762"><ele>216.0</ele><time>2026-04-05T17:15:30.979Z</time></trkpt><trkpt lat="45.44653284984323" lon="8.151799868949096"><ele>215.8</ele><time>2026-04-05T17:15:31.979Z</time></trkpt><trkpt lat="45.446623195077656" lon="8.151902601414927"><ele>215.60000000000002</ele><time>2026-04-05T17:15:33.979Z</time></trkpt><trkpt lat="45.44672920312696" lon="8.152000836197477"><ele>215.4</ele><time>2026-04-05T17:15:35.979Z</time></trkpt><trkpt lat="45.44679024113282" lon="8.152073664505622"><ele>215.2</ele><time>2026-04-05T17:15:36.979Z</time></trkpt><trkpt lat="45.446862619671066" lon="8.152158555045503"><ele>215.0</ele><time>2026-04-05T17:15:37.979Z</time></trkpt><trkpt lat="45.44694371740352" lon="8.152250187025404"><ele>215.0</ele><time>2026-04-05T17:15:38.979Z</time></trkpt><trkpt lat="45.44703238675289" lon="8.152348240894728"><ele>215.0</ele><time>2026-04-05T17:15:39.979Z</time></trkpt><trkpt lat="45.44713046720476" lon="8.152455838318572"><ele>215.0</ele><time>2026-04-05T17:15:40.979Z</time></trkpt><trkpt lat="45.44723775548167" lon="8.152571479198842"><ele>215.0</ele><time>2026-04-05T17:15:41.979Z</time></trkpt><trkpt lat="45.44734864875794" lon="8.152693994156241"><ele>214.75</ele><time>2026-04-05T17:15:42.979Z</time></trkpt><trkpt lat="45.44745522323644" lon="8.152812150228762"><ele>214.5</ele><time>2026-04-05T17:15:43.979Z</time></trkpt><trkpt lat="45.44756212001244" lon="8.152924189972701"><ele>214.25</ele><time>2026-04-05T17:15:44.979Z</time></trkpt><trkpt lat="45.447674685251776" lon="8.153045265714635"><ele>214.0</ele><time>2026-04-05T17:15:45.979Z</time></trkpt><trkpt lat="45.44779369513119" lon="8.15317471495436"><ele>213.33333333333331</ele><time>2026-04-05T17:15:46.979Z</time></trkpt><trkpt lat="45.44791881360078" lon="8.153310715897865"><ele>212.66666666666669</ele><time>2026-04-05T17:15:47.979Z</time></trkpt><trkpt lat="45.44804953680953" lon="8.15345050761376"><ele>212.0</ele><time>2026-04-05T17:15:48.979Z</time></trkpt><trkpt lat="45.44818784818652" lon="8.15359337514947"><ele>212.0</ele><time>2026-04-05T17:15:49.979Z</time></trkpt><trkpt lat="45.44832625548481" lon="8.153739742892236"><ele>212.0</ele><time>2026-04-05T17:15:50.979Z</time></trkpt><trkpt lat="45.44846115309459" lon="8.153882298572732"><ele>212.0</ele><time>2026-04-05T17:15:51.979Z</time></trkpt><trkpt lat="45.448590532176" lon="8.15401748064254"><ele>212.33333333333334</ele><time>2026-04-05T17:15:52.979Z</time></trkpt><trkpt lat="45.448719112482806" lon="8.154156233737977"><ele>212.66666666666669</ele><time>2026-04-05T17:15:53.979Z</time></trkpt><trkpt lat="45.448848246432405" lon="8.154301960593271"><ele>213.0</ele><time>2026-04-05T17:15:54.979Z</time></trkpt><trkpt lat="45.44897651428775" lon="8.154450676355388"><ele>213.0</ele><time>2026-04-05T17:15:55.979Z</time></trkpt><trkpt lat="45.449105785850826" lon="8.15460547632977"><ele>213.0</ele><time>2026-04-05T17:15:56.979Z</time></trkpt><trkpt lat="45.449229218346076" lon="8.15476145286233"><ele>213.0</ele><time>2026-04-05T17:15:57.979Z</time></trkpt><trkpt lat="45.4493504147147" lon="8.15491350466877"><ele>213.0</ele><time>2026-04-05T17:15:58.979Z</time></trkpt><trkpt lat="45.44945685883476" lon="8.155076335946797"><ele>213.0</ele><time>2026-04-05T17:15:59.978Z</time></trkpt><trkpt lat="45.449569811321396" lon="8.155224133859283"><ele>213.0</ele><time>2026-04-05T17:16:00.978Z</time></trkpt><trkpt lat="45.44967969068324" lon="8.155369107654394"><ele>213.0</ele><time>2026-04-05T17:16:01.978Z</time></trkpt><trkpt lat="45.449791195135404" lon="8.155516225598925"><ele>213.0</ele><time>2026-04-05T17:16:02.978Z</time></trkpt><trkpt lat="45.449903368936035" lon="8.155663869665469"><ele>213.0</ele><time>2026-04-05T17:16:03.978Z</time></trkpt><trkpt lat="45.450015010042264" lon="8.15581018169679"><ele>213.0</ele><time>2026-04-05T17:16:04.978Z</time></trkpt><trkpt lat="45.45012298088054" lon="8.155951683627219"><ele>213.0</ele><time>2026-04-05T17:16:05.978Z</time></trkpt><trkpt lat="45.45022695459672" lon="8.15608967516844"><ele>213.0</ele><time>2026-04-05T17:16:06.978Z</time></trkpt><trkpt lat="45.4503340134218" lon="8.156202227722636"><ele>213.0</ele><time>2026-04-05T17:16:07.978Z</time></trkpt><trkpt lat="45.45042751409322" lon="8.156325115116513"><ele>213.25</ele><time>2026-04-05T17:16:08.978Z</time></trkpt><trkpt lat="45.45051866773011" lon="8.156446295510182"><ele>213.5</ele><time>2026-04-05T17:16:09.978Z</time></trkpt><trkpt lat="45.45060867156927" lon="8.15657010848837"><ele>213.75</ele><time>2026-04-05T17:16:10.978Z</time></trkpt><trkpt lat="45.45071303169007" lon="8.15668877365842"><ele>214.0</ele><time>2026-04-05T17:16:11.978Z</time></trkpt><trkpt lat="45.450823789374" lon="8.156810161828"><ele>214.25</ele><time>2026-04-05T17:16:12.978Z</time></trkpt><trkpt lat="45.45093771835402" lon="8.15693389977828"><ele>214.5</ele><time>2026-04-05T17:16:13.978Z</time></trkpt><trkpt lat="45.451040936359654" lon="8.157069689531683"><ele>214.75</ele><time>2026-04-05T17:16:14.978Z</time></trkpt><trkpt lat="45.45115761667293" lon="8.157200807462045"><ele>215.0</ele><time>2026-04-05T17:16:15.978Z</time></trkpt><trkpt lat="45.451273909486076" lon="8.15733310550218"><ele>215.33333333333334</ele><time>2026-04-05T17:16:16.978Z</time></trkpt><trkpt lat="45.45139145948019" lon="8.157468815178397"><ele>215.66666666666669</ele><time>2026-04-05T17:16:17.978Z</time></trkpt><trkpt lat="45.451508306934265" lon="8.157608267719233"><ele>216.0</ele><time>2026-04-05T17:16:18.978Z</time></trkpt><trkpt lat="45.45162245334584" lon="8.157759570040886"><ele>216.0</ele><time>2026-04-05T17:16:19.978Z</time></trkpt><trkpt lat="45.451733967010156" lon="8.15792406947551"><ele>216.0</ele><time>2026-04-05T17:16:20.978Z</time></trkpt><trkpt lat="45.45183917187868" lon="8.158098045525511"><ele>216.0</ele><time>2026-04-05T17:16:21.978Z</time></trkpt><trkpt lat="45.45194389167951" lon="8.15828282107014"><ele>215.66666666666669</ele><time>2026-04-05T17:16:22.978Z</time></trkpt><trkpt lat="45.45204769332845" lon="8.158474518638206"><ele>215.33333333333334</ele><time>2026-04-05T17:16:23.978Z</time></trkpt><trkpt lat="45.45215674117119" lon="8.158668713828908"><ele>215.0</ele><time>2026-04-05T17:16:24.978Z</time></trkpt><trkpt lat="45.45226683206996" lon="8.158864766432423"><ele>215.33333333333334</ele><time>2026-04-05T17:16:25.978Z</time></trkpt><trkpt lat="45.45238225407266" lon="8.159063744258479"><ele>215.66666666666669</ele><time>2026-04-05T17:16:26.978Z</time></trkpt><trkpt lat="45.45250023900212" lon="8.159265641901339"><ele>216.0</ele><time>2026-04-05T17:16:27.978Z</time></trkpt><trkpt lat="45.452618450287574" lon="8.159470321202532"><ele>216.0</ele><time>2026-04-05T17:16:28.978Z</time></trkpt><trkpt lat="45.45274121775382" lon="8.159678646432688"><ele>216.0</ele><time>2026-04-05T17:16:29.978Z</time></trkpt><trkpt lat="45.45286312056251" lon="8.159885980829019"><ele>216.0</ele><time>2026-04-05T17:16:30.978Z</time></trkpt><trkpt lat="45.45298169155891" lon="8.160087269857197"><ele>216.0</ele><time>2026-04-05T17:16:31.978Z</time></trkpt><trkpt lat="45.45309739493457" lon="8.160281543943116"><ele>216.0</ele><time>2026-04-05T17:16:32.978Z</time></trkpt><trkpt lat="45.45321057374371" lon="8.160470333194935"><ele>216.0</ele><time>2026-04-05T17:16:33.978Z</time></trkpt><trkpt lat="45.4533182359645" lon="8.160653916467174"><ele>215.66666666666669</ele><time>2026-04-05T17:16:34.978Z</time></trkpt><trkpt lat="45.45342123564926" lon="8.160829540814671"><ele>215.33333333333334</ele><time>2026-04-05T17:16:35.978Z</time></trkpt><trkpt lat="45.45352136447122" lon="8.160997343861917"><ele>215.0</ele><time>2026-04-05T17:16:36.978Z</time></trkpt><trkpt lat="45.453616369327435" lon="8.16115770207293"><ele>215.0</ele><time>2026-04-05T17:16:37.978Z</time></trkpt><trkpt lat="45.4537078132764" lon="8.161308881823524"><ele>215.0</ele><time>2026-04-05T17:16:38.978Z</time></trkpt><trkpt lat="45.4537931739217" lon="8.161446090929442"><ele>215.0</ele><time>2026-04-05T17:16:39.978Z</time></trkpt><trkpt lat="45.453851728044064" lon="8.16157977128465"><ele>215.0</ele><time>2026-04-05T17:16:40.978Z</time></trkpt><trkpt lat="45.45390716448991" lon="8.161670937054614"><ele>214.8</ele><time>2026-04-05T17:16:41.978Z</time></trkpt><trkpt lat="45.453947598313256" lon="8.161764767523023"><ele>214.6</ele><time>2026-04-05T17:16:42.978Z</time></trkpt><trkpt lat="45.45401144480385" lon="8.161870574063856"><ele>214.39999999999998</ele><time>2026-04-05T17:16:44.978Z</time></trkpt><trkpt lat="45.4539329742654" lon="8.162022677112716"><ele>214.2</ele><time>2026-04-05T17:16:45.978Z</time></trkpt><trkpt lat="45.4539001461629" lon="8.162103820354192"><ele>214.0</ele><time>2026-04-05T17:16:46.977Z</time></trkpt><trkpt lat="45.45385751078913" lon="8.162206765427262"><ele>214.0</ele><time>2026-04-05T17:16:47.977Z</time></trkpt><trkpt lat="45.453812023044286" lon="8.16232558760181"><ele>214.0</ele><time>2026-04-05T17:16:48.977Z</time></trkpt><trkpt lat="45.453758382938865" lon="8.162458768286706"><ele>214.0</ele><time>2026-04-05T17:16:49.977Z</time></trkpt><trkpt lat="45.453701249475934" lon="8.162604974511858"><ele>214.0</ele><time>2026-04-05T17:16:50.977Z</time></trkpt><trkpt lat="45.453635613056804" lon="8.16276721519722"><ele>213.75</ele><time>2026-04-05T17:16:51.977Z</time></trkpt><trkpt lat="45.45356433164418" lon="8.162937314423287"><ele>213.5</ele><time>2026-04-05T17:16:52.977Z</time></trkpt><trkpt lat="45.45349651722722" lon="8.163101149544367"><ele>213.25</ele><time>2026-04-05T17:16:53.977Z</time></trkpt><trkpt lat="45.45342681253541" lon="8.163268248349569"><ele>213.0</ele><time>2026-04-05T17:16:54.977Z</time></trkpt><trkpt lat="45.45335209110298" lon="8.16344733659441"><ele>213.0</ele><time>2026-04-05T17:16:55.977Z</time></trkpt><trkpt lat="45.453275399061745" lon="8.163642642557214"><ele>213.0</ele><time>2026-04-05T17:16:56.977Z</time></trkpt><trkpt lat="45.453178096552996" lon="8.16383052253407"><ele>213.0</ele><time>2026-04-05T17:16:57.977Z</time></trkpt><trkpt lat="45.45309630982525" lon="8.1640451556849"><ele>213.0</ele><time>2026-04-05T17:16:58.977Z</time></trkpt><trkpt lat="45.45300572654875" lon="8.164268143298889"><ele>213.0</ele><time>2026-04-05T17:16:59.977Z</time></trkpt><trkpt lat="45.452914755276645" lon="8.164498623699657"><ele>213.0</ele><time>2026-04-05T17:17:00.977Z</time></trkpt><trkpt lat="45.45281790063467" lon="8.164739049567135"><ele>212.66666666666669</ele><time>2026-04-05T17:17:01.977Z</time></trkpt><trkpt lat="45.45271593325506" lon="8.164986148205799"><ele>212.33333333333334</ele><time>2026-04-05T17:17:02.977Z</time></trkpt><trkpt lat="45.45261235277232" lon="8.165236506948194"><ele>212.0</ele><time>2026-04-05T17:17:03.977Z</time></trkpt><trkpt lat="45.452512028158516" lon="8.16547785813754"><ele>212.0</ele><time>2026-04-05T17:17:04.977Z</time></trkpt><trkpt lat="45.45241606011284" lon="8.16571139287916"><ele>212.0</ele><time>2026-04-05T17:17:05.977Z</time></trkpt><trkpt lat="45.45231813956988" lon="8.165948765015983"><ele>212.0</ele><time>2026-04-05T17:17:06.977Z</time></trkpt><trkpt lat="45.45221931577407" lon="8.166189541029475"><ele>211.66666666666669</ele><time>2026-04-05T17:17:07.977Z</time></trkpt><trkpt lat="45.45212043466501" lon="8.166435976150439"><ele>211.33333333333331</ele><time>2026-04-05T17:17:08.977Z</time></trkpt><trkpt lat="45.45201912176585" lon="8.166687715377599"><ele>211.0</ele><time>2026-04-05T17:17:09.977Z</time></trkpt><trkpt lat="45.45191486563961" lon="8.166943090867552"><ele>211.0</ele><time>2026-04-05T17:17:10.977Z</time></trkpt><trkpt lat="45.45180936337179" lon="8.16720067413598"><ele>211.0</ele><time>2026-04-05T17:17:11.977Z</time></trkpt><trkpt lat="45.451703045722766" lon="8.167453365632449"><ele>211.0</ele><time>2026-04-05T17:17:12.977Z</time></trkpt><trkpt lat="45.45160315635501" lon="8.167696791221061"><ele>211.0</ele><time>2026-04-05T17:17:13.977Z</time></trkpt><trkpt lat="45.451507720090774" lon="8.167929221210189"><ele>211.0</ele><time>2026-04-05T17:17:14.977Z</time></trkpt><trkpt lat="45.45141226751305" lon="8.168162608157514"><ele>211.0</ele><time>2026-04-05T17:17:15.977Z</time></trkpt><trkpt lat="45.451313194915976" lon="8.168400784017196"><ele>210.66666666666666</ele><time>2026-04-05T17:17:16.977Z</time></trkpt><trkpt lat="45.45121446055564" lon="8.168639488632211"><ele>210.33333333333331</ele><time>2026-04-05T17:17:17.977Z</time></trkpt><trkpt lat="45.45111716714285" lon="8.1688765593397"><ele>210.0</ele><time>2026-04-05T17:17:18.977Z</time></trkpt><trkpt lat="45.45102350772207" lon="8.16910472174449"><ele>209.66666666666669</ele><time>2026-04-05T17:17:19.977Z</time></trkpt><trkpt lat="45.45093387716722" lon="8.169327258433857"><ele>209.33333333333334</ele><time>2026-04-05T17:17:20.977Z</time></trkpt><trkpt lat="45.450831638765884" lon="8.169529887196893"><ele>209.0</ele><time>2026-04-05T17:17:21.977Z</time></trkpt><trkpt lat="45.450759662788435" lon="8.169748692839645"><ele>208.33333333333334</ele><time>2026-04-05T17:17:22.977Z</time></trkpt><trkpt lat="45.45067395127115" lon="8.169944948866986"><ele>207.66666666666669</ele><time>2026-04-05T17:17:23.977Z</time></trkpt><trkpt lat="45.45059435995374" lon="8.17012972849481"><ele>207.0</ele><time>2026-04-05T17:17:24.977Z</time></trkpt><trkpt lat="45.450522763357" lon="8.170306010982701"><ele>207.0</ele><time>2026-04-05T17:17:25.977Z</time></trkpt><trkpt lat="45.45046534091819" lon="8.170482391431145"><ele>207.0</ele><time>2026-04-05T17:17:26.977Z</time></trkpt><trkpt lat="45.450419981765876" lon="8.170665219363897"><ele>207.0</ele><time>2026-04-05T17:17:27.977Z</time></trkpt><trkpt lat="45.45044757182926" lon="8.170876665126343"><ele>207.0</ele><time>2026-04-05T17:17:28.977Z</time></trkpt><trkpt lat="45.45047216691888" lon="8.171108298602045"><ele>207.66666666666669</ele><time>2026-04-05T17:17:29.977Z</time></trkpt><trkpt lat="45.45049858072466" lon="8.171359508614302"><ele>208.33333333333334</ele><time>2026-04-05T17:17:30.977Z</time></trkpt><trkpt lat="45.45052646979749" lon="8.171625215379988"><ele>209.0</ele><time>2026-04-05T17:17:31.977Z</time></trkpt><trkpt lat="45.45053831881192" lon="8.171901659151864"><ele>209.0</ele><time>2026-04-05T17:17:32.977Z</time></trkpt><trkpt lat="45.45056726013189" lon="8.172174833543156"><ele>209.0</ele><time>2026-04-05T17:17:33.976Z</time></trkpt><trkpt lat="45.45059731918119" lon="8.172449045290712"><ele>209.0</ele><time>2026-04-05T17:17:34.976Z</time></trkpt><trkpt lat="45.450642835646875" lon="8.172717604237848"><ele>208.66666666666669</ele><time>2026-04-05T17:17:35.976Z</time></trkpt><trkpt lat="45.45067576461078" lon="8.172984469777681"><ele>208.33333333333331</ele><time>2026-04-05T17:17:36.976Z</time></trkpt><trkpt lat="45.45072953267228" lon="8.173243977552687"><ele>208.0</ele><time>2026-04-05T17:17:37.976Z</time></trkpt><trkpt lat="45.45080067454092" lon="8.173500762328084"><ele>207.66666666666666</ele><time>2026-04-05T17:17:38.976Z</time></trkpt><trkpt lat="45.45087812643343" lon="8.173756282879632"><ele>207.33333333333331</ele><time>2026-04-05T17:17:39.976Z</time></trkpt><trkpt lat="45.450947435550724" lon="8.174003232941013"><ele>207.0</ele><time>2026-04-05T17:17:40.976Z</time></trkpt><trkpt lat="45.450989810152834" lon="8.17426078082897"><ele>206.33333333333331</ele><time>2026-04-05T17:17:41.976Z</time></trkpt><trkpt lat="45.451043853364865" lon="8.174517212064321"><ele>205.66666666666666</ele><time>2026-04-05T17:17:42.976Z</time></trkpt><trkpt lat="45.451098284840846" lon="8.174778296212313"><ele>205.0</ele><time>2026-04-05T17:17:43.976Z</time></trkpt><trkpt lat="45.451152335184744" lon="8.17504239422091"><ele>205.0</ele><time>2026-04-05T17:17:44.976Z</time></trkpt><trkpt lat="45.45120734724306" lon="8.175308290710266"><ele>205.0</ele><time>2026-04-05T17:17:45.976Z</time></trkpt><trkpt lat="45.45127865433977" lon="8.175565871741371"><ele>205.0</ele><time>2026-04-05T17:17:46.976Z</time></trkpt><trkpt lat="45.45131793260939" lon="8.175836297006427"><ele>205.33333333333331</ele><time>2026-04-05T17:17:47.976Z</time></trkpt><trkpt lat="45.45136914029556" lon="8.176101583029752"><ele>205.66666666666669</ele><time>2026-04-05T17:17:48.976Z</time></trkpt><trkpt lat="45.45141223558887" lon="8.176371316766941"><ele>206.0</ele><time>2026-04-05T17:17:49.976Z</time></trkpt><trkpt lat="45.45144883885607" lon="8.1766423178005"><ele>206.0</ele><time>2026-04-05T17:17:50.976Z</time></trkpt><trkpt lat="45.451482133869746" lon="8.176919542547761"><ele>206.0</ele><time>2026-04-05T17:17:51.976Z</time></trkpt><trkpt lat="45.45152732625418" lon="8.177197839794932"><ele>206.0</ele><time>2026-04-05T17:17:52.976Z</time></trkpt><trkpt lat="45.451532328231586" lon="8.17748731926479"><ele>205.66666666666669</ele><time>2026-04-05T17:17:53.976Z</time></trkpt><trkpt lat="45.45155035669838" lon="8.177774561002796"><ele>205.33333333333331</ele><time>2026-04-05T17:17:54.976Z</time></trkpt><trkpt lat="45.45156517088774" lon="8.178065576263773"><ele>205.0</ele><time>2026-04-05T17:17:55.976Z</time></trkpt><trkpt lat="45.45157887182924" lon="8.178359304194249"><ele>204.66666666666666</ele><time>2026-04-05T17:17:56.976Z</time></trkpt><trkpt lat="45.45160733191664" lon="8.17865348415069"><ele>204.33333333333331</ele><time>2026-04-05T17:17:57.976Z</time></trkpt><trkpt lat="45.45161702137631" lon="8.178950230150955"><ele>204.0</ele><time>2026-04-05T17:17:58.976Z</time></trkpt><trkpt lat="45.45163098543035" lon="8.179247877909734"><ele>204.0</ele><time>2026-04-05T17:17:59.976Z</time></trkpt><trkpt lat="45.451644925224144" lon="8.179547187132696"><ele>204.0</ele><time>2026-04-05T17:18:00.976Z</time></trkpt><trkpt lat="45.45165771136441" lon="8.17984596594607"><ele>204.0</ele><time>2026-04-05T17:18:01.976Z</time></trkpt><trkpt lat="45.45167207453306" lon="8.180139118416061"><ele>204.0</ele><time>2026-04-05T17:18:02.976Z</time></trkpt><trkpt lat="45.45168909408337" lon="8.180422723667295"><ele>204.0</ele><time>2026-04-05T17:18:03.976Z</time></trkpt><trkpt lat="45.451697477947974" lon="8.18069526590354"><ele>204.0</ele><time>2026-04-05T17:18:04.976Z</time></trkpt><trkpt lat="45.45169316393124" lon="8.18095803909936"><ele>204.0</ele><time>2026-04-05T17:18:05.976Z</time></trkpt><trkpt lat="45.451679919761936" lon="8.181206958467056"><ele>204.0</ele><time>2026-04-05T17:18:06.976Z</time></trkpt><trkpt lat="45.451656392567266" lon="8.181436122727279"><ele>204.0</ele><time>2026-04-05T17:18:07.976Z</time></trkpt><trkpt lat="45.451629053027794" lon="8.18164705274385"><ele>204.0</ele><time>2026-04-05T17:18:08.976Z</time></trkpt><trkpt lat="45.4516136084066" lon="8.181857222977364"><ele>204.0</ele><time>2026-04-05T17:18:09.976Z</time></trkpt><trkpt lat="45.45162411512045" lon="8.182074083255959"><ele>204.0</ele><time>2026-04-05T17:18:10.976Z</time></trkpt><trkpt lat="45.45164397958643" lon="8.182300672278721"><ele>204.33333333333331</ele><time>2026-04-05T17:18:11.976Z</time></trkpt><trkpt lat="45.451667032066524" lon="8.182532909942191"><ele>204.66666666666666</ele><time>2026-04-05T17:18:12.976Z</time></trkpt><trkpt lat="45.45169205359896" lon="8.182776759472873"><ele>205.0</ele><time>2026-04-05T17:18:13.976Z</time></trkpt><trkpt lat="45.45171951946046" lon="8.183022745297665"><ele>205.0</ele><time>2026-04-05T17:18:14.976Z</time></trkpt><trkpt lat="45.45174631627936" lon="8.183274596299295"><ele>205.0</ele><time>2026-04-05T17:18:15.976Z</time></trkpt><trkpt lat="45.4517723666774" lon="8.183528366675276"><ele>205.0</ele><time>2026-04-05T17:18:16.976Z</time></trkpt><trkpt lat="45.45179834796812" lon="8.183782866696298"><ele>204.33333333333331</ele><time>2026-04-05T17:18:17.976Z</time></trkpt><trkpt lat="45.45182277476387" lon="8.184030207634423"><ele>203.66666666666669</ele><time>2026-04-05T17:18:18.976Z</time></trkpt><trkpt lat="45.45184818694542" lon="8.184266569111607"><ele>203.0</ele><time>2026-04-05T17:18:19.975Z</time></trkpt><trkpt lat="45.45188467323501" lon="8.184488731525779"><ele>203.0</ele><time>2026-04-05T17:18:20.975Z</time></trkpt><trkpt lat="45.45193485586701" lon="8.184696468583672"><ele>203.0</ele><time>2026-04-05T17:18:21.975Z</time></trkpt><trkpt lat="45.45198377487548" lon="8.18490054232541"><ele>203.0</ele><time>2026-04-05T17:18:22.975Z</time></trkpt><trkpt lat="45.452057113307745" lon="8.185075827204704"><ele>203.0</ele><time>2026-04-05T17:18:23.975Z</time></trkpt><trkpt lat="45.452163906528455" lon="8.185195348409064"><ele>203.0</ele><time>2026-04-05T17:18:24.975Z</time></trkpt><trkpt lat="45.45226620427313" lon="8.185308084370545"><ele>203.0</ele><time>2026-04-05T17:18:25.975Z</time></trkpt><trkpt lat="45.452380559070065" lon="8.185413594426006"><ele>203.0</ele><time>2026-04-05T17:18:26.975Z</time></trkpt><trkpt lat="45.45249882383452" lon="8.185518394483118"><ele>203.0</ele><time>2026-04-05T17:18:27.975Z</time></trkpt><trkpt lat="45.45263105170746" lon="8.185617262023714"><ele>203.0</ele><time>2026-04-05T17:18:28.975Z</time></trkpt><trkpt lat="45.45276916361405" lon="8.185715216130662"><ele>203.0</ele><time>2026-04-05T17:18:29.975Z</time></trkpt><trkpt lat="45.45290026111194" lon="8.18581175286303"><ele>203.0</ele><time>2026-04-05T17:18:30.974Z</time></trkpt><trkpt lat="45.453025319903354" lon="8.185905370248832"><ele>203.0</ele><time>2026-04-05T17:18:31.974Z</time></trkpt><trkpt lat="45.45314384467588" lon="8.186005997271518"><ele>202.75</ele><time>2026-04-05T17:18:32.974Z</time></trkpt><trkpt lat="45.45325244001504" lon="8.186134477546089"><ele>202.5</ele><time>2026-04-05T17:18:33.974Z</time></trkpt><trkpt lat="45.45334059501562" lon="8.186288973016316"><ele>202.25</ele><time>2026-04-05T17:18:34.974Z</time></trkpt><trkpt lat="45.45340355793835" lon="8.186463974816837"><ele>202.0</ele><time>2026-04-05T17:18:35.974Z</time></trkpt><trkpt lat="45.45343329266601" lon="8.186648345558739"><ele>202.0</ele><time>2026-04-05T17:18:36.974Z</time></trkpt><trkpt lat="45.453443657114214" lon="8.186840114753764"><ele>202.0</ele><time>2026-04-05T17:18:37.974Z</time></trkpt><trkpt lat="45.453446999085685" lon="8.187039455421589"><ele>202.0</ele><time>2026-04-05T17:18:38.974Z</time></trkpt><trkpt lat="45.45345300567087" lon="8.187251849290472"><ele>202.0</ele><time>2026-04-05T17:18:39.974Z</time></trkpt><trkpt lat="45.45346269706891" lon="8.187477920114084"><ele>202.0</ele><time>2026-04-05T17:18:40.974Z</time></trkpt><trkpt lat="45.453474614810666" lon="8.187712969384508"><ele>202.0</ele><time>2026-04-05T17:18:41.974Z</time></trkpt><trkpt lat="45.45348565813428" lon="8.187955128228579"><ele>202.0</ele><time>2026-04-05T17:18:42.974Z</time></trkpt><trkpt lat="45.453495659889995" lon="8.188204275427246"><ele>201.66666666666666</ele><time>2026-04-05T17:18:43.974Z</time></trkpt><trkpt lat="45.453507354233324" lon="8.188462408088354"><ele>201.33333333333331</ele><time>2026-04-05T17:18:44.974Z</time></trkpt><trkpt lat="45.45351999341315" lon="8.188730030822411"><ele>201.0</ele><time>2026-04-05T17:18:45.974Z</time></trkpt><trkpt lat="45.45353266223069" lon="8.189004158490489"><ele>200.66666666666669</ele><time>2026-04-05T17:18:46.973Z</time></trkpt><trkpt lat="45.453545045133346" lon="8.189283478014259"><ele>200.33333333333334</ele><time>2026-04-05T17:18:47.973Z</time></trkpt><trkpt lat="45.45355771410521" lon="8.189567384579735"><ele>200.0</ele><time>2026-04-05T17:18:48.973Z</time></trkpt><trkpt lat="45.45356995375597" lon="8.189857793475294"><ele>200.0</ele><time>2026-04-05T17:18:49.973Z</time></trkpt><trkpt lat="45.453582777792406" lon="8.190153082954733"><ele>200.0</ele><time>2026-04-05T17:18:50.973Z</time></trkpt><trkpt lat="45.45359445279175" lon="8.190451322356061"><ele>200.0</ele><time>2026-04-05T17:18:51.973Z</time></trkpt><trkpt lat="45.45360741198816" lon="8.190749950600928"><ele>200.0</ele><time>2026-04-05T17:18:52.973Z</time></trkpt><trkpt lat="45.453622086295105" lon="8.191047192735931"><ele>200.0</ele><time>2026-04-05T17:18:53.973Z</time></trkpt><trkpt lat="45.45363793709438" lon="8.19134213119443"><ele>200.0</ele><time>2026-04-05T17:18:54.973Z</time></trkpt><trkpt lat="45.45363438531702" lon="8.191636831869271"><ele>199.66666666666669</ele><time>2026-04-05T17:18:55.973Z</time></trkpt><trkpt lat="45.45364725076358" lon="8.191929130556526"><ele>199.33333333333331</ele><time>2026-04-05T17:18:56.973Z</time></trkpt><trkpt lat="45.45367481968994" lon="8.192218415583646"><ele>199.0</ele><time>2026-04-05T17:18:57.973Z</time></trkpt><trkpt lat="45.45368742459828" lon="8.19250595011149"><ele>199.0</ele><time>2026-04-05T17:18:58.973Z</time></trkpt><trkpt lat="45.45369809517893" lon="8.192794202281268"><ele>199.0</ele><time>2026-04-05T17:18:59.973Z</time></trkpt><trkpt lat="45.45370970581701" lon="8.193079113551375"><ele>199.0</ele><time>2026-04-05T17:19:00.973Z</time></trkpt><trkpt lat="45.45372273064505" lon="8.193361119630248"><ele>199.0</ele><time>2026-04-05T17:19:01.973Z</time></trkpt><trkpt lat="45.45373651877487" lon="8.193640933748602"><ele>199.0</ele><time>2026-04-05T17:19:02.973Z</time></trkpt><trkpt lat="45.453749190478085" lon="8.193921130484737"><ele>199.0</ele><time>2026-04-05T17:19:03.973Z</time></trkpt><trkpt lat="45.4537616049132" lon="8.194199997147892"><ele>199.0</ele><time>2026-04-05T17:19:04.973Z</time></trkpt><trkpt lat="45.453774805427585" lon="8.19448067564584"><ele>199.0</ele><time>2026-04-05T17:19:05.973Z</time></trkpt><trkpt lat="45.45378689797692" lon="8.1947599886599"><ele>199.0</ele><time>2026-04-05T17:19:06.973Z</time></trkpt><trkpt lat="45.453782670645055" lon="8.195044114081385"><ele>198.33333333333331</ele><time>2026-04-05T17:19:07.973Z</time></trkpt><trkpt lat="45.45379540554846" lon="8.195324909053681"><ele>197.66666666666669</ele><time>2026-04-05T17:19:08.973Z</time></trkpt><trkpt lat="45.45380822415551" lon="8.19560735803347"><ele>197.0</ele><time>2026-04-05T17:19:09.973Z</time></trkpt><trkpt lat="45.453821251042356" lon="8.195892534717276"><ele>197.0</ele><time>2026-04-05T17:19:10.973Z</time></trkpt><trkpt lat="45.453834433034885" lon="8.196178286139336"><ele>197.0</ele><time>2026-04-05T17:19:11.973Z</time></trkpt><trkpt lat="45.45384764707579" lon="8.196464732707081"><ele>197.0</ele><time>2026-04-05T17:19:12.973Z</time></trkpt><trkpt lat="45.45387666956994" lon="8.196748346068826"><ele>197.0</ele><time>2026-04-05T17:19:13.973Z</time></trkpt><trkpt lat="45.45388777021408" lon="8.197031641749719"><ele>197.0</ele><time>2026-04-05T17:19:14.972Z</time></trkpt><trkpt lat="45.45389956861457" lon="8.197314761748464"><ele>197.0</ele><time>2026-04-05T17:19:15.972Z</time></trkpt><trkpt lat="45.45391270850935" lon="8.197600908542821"><ele>197.0</ele><time>2026-04-05T17:19:16.972Z</time></trkpt><trkpt lat="45.45392576557585" lon="8.197883831024747"><ele>197.0</ele><time>2026-04-05T17:19:17.972Z</time></trkpt><trkpt lat="45.45393929030165" lon="8.198166190671149"><ele>197.0</ele><time>2026-04-05T17:19:18.972Z</time></trkpt><trkpt lat="45.45395220115736" lon="8.198449905961278"><ele>196.66666666666669</ele><time>2026-04-05T17:19:19.972Z</time></trkpt><trkpt lat="45.45396362701252" lon="8.19873265611177"><ele>196.33333333333331</ele><time>2026-04-05T17:19:20.972Z</time></trkpt><trkpt lat="45.453974915199794" lon="8.199019347853216"><ele>196.0</ele><time>2026-04-05T17:19:21.994Z</time></trkpt><trkpt lat="45.45398686948671" lon="8.1992975108307"><ele>196.0</ele><time>2026-04-05T17:19:22.994Z</time></trkpt><trkpt lat="45.454002524993356" lon="8.199573502422588"><ele>196.0</ele><time>2026-04-05T17:19:23.994Z</time></trkpt><trkpt lat="45.454020517662094" lon="8.199846662370803"><ele>196.0</ele><time>2026-04-05T17:19:24.994Z</time></trkpt><trkpt lat="45.45404085660322" lon="8.200119064510792"><ele>196.0</ele><time>2026-04-05T17:19:25.994Z</time></trkpt><trkpt lat="45.45406119516672" lon="8.200394480977993"><ele>196.0</ele><time>2026-04-05T17:19:26.994Z</time></trkpt><trkpt lat="45.45406261336684" lon="8.200673003339466"><ele>196.0</ele><time>2026-04-05T17:19:27.994Z</time></trkpt><trkpt lat="45.45407828481706" lon="8.200950438391512"><ele>196.0</ele><time>2026-04-05T17:19:28.994Z</time></trkpt><trkpt lat="45.45409119875533" lon="8.201228159764343"><ele>196.0</ele><time>2026-04-05T17:19:29.994Z</time></trkpt><trkpt lat="45.45410291372977" lon="8.201506483576857"><ele>196.0</ele><time>2026-04-05T17:19:30.994Z</time></trkpt><trkpt lat="45.454130722489396" lon="8.201783058296877"><ele>196.0</ele><time>2026-04-05T17:19:31.994Z</time></trkpt><trkpt lat="45.454137074670534" lon="8.202061176314317"><ele>196.0</ele><time>2026-04-05T17:19:32.994Z</time></trkpt><trkpt lat="45.45414334623981" lon="8.20234098514654"><ele>196.0</ele><time>2026-04-05T17:19:33.994Z</time></trkpt><trkpt lat="45.45415113815668" lon="8.202619909942134"><ele>195.66666666666666</ele><time>2026-04-05T17:19:34.994Z</time></trkpt><trkpt lat="45.45415955763952" lon="8.202899602188431"><ele>195.33333333333331</ele><time>2026-04-05T17:19:35.994Z</time></trkpt><trkpt lat="45.45416731828505" lon="8.203181194606382"><ele>195.0</ele><time>2026-04-05T17:19:36.994Z</time></trkpt><trkpt lat="45.45417706852906" lon="8.203459976479571"><ele>194.66666666666669</ele><time>2026-04-05T17:19:37.994Z</time></trkpt><trkpt lat="45.454187418252694" lon="8.203740121367066"><ele>194.33333333333334</ele><time>2026-04-05T17:19:38.994Z</time></trkpt><trkpt lat="45.45419704886493" lon="8.204021990217784"><ele>194.0</ele><time>2026-04-05T17:19:39.994Z</time></trkpt><trkpt lat="45.45420617173633" lon="8.20430591409998"><ele>193.66666666666669</ele><time>2026-04-05T17:19:40.994Z</time></trkpt><trkpt lat="45.45421463595062" lon="8.204585393525647"><ele>193.33333333333331</ele><time>2026-04-05T17:19:41.994Z</time></trkpt><trkpt lat="45.454224147350885" lon="8.204863833095583"><ele>193.0</ele><time>2026-04-05T17:19:42.994Z</time></trkpt><trkpt lat="45.45423163704403" lon="8.20514129259095"><ele>193.0</ele><time>2026-04-05T17:19:43.993Z</time></trkpt><trkpt lat="45.45424220073626" lon="8.205421298673297"><ele>193.0</ele><time>2026-04-05T17:19:44.993Z</time></trkpt><trkpt lat="45.45423643705419" lon="8.205703291379436"><ele>193.0</ele><time>2026-04-05T17:19:45.993Z</time></trkpt><trkpt lat="45.45424477665737" lon="8.205982936967775"><ele>193.0</ele><time>2026-04-05T17:19:46.993Z</time></trkpt><trkpt lat="45.45425541597286" lon="8.206262466848957"><ele>193.0</ele><time>2026-04-05T17:19:47.993Z</time></trkpt><trkpt lat="45.45426726308302" lon="8.206542625728547"><ele>193.0</ele><time>2026-04-05T17:19:48.993Z</time></trkpt><trkpt lat="45.45429908332092" lon="8.20681950580378"><ele>192.66666666666666</ele><time>2026-04-05T17:19:49.993Z</time></trkpt><trkpt lat="45.45432300781806" lon="8.207095652610306"><ele>192.33333333333331</ele><time>2026-04-05T17:19:50.993Z</time></trkpt><trkpt lat="45.4543558604969" lon="8.207369266546987"><ele>192.0</ele><time>2026-04-05T17:19:51.993Z</time></trkpt><trkpt lat="45.45439499731614" lon="8.20764355144844"><ele>191.66666666666666</ele><time>2026-04-05T17:19:52.993Z</time></trkpt><trkpt lat="45.454438355540134" lon="8.207916800908945"><ele>191.33333333333331</ele><time>2026-04-05T17:19:53.993Z</time></trkpt><trkpt lat="45.4544820194984" lon="8.208191215302717"><ele>191.0</ele><time>2026-04-05T17:19:54.993Z</time></trkpt><trkpt lat="45.45452576751815" lon="8.20846712712236"><ele>191.0</ele><time>2026-04-05T17:19:55.993Z</time></trkpt><trkpt lat="45.454569061999884" lon="8.208746182187104"><ele>191.0</ele><time>2026-04-05T17:19:56.993Z</time></trkpt><trkpt lat="45.45461490501708" lon="8.209027455997568"><ele>191.0</ele><time>2026-04-05T17:19:57.993Z</time></trkpt><trkpt lat="45.45466137273006" lon="8.209312043433806"><ele>191.0</ele><time>2026-04-05T17:19:58.993Z</time></trkpt><trkpt lat="45.454707527760625" lon="8.20959674303715"><ele>191.0</ele><time>2026-04-05T17:19:59.993Z</time></trkpt><trkpt lat="45.45475322204409" lon="8.209885194968015"><ele>191.0</ele><time>2026-04-05T17:20:00.993Z</time></trkpt><trkpt lat="45.45480077630419" lon="8.210175989536427"><ele>191.0</ele><time>2026-04-05T17:20:01.993Z</time></trkpt><trkpt lat="45.45484637057972" lon="8.210466484468359"><ele>191.0</ele><time>2026-04-05T17:20:02.993Z</time></trkpt><trkpt lat="45.454892946943005" lon="8.210752668838163"><ele>191.0</ele><time>2026-04-05T17:20:03.993Z</time></trkpt><trkpt lat="45.454941444339894" lon="8.211038456731664"><ele>191.0</ele><time>2026-04-05T17:20:04.993Z</time></trkpt><trkpt lat="45.454989424247614" lon="8.211326601222684"><ele>191.0</ele><time>2026-04-05T17:20:05.993Z</time></trkpt><trkpt lat="45.45503720555069" lon="8.211614722884267"><ele>191.0</ele><time>2026-04-05T17:20:06.995Z</time></trkpt><trkpt lat="45.455082207502514" lon="8.211903764179324"><ele>190.33333333333331</ele><time>2026-04-05T17:20:07.996Z</time></trkpt><trkpt lat="45.45512754048047" lon="8.212186583116669"><ele>189.66666666666666</ele><time>2026-04-05T17:20:08.996Z</time></trkpt><trkpt lat="45.45515749654368" lon="8.212470840659114"><ele>189.0</ele><time>2026-04-05T17:20:09.996Z</time></trkpt><trkpt lat="45.455202680044145" lon="8.212749323050701"><ele>189.0</ele><time>2026-04-05T17:20:10.996Z</time></trkpt><trkpt lat="45.45524864836157" lon="8.213032642431447"><ele>189.0</ele><time>2026-04-05T17:20:11.996Z</time></trkpt><trkpt lat="45.45529487803415" lon="8.213317572606739"><ele>189.0</ele><time>2026-04-05T17:20:12.996Z</time></trkpt><trkpt lat="45.45534145587014" lon="8.213604648793904"><ele>189.0</ele><time>2026-04-05T17:20:13.996Z</time></trkpt><trkpt lat="45.455388679944136" lon="8.213895707865396"><ele>189.0</ele><time>2026-04-05T17:20:14.995Z</time></trkpt><trkpt lat="45.455436081517874" lon="8.214187860892716"><ele>189.0</ele><time>2026-04-05T17:20:15.995Z</time></trkpt><trkpt lat="45.45549247730552" lon="8.214478098121505"><ele>189.0</ele><time>2026-04-05T17:20:16.996Z</time></trkpt><trkpt lat="45.45553174320248" lon="8.214769129616904"><ele>189.0</ele><time>2026-04-05T17:20:17.996Z</time></trkpt><trkpt lat="45.455574434022125" lon="8.21505713917486"><ele>189.0</ele><time>2026-04-05T17:20:18.996Z</time></trkpt><trkpt lat="45.45561941306987" lon="8.215346999546972"><ele>189.0</ele><time>2026-04-05T17:20:19.996Z</time></trkpt><trkpt lat="45.45566881707955" lon="8.215635988076082"><ele>189.0</ele><time>2026-04-05T17:20:20.996Z</time></trkpt><trkpt lat="45.45571830466233" lon="8.215926616320838"><ele>189.0</ele><time>2026-04-05T17:20:21.996Z</time></trkpt><trkpt lat="45.45576552330643" lon="8.216216233266591"><ele>188.66666666666666</ele><time>2026-04-05T17:20:22.996Z</time></trkpt><trkpt lat="45.45581185064603" lon="8.216507328045823"><ele>188.33333333333331</ele><time>2026-04-05T17:20:23.996Z</time></trkpt><trkpt lat="45.455860078191016" lon="8.21679755553018"><ele>188.0</ele><time>2026-04-05T17:20:24.996Z</time></trkpt><trkpt lat="45.45590440193884" lon="8.217085861078278"><ele>187.66666666666666</ele><time>2026-04-05T17:20:25.996Z</time></trkpt><trkpt lat="45.4559494986147" lon="8.217374333240695"><ele>187.33333333333334</ele><time>2026-04-05T17:20:26.996Z</time></trkpt><trkpt lat="45.45599683947513" lon="8.217659092073259"><ele>187.0</ele><time>2026-04-05T17:20:27.996Z</time></trkpt><trkpt lat="45.45604199278826" lon="8.21794376814382"><ele>187.0</ele><time>2026-04-05T17:20:28.995Z</time></trkpt><trkpt lat="45.456085979911165" lon="8.218229660394499"><ele>187.0</ele><time>2026-04-05T17:20:29.995Z</time></trkpt><trkpt lat="45.456131932218305" lon="8.218509754912379"><ele>187.0</ele><time>2026-04-05T17:20:30.995Z</time></trkpt><trkpt lat="45.456174576523495" lon="8.218782128187335"><ele>187.33333333333334</ele><time>2026-04-05T17:20:31.995Z</time></trkpt><trkpt lat="45.45621481930787" lon="8.219048774732567"><ele>187.66666666666666</ele><time>2026-04-05T17:20:32.995Z</time></trkpt><trkpt lat="45.45625463030515" lon="8.219304277621402"><ele>188.0</ele><time>2026-04-05T17:20:33.995Z</time></trkpt><trkpt lat="45.45629666072947" lon="8.219551058757562"><ele>188.0</ele><time>2026-04-05T17:20:34.995Z</time></trkpt><trkpt lat="45.45633597984078" lon="8.219776968236946"><ele>188.0</ele><time>2026-04-05T17:20:35.995Z</time></trkpt><trkpt lat="45.45637257294978" lon="8.219980222747152"><ele>188.0</ele><time>2026-04-05T17:20:36.995Z</time></trkpt><trkpt lat="45.45640322055775" lon="8.220158219333763"><ele>188.0</ele><time>2026-04-05T17:20:37.995Z</time></trkpt><trkpt lat="45.45642742184043" lon="8.220314274263004"><ele>187.8</ele><time>2026-04-05T17:20:38.995Z</time></trkpt><trkpt lat="45.45644586017341" lon="8.220455807361756"><ele>187.60000000000002</ele><time>2026-04-05T17:20:39.995Z</time></trkpt><trkpt lat="45.45645981764709" lon="8.220593895118059"><ele>187.39999999999998</ele><time>2026-04-05T17:20:40.995Z</time></trkpt><trkpt lat="45.45646507532474" lon="8.220727180789416"><ele>187.2</ele><time>2026-04-05T17:20:41.995Z</time></trkpt><trkpt lat="45.45645323737001" lon="8.22086625691265"><ele>187.0</ele><time>2026-04-05T17:20:42.995Z</time></trkpt><trkpt lat="45.4564505409016" lon="8.221009362241341"><ele>187.0</ele><time>2026-04-05T17:20:43.995Z</time></trkpt><trkpt lat="45.456444835011496" lon="8.221162211339836"><ele>187.0</ele><time>2026-04-05T17:20:44.995Z</time></trkpt><trkpt lat="45.45644335800901" lon="8.221328810070647"><ele>187.0</ele><time>2026-04-05T17:20:45.995Z</time></trkpt><trkpt lat="45.45644247586889" lon="8.22150783974244"><ele>187.0</ele><time>2026-04-05T17:20:46.995Z</time></trkpt><trkpt lat="45.456443160362134" lon="8.221696876913864"><ele>187.0</ele><time>2026-04-05T17:20:47.995Z</time></trkpt><trkpt lat="45.45644395859572" lon="8.22189530954432"><ele>187.0</ele><time>2026-04-05T17:20:48.995Z</time></trkpt><trkpt lat="45.456444892737565" lon="8.222104036567622"><ele>187.0</ele><time>2026-04-05T17:20:49.995Z</time></trkpt><trkpt lat="45.45644378743064" lon="8.222318138786191"><ele>187.0</ele><time>2026-04-05T17:20:50.995Z</time></trkpt><trkpt lat="45.45644267791047" lon="8.222529995195458"><ele>187.0</ele><time>2026-04-05T17:20:51.995Z</time></trkpt><trkpt lat="45.45643925202576" lon="8.222733236386928"><ele>187.0</ele><time>2026-04-05T17:20:52.995Z</time></trkpt><trkpt lat="45.45643699371608" lon="8.222925629626783"><ele>187.0</ele><time>2026-04-05T17:20:53.995Z</time></trkpt><trkpt lat="45.45643567954253" lon="8.22310111102566"><ele>187.0</ele><time>2026-04-05T17:20:54.995Z</time></trkpt><trkpt lat="45.456436666650205" lon="8.223260946140096"><ele>186.83333333333334</ele><time>2026-04-05T17:20:55.995Z</time></trkpt><trkpt lat="45.456439586204226" lon="8.22340138791103"><ele>186.66666666666669</ele><time>2026-04-05T17:20:56.995Z</time></trkpt><trkpt lat="45.45644252417291" lon="8.223531111387985"><ele>186.5</ele><time>2026-04-05T17:20:57.995Z</time></trkpt><trkpt lat="45.456445407703534" lon="8.223646472365344"><ele>186.33333333333334</ele><time>2026-04-05T17:20:58.995Z</time></trkpt><trkpt lat="45.456452396754024" lon="8.223741181758747"><ele>186.16666666666666</ele><time>2026-04-05T17:20:59.995Z</time></trkpt><trkpt lat="45.45647159615105" lon="8.223871533080601"><ele>186.0</ele><time>2026-04-05T17:21:01.995Z</time></trkpt><trkpt lat="45.456489254501506" lon="8.22396239798839"><ele>186.0</ele><time>2026-04-05T17:21:21.994Z</time></trkpt><trkpt lat="45.45659151316748" lon="8.223937136454776"><ele>186.0</ele><time>2026-04-05T17:21:22.994Z</time></trkpt><trkpt lat="45.45666438644895" lon="8.223891902915922"><ele>186.0</ele><time>2026-04-05T17:21:23.994Z</time></trkpt><trkpt lat="45.4567502965889" lon="8.223830944686421"><ele>186.0</ele><time>2026-04-05T17:21:24.994Z</time></trkpt><trkpt lat="45.45683753197925" lon="8.223753578270088"><ele>186.0</ele><time>2026-04-05T17:21:25.994Z</time></trkpt><trkpt lat="45.456925632010766" lon="8.223676068292946"><ele>186.0</ele><time>2026-04-05T17:21:26.994Z</time></trkpt><trkpt lat="45.45703107367312" lon="8.223591593715927"><ele>186.0</ele><time>2026-04-05T17:21:27.994Z</time></trkpt><trkpt lat="45.45714945683658" lon="8.223497297417646"><ele>186.0</ele><time>2026-04-05T17:21:28.994Z</time></trkpt><trkpt lat="45.457282913151126" lon="8.223393913797647"><ele>186.0</ele><time>2026-04-05T17:21:29.994Z</time></trkpt><trkpt lat="45.45742935659261" lon="8.223279961580742"><ele>186.33333333333334</ele><time>2026-04-05T17:21:30.994Z</time></trkpt><trkpt lat="45.45757541854265" lon="8.223163101343998"><ele>186.66666666666669</ele><time>2026-04-05T17:21:31.994Z</time></trkpt><trkpt lat="45.457724228369656" lon="8.223039936917592"><ele>187.0</ele><time>2026-04-05T17:21:32.994Z</time></trkpt><trkpt lat="45.457885515322296" lon="8.222911822624363"><ele>186.66666666666669</ele><time>2026-04-05T17:21:33.994Z</time></trkpt><trkpt lat="45.45805977469775" lon="8.222771610883168"><ele>186.33333333333334</ele><time>2026-04-05T17:21:34.994Z</time></trkpt><trkpt lat="45.458244412557086" lon="8.222621176175107"><ele>186.0</ele><time>2026-04-05T17:21:35.994Z</time></trkpt><trkpt lat="45.45844122520842" lon="8.222459262336967"><ele>185.5</ele><time>2026-04-05T17:21:36.994Z</time></trkpt><trkpt lat="45.45863898291182" lon="8.22228958142681"><ele>185.0</ele><time>2026-04-05T17:21:37.994Z</time></trkpt><trkpt lat="45.458831535471795" lon="8.222123873703637"><ele>185.0</ele><time>2026-04-05T17:21:38.994Z</time></trkpt><trkpt lat="45.45902620148978" lon="8.221960027025325"><ele>185.0</ele><time>2026-04-05T17:21:39.994Z</time></trkpt><trkpt lat="45.45922415669782" lon="8.221795774748339"><ele>185.0</ele><time>2026-04-05T17:21:40.994Z</time></trkpt><trkpt lat="45.45942625956478" lon="8.22163091596007"><ele>185.0</ele><time>2026-04-05T17:21:41.994Z</time></trkpt><trkpt lat="45.4596338464651" lon="8.2214624455561"><ele>186.0</ele><time>2026-04-05T17:21:42.994Z</time></trkpt><trkpt lat="45.45984491194249" lon="8.221291674185037"><ele>187.0</ele><time>2026-04-05T17:21:43.994Z</time></trkpt><trkpt lat="45.46004641478084" lon="8.221122226228214"><ele>187.0</ele><time>2026-04-05T17:21:44.994Z</time></trkpt><trkpt lat="45.46024253005866" lon="8.220960411586018"><ele>187.0</ele><time>2026-04-05T17:21:45.994Z</time></trkpt><trkpt lat="45.460439001507" lon="8.220800536797222"><ele>188.0</ele><time>2026-04-05T17:21:46.994Z</time></trkpt><trkpt lat="45.460637211688535" lon="8.220641557085852"><ele>189.0</ele><time>2026-04-05T17:21:47.994Z</time></trkpt><trkpt lat="45.460836094385975" lon="8.220482659167203"><ele>189.0</ele><time>2026-04-05T17:21:48.994Z</time></trkpt><trkpt lat="45.46103743731206" lon="8.22032470395859"><ele>189.0</ele><time>2026-04-05T17:21:49.994Z</time></trkpt><trkpt lat="45.46124051721959" lon="8.220164554987766"><ele>189.0</ele><time>2026-04-05T17:21:50.994Z</time></trkpt><trkpt lat="45.46144399325562" lon="8.219999427332647"><ele>189.0</ele><time>2026-04-05T17:21:51.993Z</time></trkpt><trkpt lat="45.46164700529781" lon="8.219831029433745"><ele>189.0</ele><time>2026-04-05T17:21:52.993Z</time></trkpt><trkpt lat="45.4618501623988" lon="8.21966595411031"><ele>189.0</ele><time>2026-04-05T17:21:53.993Z</time></trkpt><trkpt lat="45.46205422736292" lon="8.21950200437163"><ele>188.5</ele><time>2026-04-05T17:21:54.993Z</time></trkpt><trkpt lat="45.46225866296779" lon="8.219338872133498"><ele>188.0</ele><time>2026-04-05T17:21:55.993Z</time></trkpt><trkpt lat="45.462462802818" lon="8.219174170977201"><ele>188.0</ele><time>2026-04-05T17:21:56.993Z</time></trkpt><trkpt lat="45.46266568127107" lon="8.219008767596234"><ele>188.0</ele><time>2026-04-05T17:21:57.993Z</time></trkpt><trkpt lat="45.462868418381575" lon="8.218844785351472"><ele>188.5</ele><time>2026-04-05T17:21:58.993Z</time></trkpt><trkpt lat="45.4630690382738" lon="8.21867906273232"><ele>189.0</ele><time>2026-04-05T17:21:59.993Z</time></trkpt><trkpt lat="45.46326807220697" lon="8.218516952533125"><ele>189.0</ele><time>2026-04-05T17:22:00.993Z</time></trkpt><trkpt lat="45.4634641194444" lon="8.21835695180528"><ele>189.0</ele><time>2026-04-05T17:22:01.993Z</time></trkpt><trkpt lat="45.463657394677135" lon="8.218198701583475"><ele>189.0</ele><time>2026-04-05T17:22:02.993Z</time></trkpt><trkpt lat="45.46384769892499" lon="8.218045354284621"><ele>189.0</ele><time>2026-04-05T17:22:03.993Z</time></trkpt><trkpt lat="45.46403426378118" lon="8.217895275284656"><ele>189.0</ele><time>2026-04-05T17:22:04.993Z</time></trkpt><trkpt lat="45.46421548031801" lon="8.217750240048945"><ele>189.0</ele><time>2026-04-05T17:22:05.993Z</time></trkpt><trkpt lat="45.464391850046354" lon="8.21760728320136"><ele>189.0</ele><time>2026-04-05T17:22:06.993Z</time></trkpt><trkpt lat="45.46456207399186" lon="8.217464074376156"><ele>189.0</ele><time>2026-04-05T17:22:07.993Z</time></trkpt><trkpt lat="45.46472936802121" lon="8.2173246230407"><ele>189.0</ele><time>2026-04-05T17:22:08.993Z</time></trkpt><trkpt lat="45.46489811370941" lon="8.217189503414971"><ele>189.33333333333334</ele><time>2026-04-05T17:22:09.993Z</time></trkpt><trkpt lat="45.46506459025116" lon="8.21705268721045"><ele>189.66666666666669</ele><time>2026-04-05T17:22:10.993Z</time></trkpt><trkpt lat="45.46523230817169" lon="8.216915595980035"><ele>190.0</ele><time>2026-04-05T17:22:11.993Z</time></trkpt><trkpt lat="45.465400764889594" lon="8.216781622228956"><ele>190.0</ele><time>2026-04-05T17:22:12.995Z</time></trkpt><trkpt lat="45.46556980614614" lon="8.216647534688487"><ele>190.0</ele><time>2026-04-05T17:22:13.996Z</time></trkpt><trkpt lat="45.46574104682091" lon="8.216509903625928"><ele>190.0</ele><time>2026-04-05T17:22:14.996Z</time></trkpt><trkpt lat="45.46591527730595" lon="8.216371015730168"><ele>190.0</ele><time>2026-04-05T17:22:15.995Z</time></trkpt><trkpt lat="45.46609091688361" lon="8.216230030657186"><ele>190.0</ele><time>2026-04-05T17:22:16.996Z</time></trkpt><trkpt lat="45.46626540396058" lon="8.216088269974643"><ele>190.0</ele><time>2026-04-05T17:22:17.996Z</time></trkpt><trkpt lat="45.46643439976955" lon="8.215948881925955"><ele>190.0</ele><time>2026-04-05T17:22:18.995Z</time></trkpt><trkpt lat="45.46659724434428" lon="8.215815076678815"><ele>190.0</ele><time>2026-04-05T17:22:19.995Z</time></trkpt><trkpt lat="45.466751961847464" lon="8.215690042937807"><ele>190.0</ele><time>2026-04-05T17:22:20.995Z</time></trkpt><trkpt lat="45.46690202052641" lon="8.215572454051223"><ele>190.33333333333334</ele><time>2026-04-05T17:22:21.995Z</time></trkpt><trkpt lat="45.46704429671529" lon="8.215462332671473"><ele>190.66666666666666</ele><time>2026-04-05T17:22:22.995Z</time></trkpt><trkpt lat="45.46718164419426" lon="8.21535642539429"><ele>191.0</ele><time>2026-04-05T17:22:23.995Z</time></trkpt><trkpt lat="45.467310259270484" lon="8.215262471308206"><ele>191.0</ele><time>2026-04-05T17:22:24.996Z</time></trkpt><trkpt lat="45.46743202230627" lon="8.215174554660265"><ele>191.0</ele><time>2026-04-05T17:22:25.995Z</time></trkpt><trkpt lat="45.467546715098074" lon="8.215092072469005"><ele>191.0</ele><time>2026-04-05T17:22:26.995Z</time></trkpt><trkpt lat="45.467648944009945" lon="8.215023378923211"><ele>191.0</ele><time>2026-04-05T17:22:27.995Z</time></trkpt><trkpt lat="45.467747069677266" lon="8.214968872972713"><ele>191.0</ele><time>2026-04-05T17:22:28.995Z</time></trkpt><trkpt lat="45.46784005487607" lon="8.214935435743389"><ele>191.0</ele><time>2026-04-05T17:22:29.995Z</time></trkpt><trkpt lat="45.46793224396193" lon="8.214927231985254"><ele>191.0</ele><time>2026-04-05T17:22:30.995Z</time></trkpt><trkpt lat="45.4680219827235" lon="8.214937343435246"><ele>191.0</ele><time>2026-04-05T17:22:31.995Z</time></trkpt><trkpt lat="45.46811197834122" lon="8.214946077896641"><ele>191.0</ele><time>2026-04-05T17:22:32.995Z</time></trkpt><trkpt lat="45.46820961522516" lon="8.214938327091133"><ele>190.75</ele><time>2026-04-05T17:22:33.995Z</time></trkpt><trkpt lat="45.46831585392381" lon="8.214930341316112"><ele>190.5</ele><time>2026-04-05T17:22:34.995Z</time></trkpt><trkpt lat="45.468431020639876" lon="8.21493690644221"><ele>190.25</ele><time>2026-04-05T17:22:35.995Z</time></trkpt><trkpt lat="45.46854933817266" lon="8.214972687984648"><ele>190.0</ele><time>2026-04-05T17:22:36.995Z</time></trkpt><trkpt lat="45.46867223316159" lon="8.215045972725434"><ele>190.66666666666669</ele><time>2026-04-05T17:22:37.995Z</time></trkpt><trkpt lat="45.46879944908058" lon="8.215140133263034"><ele>191.33333333333334</ele><time>2026-04-05T17:22:38.995Z</time></trkpt><trkpt lat="45.4689333702688" lon="8.215240895062918"><ele>192.0</ele><time>2026-04-05T17:22:39.995Z</time></trkpt><trkpt lat="45.469075466746425" lon="8.2153464264302"><ele>192.0</ele><time>2026-04-05T17:22:40.995Z</time></trkpt><trkpt lat="45.46922523657247" lon="8.215457323131302"><ele>192.0</ele><time>2026-04-05T17:22:41.995Z</time></trkpt><trkpt lat="45.46938483022649" lon="8.215573828902615"><ele>192.0</ele><time>2026-04-05T17:22:42.995Z</time></trkpt><trkpt lat="45.46955292299292" lon="8.215701239230624"><ele>192.0</ele><time>2026-04-05T17:22:43.995Z</time></trkpt><trkpt lat="45.46972736240399" lon="8.21583296837202"><ele>192.0</ele><time>2026-04-05T17:22:44.995Z</time></trkpt><trkpt lat="45.469906629434675" lon="8.215967986509636"><ele>192.0</ele><time>2026-04-05T17:22:45.995Z</time></trkpt><trkpt lat="45.470076806833305" lon="8.21609521644088"><ele>192.0</ele><time>2026-04-05T17:22:46.995Z</time></trkpt><trkpt lat="45.470245164190466" lon="8.216218994032431"><ele>192.0</ele><time>2026-04-05T17:22:47.995Z</time></trkpt><trkpt lat="45.47041955978703" lon="8.21634859667417"><ele>192.0</ele><time>2026-04-05T17:22:48.995Z</time></trkpt><trkpt lat="45.47059955904957" lon="8.216481058670318"><ele>191.66666666666666</ele><time>2026-04-05T17:22:49.995Z</time></trkpt><trkpt lat="45.47078044114023" lon="8.216618794354206"><ele>191.33333333333331</ele><time>2026-04-05T17:22:50.995Z</time></trkpt><trkpt lat="45.4709677843619" lon="8.216756472110989"><ele>191.0</ele><time>2026-04-05T17:22:51.995Z</time></trkpt><trkpt lat="45.47115891106932" lon="8.216896086627813"><ele>191.0</ele><time>2026-04-05T17:22:52.994Z</time></trkpt><trkpt lat="45.471350762000505" lon="8.217039143062824"><ele>191.0</ele><time>2026-04-05T17:22:53.994Z</time></trkpt><trkpt lat="45.47153639438046" lon="8.217178458660058"><ele>191.0</ele><time>2026-04-05T17:22:54.994Z</time></trkpt><trkpt lat="45.4717143717211" lon="8.217309935407947"><ele>191.0</ele><time>2026-04-05T17:22:55.994Z</time></trkpt><trkpt lat="45.47189410775813" lon="8.217445888154387"><ele>191.0</ele><time>2026-04-05T17:22:56.994Z</time></trkpt><trkpt lat="45.47208016489536" lon="8.217585363412368"><ele>191.0</ele><time>2026-04-05T17:22:57.994Z</time></trkpt><trkpt lat="45.4722677290134" lon="8.217720130258193"><ele>190.66666666666666</ele><time>2026-04-05T17:22:58.994Z</time></trkpt><trkpt lat="45.47245095448671" lon="8.217839766040628"><ele>190.33333333333334</ele><time>2026-04-05T17:22:59.994Z</time></trkpt><trkpt lat="45.47264504931645" lon="8.217949887329059"><ele>190.0</ele><time>2026-04-05T17:23:00.994Z</time></trkpt><trkpt lat="45.47284464573372" lon="8.218055708585723"><ele>190.0</ele><time>2026-04-05T17:23:01.994Z</time></trkpt><trkpt lat="45.47305266134299" lon="8.218147543514677"><ele>190.0</ele><time>2026-04-05T17:23:02.994Z</time></trkpt><trkpt lat="45.47326841229089" lon="8.21823144847605"><ele>190.0</ele><time>2026-04-05T17:23:03.994Z</time></trkpt><trkpt lat="45.47348760242706" lon="8.218313134157386"><ele>190.0</ele><time>2026-04-05T17:23:04.994Z</time></trkpt><trkpt lat="45.4737060784012" lon="8.218396718170283"><ele>190.0</ele><time>2026-04-05T17:23:05.994Z</time></trkpt><trkpt lat="45.47392669255311" lon="8.218480550545365"><ele>190.0</ele><time>2026-04-05T17:23:06.994Z</time></trkpt><trkpt lat="45.47414314971368" lon="8.218562530066903"><ele>190.0</ele><time>2026-04-05T17:23:07.994Z</time></trkpt><trkpt lat="45.47435479179713" lon="8.218642068097278"><ele>190.0</ele><time>2026-04-05T17:23:08.994Z</time></trkpt><trkpt lat="45.47456306326589" lon="8.218719995096578"><ele>189.66666666666669</ele><time>2026-04-05T17:23:09.994Z</time></trkpt><trkpt lat="45.47476727296878" lon="8.218793882295207"><ele>189.33333333333334</ele><time>2026-04-05T17:23:10.994Z</time></trkpt><trkpt lat="45.47496907256473" lon="8.218857877675058"><ele>189.0</ele><time>2026-04-05T17:23:11.994Z</time></trkpt><trkpt lat="45.475167429253545" lon="8.2189079089785"><ele>189.0</ele><time>2026-04-05T17:23:12.994Z</time></trkpt><trkpt lat="45.475365162139724" lon="8.218938863972676"><ele>189.0</ele><time>2026-04-05T17:23:13.994Z</time></trkpt><trkpt lat="45.47555870495471" lon="8.218952377392364"><ele>189.0</ele><time>2026-04-05T17:23:14.994Z</time></trkpt><trkpt lat="45.47575224682096" lon="8.218947791745563"><ele>189.0</ele><time>2026-04-05T17:23:15.994Z</time></trkpt><trkpt lat="45.47594844712723" lon="8.21892657694858"><ele>189.0</ele><time>2026-04-05T17:23:16.994Z</time></trkpt><trkpt lat="45.47614478793995" lon="8.218893864011484"><ele>189.0</ele><time>2026-04-05T17:23:17.994Z</time></trkpt><trkpt lat="45.47634421407438" lon="8.218855014345616"><ele>190.0</ele><time>2026-04-05T17:23:18.994Z</time></trkpt><trkpt lat="45.47654352232337" lon="8.218814511314356"><ele>191.0</ele><time>2026-04-05T17:23:19.994Z</time></trkpt><trkpt lat="45.47674178977494" lon="8.21877250579155"><ele>192.0</ele><time>2026-04-05T17:23:20.994Z</time></trkpt><trkpt lat="45.476941378000745" lon="8.21875537965255"><ele>193.0</ele><time>2026-04-05T17:23:21.994Z</time></trkpt><trkpt lat="45.477136287693845" lon="8.218715631550118"><ele>194.0</ele><time>2026-04-05T17:23:22.994Z</time></trkpt><trkpt lat="45.47733069004334" lon="8.218675986972777"><ele>195.0</ele><time>2026-04-05T17:23:23.994Z</time></trkpt><trkpt lat="45.47752465206002" lon="8.218636432217124"><ele>195.0</ele><time>2026-04-05T17:23:24.994Z</time></trkpt><trkpt lat="45.47772344811712" lon="8.218595891658369"><ele>195.0</ele><time>2026-04-05T17:23:25.994Z</time></trkpt><trkpt lat="45.47793341584117" lon="8.218553072834798"><ele>195.0</ele><time>2026-04-05T17:23:26.994Z</time></trkpt><trkpt lat="45.47814910649295" lon="8.218509086849755"><ele>196.0</ele><time>2026-04-05T17:23:27.994Z</time></trkpt><trkpt lat="45.47836067577633" lon="8.218465943354111"><ele>197.0</ele><time>2026-04-05T17:23:28.994Z</time></trkpt><trkpt lat="45.47856986882639" lon="8.218423282496705"><ele>198.0</ele><time>2026-04-05T17:23:29.994Z</time></trkpt><trkpt lat="45.478784483118666" lon="8.218379516022747"><ele>198.66666666666669</ele><time>2026-04-05T17:23:30.994Z</time></trkpt><trkpt lat="45.479000300400294" lon="8.218336127656878"><ele>199.33333333333334</ele><time>2026-04-05T17:23:31.994Z</time></trkpt><trkpt lat="45.479219286910826" lon="8.218292073181695"><ele>200.0</ele><time>2026-04-05T17:23:32.994Z</time></trkpt><trkpt lat="45.47944886555046" lon="8.21824588783902"><ele>200.0</ele><time>2026-04-05T17:23:33.994Z</time></trkpt><trkpt lat="45.479687780465724" lon="8.218197824273906"><ele>200.0</ele><time>2026-04-05T17:23:34.993Z</time></trkpt><trkpt lat="45.47993584656827" lon="8.218147919733193"><ele>200.0</ele><time>2026-04-05T17:23:35.993Z</time></trkpt><trkpt lat="45.4801937683549" lon="8.21809603247995"><ele>200.0</ele><time>2026-04-05T17:23:36.993Z</time></trkpt><trkpt lat="45.48045774736283" lon="8.218043170843659"><ele>200.0</ele><time>2026-04-05T17:23:37.993Z</time></trkpt><trkpt lat="45.480724856720826" lon="8.217989993566798"><ele>200.0</ele><time>2026-04-05T17:23:38.993Z</time></trkpt><trkpt lat="45.48098882965827" lon="8.217916882214352"><ele>200.0</ele><time>2026-04-05T17:23:39.993Z</time></trkpt><trkpt lat="45.48125327329738" lon="8.217876648709877"><ele>200.0</ele><time>2026-04-05T17:23:40.993Z</time></trkpt><trkpt lat="45.48151375760444" lon="8.21782784457054"><ele>199.5</ele><time>2026-04-05T17:23:41.993Z</time></trkpt><trkpt lat="45.48176980887238" lon="8.217778080818103"><ele>199.0</ele><time>2026-04-05T17:23:42.993Z</time></trkpt><trkpt lat="45.48202470495118" lon="8.217729532662489"><ele>199.5</ele><time>2026-04-05T17:23:43.993Z</time></trkpt><trkpt lat="45.48227542516657" lon="8.217678165793501"><ele>200.0</ele><time>2026-04-05T17:23:44.993Z</time></trkpt><trkpt lat="45.48252095527309" lon="8.217625710842626"><ele>200.0</ele><time>2026-04-05T17:23:45.993Z</time></trkpt><trkpt lat="45.48276177768217" lon="8.217574046302095"><ele>200.0</ele><time>2026-04-05T17:23:46.993Z</time></trkpt><trkpt lat="45.483000073835434" lon="8.217524498984359"><ele>199.5</ele><time>2026-04-05T17:23:47.993Z</time></trkpt><trkpt lat="45.48323802085953" lon="8.217476338026874"><ele>199.0</ele><time>2026-04-05T17:23:48.993Z</time></trkpt><trkpt lat="45.48347666618222" lon="8.217429979434037"><ele>199.0</ele><time>2026-04-05T17:23:49.993Z</time></trkpt><trkpt lat="45.48371528614203" lon="8.2173827614237"><ele>199.0</ele><time>2026-04-05T17:23:50.993Z</time></trkpt><trkpt lat="45.48395155735318" lon="8.217335552605464"><ele>198.5</ele><time>2026-04-05T17:23:51.993Z</time></trkpt><trkpt lat="45.48418938181937" lon="8.217290082414067"><ele>198.0</ele><time>2026-04-05T17:23:52.993Z</time></trkpt><trkpt lat="45.48442769674482" lon="8.217241936211712"><ele>198.5</ele><time>2026-04-05T17:23:53.993Z</time></trkpt><trkpt lat="45.48466640708886" lon="8.217192540723456"><ele>199.0</ele><time>2026-04-05T17:23:54.993Z</time></trkpt><trkpt lat="45.484906215612526" lon="8.217141009341864"><ele>199.0</ele><time>2026-04-05T17:23:55.993Z</time></trkpt><trkpt lat="45.48514573331852" lon="8.217091439158418"><ele>199.0</ele><time>2026-04-05T17:23:56.993Z</time></trkpt><trkpt lat="45.48538837949927" lon="8.217043348673464"><ele>198.5</ele><time>2026-04-05T17:23:57.993Z</time></trkpt><trkpt lat="45.48563006729716" lon="8.216993422224691"><ele>198.0</ele><time>2026-04-05T17:23:58.993Z</time></trkpt><trkpt lat="45.485871370764414" lon="8.21694452966329"><ele>198.0</ele><time>2026-04-05T17:23:59.993Z</time></trkpt><trkpt lat="45.48611466688925" lon="8.216896965677243"><ele>198.0</ele><time>2026-04-05T17:24:00.993Z</time></trkpt><trkpt lat="45.48635810745013" lon="8.216848613330592"><ele>197.5</ele><time>2026-04-05T17:24:01.993Z</time></trkpt><trkpt lat="45.486602909585606" lon="8.216801249339499"><ele>197.0</ele><time>2026-04-05T17:24:02.993Z</time></trkpt><trkpt lat="45.48684819412838" lon="8.216754206241513"><ele>197.0</ele><time>2026-04-05T17:24:03.993Z</time></trkpt><trkpt lat="45.48709407049258" lon="8.216705142343262"><ele>197.0</ele><time>2026-04-05T17:24:04.993Z</time></trkpt><trkpt lat="45.48734071914531" lon="8.216655387186776"><ele>196.5</ele><time>2026-04-05T17:24:05.993Z</time></trkpt><trkpt lat="45.48758744253458" lon="8.216603839469585"><ele>196.0</ele><time>2026-04-05T17:24:06.993Z</time></trkpt><trkpt lat="45.487833422715134" lon="8.21654971073774"><ele>195.0</ele><time>2026-04-05T17:24:07.993Z</time></trkpt><trkpt lat="45.48807926058625" lon="8.216495847797095"><ele>194.0</ele><time>2026-04-05T17:24:08.993Z</time></trkpt><trkpt lat="45.48832637741088" lon="8.216444405372602"><ele>194.0</ele><time>2026-04-05T17:24:09.993Z</time></trkpt><trkpt lat="45.48857369039226" lon="8.216396149949329"><ele>194.0</ele><time>2026-04-05T17:24:10.993Z</time></trkpt><trkpt lat="45.48882458551731" lon="8.216364618011443"><ele>195.5</ele><time>2026-04-05T17:24:11.993Z</time></trkpt><trkpt lat="45.48907556304277" lon="8.216312476551293"><ele>197.0</ele><time>2026-04-05T17:24:12.993Z</time></trkpt><trkpt lat="45.48932693162124" lon="8.216260253920987"><ele>197.0</ele><time>2026-04-05T17:24:13.993Z</time></trkpt><trkpt lat="45.489576744469744" lon="8.216184822248918"><ele>197.0</ele><time>2026-04-05T17:24:14.993Z</time></trkpt><trkpt lat="45.489828315318654" lon="8.216135542387656"><ele>196.5</ele><time>2026-04-05T17:24:15.993Z</time></trkpt><trkpt lat="45.49008409188153" lon="8.216092775144228"><ele>196.0</ele><time>2026-04-05T17:24:16.992Z</time></trkpt><trkpt lat="45.49032965894075" lon="8.216040475571802"><ele>197.0</ele><time>2026-04-05T17:24:17.992Z</time></trkpt><trkpt lat="45.49056824401483" lon="8.215992536034722"><ele>198.0</ele><time>2026-04-05T17:24:18.995Z</time></trkpt><trkpt lat="45.49079611761313" lon="8.215946604708378"><ele>198.0</ele><time>2026-04-05T17:24:19.995Z</time></trkpt><trkpt lat="45.4910087418765" lon="8.215901859264644"><ele>198.0</ele><time>2026-04-05T17:24:20.995Z</time></trkpt><trkpt lat="45.49120027103133" lon="8.215881382987273"><ele>198.0</ele><time>2026-04-05T17:24:21.995Z</time></trkpt><trkpt lat="45.491368798577525" lon="8.215841515849823"><ele>198.5</ele><time>2026-04-05T17:24:22.995Z</time></trkpt><trkpt lat="45.49152492530415" lon="8.215808108552029"><ele>199.0</ele><time>2026-04-05T17:24:23.995Z</time></trkpt><trkpt lat="45.49167072896815" lon="8.215774347277563"><ele>199.5</ele><time>2026-04-05T17:24:24.995Z</time></trkpt><trkpt lat="45.49180076531934" lon="8.21574641386398"><ele>200.0</ele><time>2026-04-05T17:24:25.995Z</time></trkpt><trkpt lat="45.49191753566062" lon="8.215715201826113"><ele>200.00000000000003</ele><time>2026-04-05T17:24:26.995Z</time></trkpt><trkpt lat="45.49201497898815" lon="8.21567250840884"><ele>200.0</ele><time>2026-04-05T17:24:27.995Z</time></trkpt><trkpt lat="45.49208789097285" lon="8.2156189166994"><ele>200.0</ele><time>2026-04-05T17:24:28.995Z</time></trkpt><trkpt lat="45.49214217874233" lon="8.215544290145903"><ele>200.0</ele><time>2026-04-05T17:24:29.995Z</time></trkpt><trkpt lat="45.49217761722533" lon="8.215459106091467"><ele>200.00000000000003</ele><time>2026-04-05T17:24:30.995Z</time></trkpt><trkpt lat="45.49220764395282" lon="8.215356906553861"><ele>200.0</ele><time>2026-04-05T17:24:31.995Z</time></trkpt><trkpt lat="45.492246817925306" lon="8.215237791578046"><ele>200.8</ele><time>2026-04-05T17:24:32.994Z</time></trkpt><trkpt lat="45.49229939559016" lon="8.215114712631967"><ele>201.6</ele><time>2026-04-05T17:24:33.994Z</time></trkpt><trkpt lat="45.492371172562926" lon="8.214993881076586"><ele>202.39999999999998</ele><time>2026-04-05T17:24:34.994Z</time></trkpt><trkpt lat="45.492450319243886" lon="8.214876016894056"><ele>203.2</ele><time>2026-04-05T17:24:35.994Z</time></trkpt><trkpt lat="45.4925405171462" lon="8.214766250054334"><ele>204.0</ele><time>2026-04-05T17:24:36.994Z</time></trkpt><trkpt lat="45.492644249628654" lon="8.214667299691417"><ele>204.0</ele><time>2026-04-05T17:24:37.994Z</time></trkpt><trkpt lat="45.49276217697368" lon="8.214580677210389"><ele>204.0</ele><time>2026-04-05T17:24:38.994Z</time></trkpt><trkpt lat="45.492890317461246" lon="8.214502250310229"><ele>204.0</ele><time>2026-04-05T17:24:39.994Z</time></trkpt><trkpt lat="45.49302577578959" lon="8.214429049493567"><ele>204.0</ele><time>2026-04-05T17:24:40.994Z</time></trkpt><trkpt lat="45.49316800571631" lon="8.214352048962994"><ele>204.25</ele><time>2026-04-05T17:24:41.994Z</time></trkpt><trkpt lat="45.49330959528553" lon="8.214278023229772"><ele>204.5</ele><time>2026-04-05T17:24:42.994Z</time></trkpt><trkpt lat="45.493441140811825" lon="8.21421114366382"><ele>204.75</ele><time>2026-04-05T17:24:43.994Z</time></trkpt><trkpt lat="45.49357070030091" lon="8.214144393610674"><ele>205.0</ele><time>2026-04-05T17:24:44.994Z</time></trkpt><trkpt lat="45.4937085946466" lon="8.214076803227579"><ele>205.0</ele><time>2026-04-05T17:24:45.994Z</time></trkpt><trkpt lat="45.493851853470545" lon="8.214003995505125"><ele>205.0</ele><time>2026-04-05T17:24:46.994Z</time></trkpt><trkpt lat="45.49400146606501" lon="8.213929757963847"><ele>205.0</ele><time>2026-04-05T17:24:47.994Z</time></trkpt><trkpt lat="45.49415382413941" lon="8.21385217538871"><ele>205.0</ele><time>2026-04-05T17:24:48.994Z</time></trkpt><trkpt lat="45.494307994674195" lon="8.213772299956698"><ele>205.0</ele><time>2026-04-05T17:24:49.994Z</time></trkpt><trkpt lat="45.494465461288286" lon="8.213694897137646"><ele>205.0</ele><time>2026-04-05T17:24:50.994Z</time></trkpt><trkpt lat="45.49462598027906" lon="8.21361752982074"><ele>204.66666666666666</ele><time>2026-04-05T17:24:51.994Z</time></trkpt><trkpt lat="45.49478863609166" lon="8.213535159234247"><ele>204.33333333333331</ele><time>2026-04-05T17:24:52.994Z</time></trkpt><trkpt lat="45.494947465146936" lon="8.213457181455468"><ele>204.0</ele><time>2026-04-05T17:24:53.994Z</time></trkpt><trkpt lat="45.49509772415372" lon="8.213381822501214"><ele>204.0</ele><time>2026-04-05T17:24:54.994Z</time></trkpt><trkpt lat="45.49524802355787" lon="8.213307555115588"><ele>204.0</ele><time>2026-04-05T17:24:55.994Z</time></trkpt><trkpt lat="45.49540320789965" lon="8.213228861884577"><ele>204.0</ele><time>2026-04-05T17:24:56.994Z</time></trkpt><trkpt lat="45.49556256780537" lon="8.213147438672483"><ele>205.33333333333331</ele><time>2026-04-05T17:24:57.994Z</time></trkpt><trkpt lat="45.49572347483396" lon="8.213066152870248"><ele>206.66666666666666</ele><time>2026-04-05T17:24:58.994Z</time></trkpt><trkpt lat="45.49588572148708" lon="8.212983934779835"><ele>208.0</ele><time>2026-04-05T17:24:59.994Z</time></trkpt><trkpt lat="45.496049043954" lon="8.212898985516595"><ele>208.0</ele><time>2026-04-05T17:25:00.994Z</time></trkpt><trkpt lat="45.49621459840239" lon="8.212815355436504"><ele>208.0</ele><time>2026-04-05T17:25:01.994Z</time></trkpt><trkpt lat="45.49638102693254" lon="8.21272725067125"><ele>208.0</ele><time>2026-04-05T17:25:02.994Z</time></trkpt><trkpt lat="45.49654632271447" lon="8.212638300103398"><ele>208.33333333333331</ele><time>2026-04-05T17:25:03.994Z</time></trkpt><trkpt lat="45.49671379286027" lon="8.21255047957816"><ele>208.66666666666669</ele><time>2026-04-05T17:25:04.994Z</time></trkpt><trkpt lat="45.496881873457674" lon="8.212463667189057"><ele>209.0</ele><time>2026-04-05T17:25:05.994Z</time></trkpt><trkpt lat="45.497049652607224" lon="8.212376687183314"><ele>209.33333333333334</ele><time>2026-04-05T17:25:06.994Z</time></trkpt><trkpt lat="45.4972204697421" lon="8.212313525534947"><ele>209.66666666666669</ele><time>2026-04-05T17:25:07.994Z</time></trkpt><trkpt lat="45.49738607880738" lon="8.212228745818841"><ele>210.0</ele><time>2026-04-05T17:25:08.994Z</time></trkpt><trkpt lat="45.49755265381122" lon="8.212142075609624"><ele>210.0</ele><time>2026-04-05T17:25:09.994Z</time></trkpt><trkpt lat="45.497720224262444" lon="8.212054726766883"><ele>210.0</ele><time>2026-04-05T17:25:10.994Z</time></trkpt><trkpt lat="45.49788454944395" lon="8.211968735384561"><ele>210.0</ele><time>2026-04-05T17:25:11.994Z</time></trkpt><trkpt lat="45.498049111680274" lon="8.211883657997564"><ele>209.33333333333331</ele><time>2026-04-05T17:25:12.994Z</time></trkpt><trkpt lat="45.49821113000618" lon="8.211799651603831"><ele>208.66666666666666</ele><time>2026-04-05T17:25:13.994Z</time></trkpt><trkpt lat="45.49837298062352" lon="8.211713857504268"><ele>208.0</ele><time>2026-04-05T17:25:14.993Z</time></trkpt><trkpt lat="45.4985388376732" lon="8.211652033202952"><ele>208.0</ele><time>2026-04-05T17:25:15.993Z</time></trkpt><trkpt lat="45.49869761571019" lon="8.21156484493917"><ele>208.0</ele><time>2026-04-05T17:25:16.993Z</time></trkpt><trkpt lat="45.49886071225843" lon="8.21147562363593"><ele>208.0</ele><time>2026-04-05T17:25:17.993Z</time></trkpt><trkpt lat="45.49902725634886" lon="8.211391000932863"><ele>208.0</ele><time>2026-04-05T17:25:18.993Z</time></trkpt><trkpt lat="45.49919593868275" lon="8.211306899140043"><ele>208.0</ele><time>2026-04-05T17:25:19.993Z</time></trkpt><trkpt lat="45.499365403741855" lon="8.211222876928334"><ele>208.0</ele><time>2026-04-05T17:25:20.993Z</time></trkpt><trkpt lat="45.49953578865601" lon="8.211139268447576"><ele>208.33333333333331</ele><time>2026-04-05T17:25:21.993Z</time></trkpt><trkpt lat="45.499707940097814" lon="8.211052965690076"><ele>208.66666666666669</ele><time>2026-04-05T17:25:22.993Z</time></trkpt><trkpt lat="45.499881309022236" lon="8.21096686923323"><ele>209.0</ele><time>2026-04-05T17:25:23.993Z</time></trkpt><trkpt lat="45.5000536862902" lon="8.210881145197053"><ele>209.0</ele><time>2026-04-05T17:25:24.993Z</time></trkpt><trkpt lat="45.500224927612486" lon="8.210797291100466"><ele>209.0</ele><time>2026-04-05T17:25:25.993Z</time></trkpt><trkpt lat="45.500391905639546" lon="8.210714388407844"><ele>209.0</ele><time>2026-04-05T17:25:26.993Z</time></trkpt><trkpt lat="45.50055284059737" lon="8.210627322679388"><ele>209.66666666666669</ele><time>2026-04-05T17:25:27.993Z</time></trkpt><trkpt lat="45.50071181435218" lon="8.210542853669237"><ele>210.33333333333331</ele><time>2026-04-05T17:25:28.993Z</time></trkpt><trkpt lat="45.500869413719506" lon="8.210462611111314"><ele>211.0</ele><time>2026-04-05T17:25:29.993Z</time></trkpt><trkpt lat="45.501027011059065" lon="8.21038109108322"><ele>211.0</ele><time>2026-04-05T17:25:30.993Z</time></trkpt><trkpt lat="45.50117894811937" lon="8.210303423346318"><ele>211.0</ele><time>2026-04-05T17:25:31.993Z</time></trkpt><trkpt lat="45.50133080689739" lon="8.210250607992386"><ele>211.0</ele><time>2026-04-05T17:25:32.993Z</time></trkpt><trkpt lat="45.5014713230951" lon="8.210180283030713"><ele>210.75</ele><time>2026-04-05T17:25:33.993Z</time></trkpt><trkpt lat="45.501602922971074" lon="8.210115151595788"><ele>210.5</ele><time>2026-04-05T17:25:34.993Z</time></trkpt><trkpt lat="45.50172922053087" lon="8.21005113908734"><ele>210.25</ele><time>2026-04-05T17:25:35.993Z</time></trkpt><trkpt lat="45.50184648120379" lon="8.209991093177376"><ele>210.0</ele><time>2026-04-05T17:25:36.993Z</time></trkpt><trkpt lat="45.50195075499581" lon="8.20993716779769"><ele>210.0</ele><time>2026-04-05T17:25:37.993Z</time></trkpt><trkpt lat="45.502037996055364" lon="8.209893917387078"><ele>210.0</ele><time>2026-04-05T17:25:38.993Z</time></trkpt><trkpt lat="45.50211389234586" lon="8.20985669411868"><ele>210.0</ele><time>2026-04-05T17:25:39.993Z</time></trkpt><trkpt lat="45.502186070795396" lon="8.209820845408098"><ele>210.0</ele><time>2026-04-05T17:25:40.993Z</time></trkpt><trkpt lat="45.50225723880268" lon="8.209787960034046"><ele>210.0</ele><time>2026-04-05T17:25:41.993Z</time></trkpt><trkpt lat="45.502330230287946" lon="8.20975221640753"><ele>210.0</ele><time>2026-04-05T17:25:42.993Z</time></trkpt><trkpt lat="45.502414634837784" lon="8.209709286182989"><ele>210.0</ele><time>2026-04-05T17:25:43.993Z</time></trkpt><trkpt lat="45.502508997261835" lon="8.20965992036492"><ele>210.0</ele><time>2026-04-05T17:25:44.993Z</time></trkpt><trkpt lat="45.50261171702294" lon="8.209605279434028"><ele>210.0</ele><time>2026-04-05T17:25:45.993Z</time></trkpt><trkpt lat="45.50271945122577" lon="8.209545953350442"><ele>210.0</ele><time>2026-04-05T17:25:46.993Z</time></trkpt><trkpt lat="45.50283444113604" lon="8.209483040352115"><ele>210.0</ele><time>2026-04-05T17:25:47.993Z</time></trkpt><trkpt lat="45.50295782869278" lon="8.209418893155169"><ele>210.5</ele><time>2026-04-05T17:25:48.993Z</time></trkpt><trkpt lat="45.50308436768764" lon="8.209346904972179"><ele>211.0</ele><time>2026-04-05T17:25:49.993Z</time></trkpt><trkpt lat="45.503216758963774" lon="8.209272892962733"><ele>211.5</ele><time>2026-04-05T17:25:50.993Z</time></trkpt><trkpt lat="45.50335627851318" lon="8.209202240527302"><ele>212.0</ele><time>2026-04-05T17:25:51.993Z</time></trkpt><trkpt lat="45.50349759810561" lon="8.209154291682246"><ele>212.0</ele><time>2026-04-05T17:25:52.993Z</time></trkpt><trkpt lat="45.50362714091066" lon="8.209091428983841"><ele>212.0</ele><time>2026-04-05T17:25:53.993Z</time></trkpt><trkpt lat="45.50375168022968" lon="8.20902762499852"><ele>212.0</ele><time>2026-04-05T17:25:54.993Z</time></trkpt><trkpt lat="45.50388104206064" lon="8.20895836188523"><ele>212.0</ele><time>2026-04-05T17:25:55.993Z</time></trkpt><trkpt lat="45.50401570618177" lon="8.208887490770719"><ele>211.75</ele><time>2026-04-05T17:25:56.992Z</time></trkpt><trkpt lat="45.50415543319557" lon="8.208818130988028"><ele>211.5</ele><time>2026-04-05T17:25:57.992Z</time></trkpt><trkpt lat="45.504296787710274" lon="8.20874796678492"><ele>211.25</ele><time>2026-04-05T17:25:58.992Z</time></trkpt><trkpt lat="45.50443846839401" lon="8.2086778853791"><ele>211.0</ele><time>2026-04-05T17:25:59.992Z</time></trkpt><trkpt lat="45.504581210597586" lon="8.208608803457832"><ele>210.33333333333331</ele><time>2026-04-05T17:26:00.992Z</time></trkpt><trkpt lat="45.50472697482888" lon="8.208539367764448"><ele>209.66666666666669</ele><time>2026-04-05T17:26:01.992Z</time></trkpt><trkpt lat="45.50486805440389" lon="8.208463511725432"><ele>209.0</ele><time>2026-04-05T17:26:02.992Z</time></trkpt><trkpt lat="45.50500704031153" lon="8.208392313692489"><ele>209.0</ele><time>2026-04-05T17:26:03.992Z</time></trkpt><trkpt lat="45.50514226125885" lon="8.208318846335747"><ele>209.0</ele><time>2026-04-05T17:26:04.992Z</time></trkpt><trkpt lat="45.50528315854728" lon="8.208277039969246"><ele>209.0</ele><time>2026-04-05T17:26:05.992Z</time></trkpt><trkpt lat="45.50541396087913" lon="8.208211648314656"><ele>209.0</ele><time>2026-04-05T17:26:06.992Z</time></trkpt><trkpt lat="45.505539190397954" lon="8.208149067454245"><ele>209.25</ele><time>2026-04-05T17:26:07.992Z</time></trkpt><trkpt lat="45.505662677233346" lon="8.208090243561497"><ele>209.5</ele><time>2026-04-05T17:26:08.992Z</time></trkpt><trkpt lat="45.50578415115248" lon="8.208036568892945"><ele>209.75</ele><time>2026-04-05T17:26:09.992Z</time></trkpt><trkpt lat="45.50590048697143" lon="8.207989428500639"><ele>210.0</ele><time>2026-04-05T17:26:10.992Z</time></trkpt><trkpt lat="45.50601231835464" lon="8.20793938983746"><ele>210.0</ele><time>2026-04-05T17:26:11.992Z</time></trkpt><trkpt lat="45.5061234444537" lon="8.207888152906625"><ele>210.0</ele><time>2026-04-05T17:26:12.992Z</time></trkpt><trkpt lat="45.50623356307791" lon="8.207841071159464"><ele>210.0</ele><time>2026-04-05T17:26:13.992Z</time></trkpt><trkpt lat="45.506332561873975" lon="8.207797710348464"><ele>210.0</ele><time>2026-04-05T17:26:14.992Z</time></trkpt><trkpt lat="45.50642853310379" lon="8.207758895081477"><ele>210.0</ele><time>2026-04-05T17:26:15.992Z</time></trkpt><trkpt lat="45.50652004276571" lon="8.207731615167543"><ele>209.83333333333334</ele><time>2026-04-05T17:26:16.992Z</time></trkpt><trkpt lat="45.50660201389379" lon="8.207716306426542"><ele>209.66666666666669</ele><time>2026-04-05T17:26:17.992Z</time></trkpt><trkpt lat="45.50667687231894" lon="8.207708105912943"><ele>209.5</ele><time>2026-04-05T17:26:18.992Z</time></trkpt><trkpt lat="45.50674278502715" lon="8.207684642751595"><ele>209.33333333333334</ele><time>2026-04-05T17:26:19.992Z</time></trkpt><trkpt lat="45.506844672942535" lon="8.207680273477747"><ele>209.16666666666669</ele><time>2026-04-05T17:26:21.992Z</time></trkpt><trkpt lat="45.506882200780524" lon="8.207545589722127"><ele>209.0</ele><time>2026-04-05T17:26:25.995Z</time></trkpt><trkpt lat="45.5068742606269" lon="8.207406249813554"><ele>209.0</ele><time>2026-04-05T17:26:27.995Z</time></trkpt><trkpt lat="45.506860098982" lon="8.207299742015525"><ele>217.0</ele><time>2026-04-05T17:26:29.995Z</time></trkpt><trkpt lat="45.506915698641414" lon="8.2072310475244"><ele>217.0</ele><time>2026-04-05T17:26:32.995Z</time></trkpt></trkseg></trk></gpx>